<?xml version="1.0" encoding="UTF-8" standalone="no" ?>
<gpx xmlns="http://www.topografix.com/GPX/1/1" xmlns:xsi="http://www.w3.org/2001/XMLSchema-instance" xsi:schemaLocation="http://www.topografix.com/GPX/1/1 http://www.topografix.com/GPX/1/1/gpx.xsd" version="1.1" creator="VisuGPX - https://www.visugpx.com">
  <metadata>
    <name>Selle du Puy Gris en boucle</name>
    <desc><![CDATA[Depart de Valmaure.
Descente par la combe des Roches.
Retour a pied a Valmaure.]]></desc>
  </metadata>
  <trk>
    <name><![CDATA[selle-puy-gris]]></name>
    <trkseg>
      <trkpt lat="45.28387" lon="6.21039">
        <ele>1218.8</ele>
        <time>2016-02-27T06:54:47Z</time>
      </trkpt>
      <trkpt lat="45.28381" lon="6.21048">
        <ele>1217.9</ele>
        <time>2016-02-27T06:55:44Z</time>
      </trkpt>
      <trkpt lat="45.28381" lon="6.21049">
        <ele>1217.6</ele>
        <time>2016-02-27T06:55:45Z</time>
      </trkpt>
      <trkpt lat="45.28392" lon="6.21037">
        <ele>1222.6</ele>
        <time>2016-02-27T06:57:08Z</time>
      </trkpt>
      <trkpt lat="45.28391" lon="6.21036">
        <ele>1222.6</ele>
        <time>2016-02-27T06:57:09Z</time>
      </trkpt>
      <trkpt lat="45.28386" lon="6.21014">
        <ele>1224.8</ele>
        <time>2016-02-27T06:57:27Z</time>
      </trkpt>
      <trkpt lat="45.28382" lon="6.21004">
        <ele>1225.6</ele>
        <time>2016-02-27T06:57:36Z</time>
      </trkpt>
      <trkpt lat="45.28381" lon="6.20992">
        <ele>1226.2</ele>
        <time>2016-02-27T06:57:44Z</time>
      </trkpt>
      <trkpt lat="45.2838" lon="6.2098">
        <ele>1228.3</ele>
        <time>2016-02-27T06:57:54Z</time>
      </trkpt>
      <trkpt lat="45.28379" lon="6.20969">
        <ele>1230.3</ele>
        <time>2016-02-27T06:58:05Z</time>
      </trkpt>
      <trkpt lat="45.28374" lon="6.20958">
        <ele>1231.7</ele>
        <time>2016-02-27T06:58:16Z</time>
      </trkpt>
      <trkpt lat="45.28374" lon="6.20957">
        <ele>1231.9</ele>
        <time>2016-02-27T06:58:17Z</time>
      </trkpt>
      <trkpt lat="45.28366" lon="6.20936">
        <ele>1233.6</ele>
        <time>2016-02-27T06:58:37Z</time>
      </trkpt>
      <trkpt lat="45.28361" lon="6.20927">
        <ele>1235</ele>
        <time>2016-02-27T06:58:46Z</time>
      </trkpt>
      <trkpt lat="45.28357" lon="6.20916">
        <ele>1235.2</ele>
        <time>2016-02-27T06:58:56Z</time>
      </trkpt>
      <trkpt lat="45.28356" lon="6.20903">
        <ele>1237.5</ele>
        <time>2016-02-27T06:59:07Z</time>
      </trkpt>
      <trkpt lat="45.28353" lon="6.20892">
        <ele>1239.1</ele>
        <time>2016-02-27T06:59:18Z</time>
      </trkpt>
      <trkpt lat="45.28353" lon="6.20891">
        <ele>1239.2</ele>
        <time>2016-02-27T06:59:19Z</time>
      </trkpt>
      <trkpt lat="45.28351" lon="6.20868">
        <ele>1243.6</ele>
        <time>2016-02-27T06:59:44Z</time>
      </trkpt>
      <trkpt lat="45.28348" lon="6.20856">
        <ele>1245.7</ele>
        <time>2016-02-27T06:59:55Z</time>
      </trkpt>
      <trkpt lat="45.28346" lon="6.20845">
        <ele>1247.1</ele>
        <time>2016-02-27T07:00:05Z</time>
      </trkpt>
      <trkpt lat="45.28342" lon="6.20834">
        <ele>1249.6</ele>
        <time>2016-02-27T07:00:18Z</time>
      </trkpt>
      <trkpt lat="45.28338" lon="6.20823">
        <ele>1250.7</ele>
        <time>2016-02-27T07:00:31Z</time>
      </trkpt>
      <trkpt lat="45.28338" lon="6.20822">
        <ele>1251.3</ele>
        <time>2016-02-27T07:00:32Z</time>
      </trkpt>
      <trkpt lat="45.28333" lon="6.208">
        <ele>1255</ele>
        <time>2016-02-27T07:00:54Z</time>
      </trkpt>
      <trkpt lat="45.2833" lon="6.20788">
        <ele>1257.2</ele>
        <time>2016-02-27T07:01:09Z</time>
      </trkpt>
      <trkpt lat="45.28327" lon="6.20776">
        <ele>1261.2</ele>
        <time>2016-02-27T07:01:25Z</time>
      </trkpt>
      <trkpt lat="45.28326" lon="6.20764">
        <ele>1264.4</ele>
        <time>2016-02-27T07:01:41Z</time>
      </trkpt>
      <trkpt lat="45.28327" lon="6.20763">
        <ele>1264.7</ele>
        <time>2016-02-27T07:01:42Z</time>
      </trkpt>
      <trkpt lat="45.28322" lon="6.20741">
        <ele>1269.5</ele>
        <time>2016-02-27T07:02:09Z</time>
      </trkpt>
      <trkpt lat="45.28321" lon="6.20728">
        <ele>1272.4</ele>
        <time>2016-02-27T07:02:21Z</time>
      </trkpt>
      <trkpt lat="45.28329" lon="6.20726">
        <ele>1275.2</ele>
        <time>2016-02-27T07:02:37Z</time>
      </trkpt>
      <trkpt lat="45.28338" lon="6.20724">
        <ele>1277.3</ele>
        <time>2016-02-27T07:02:52Z</time>
      </trkpt>
      <trkpt lat="45.28338" lon="6.20723">
        <ele>1277.1</ele>
        <time>2016-02-27T07:02:53Z</time>
      </trkpt>
      <trkpt lat="45.28345" lon="6.20706">
        <ele>1282.7</ele>
        <time>2016-02-27T07:03:26Z</time>
      </trkpt>
      <trkpt lat="45.2834" lon="6.20697">
        <ele>1285</ele>
        <time>2016-02-27T07:03:41Z</time>
      </trkpt>
      <trkpt lat="45.28333" lon="6.20689">
        <ele>1285.7</ele>
        <time>2016-02-27T07:03:52Z</time>
      </trkpt>
      <trkpt lat="45.28331" lon="6.20677">
        <ele>1287.5</ele>
        <time>2016-02-27T07:04:02Z</time>
      </trkpt>
      <trkpt lat="45.2833" lon="6.20676">
        <ele>1287.7</ele>
        <time>2016-02-27T07:04:03Z</time>
      </trkpt>
      <trkpt lat="45.28331" lon="6.20652">
        <ele>1290.8</ele>
        <time>2016-02-27T07:04:26Z</time>
      </trkpt>
      <trkpt lat="45.28339" lon="6.20649">
        <ele>1293.5</ele>
        <time>2016-02-27T07:04:44Z</time>
      </trkpt>
      <trkpt lat="45.28348" lon="6.20648">
        <ele>1296.2</ele>
        <time>2016-02-27T07:05:02Z</time>
      </trkpt>
      <trkpt lat="45.28353" lon="6.20638">
        <ele>1298.8</ele>
        <time>2016-02-27T07:05:16Z</time>
      </trkpt>
      <trkpt lat="45.28353" lon="6.20637">
        <ele>1299.3</ele>
        <time>2016-02-27T07:05:17Z</time>
      </trkpt>
      <trkpt lat="45.28354" lon="6.20613">
        <ele>1303.5</ele>
        <time>2016-02-27T07:05:44Z</time>
      </trkpt>
      <trkpt lat="45.28348" lon="6.20604">
        <ele>1305.4</ele>
        <time>2016-02-27T07:05:57Z</time>
      </trkpt>
      <trkpt lat="45.28345" lon="6.20592">
        <ele>1306.2</ele>
        <time>2016-02-27T07:06:07Z</time>
      </trkpt>
      <trkpt lat="45.28343" lon="6.20581">
        <ele>1307.1</ele>
        <time>2016-02-27T07:06:15Z</time>
      </trkpt>
      <trkpt lat="45.28341" lon="6.20569">
        <ele>1308</ele>
        <time>2016-02-27T07:06:22Z</time>
      </trkpt>
      <trkpt lat="45.28341" lon="6.20567">
        <ele>1308.1</ele>
        <time>2016-02-27T07:06:23Z</time>
      </trkpt>
      <trkpt lat="45.28338" lon="6.20544">
        <ele>1310.6</ele>
        <time>2016-02-27T07:06:43Z</time>
      </trkpt>
      <trkpt lat="45.28337" lon="6.20532">
        <ele>1311.9</ele>
        <time>2016-02-27T07:06:53Z</time>
      </trkpt>
      <trkpt lat="45.28336" lon="6.2052">
        <ele>1313</ele>
        <time>2016-02-27T07:07:02Z</time>
      </trkpt>
      <trkpt lat="45.28333" lon="6.20509">
        <ele>1314.3</ele>
        <time>2016-02-27T07:07:11Z</time>
      </trkpt>
      <trkpt lat="45.28331" lon="6.20497">
        <ele>1315.4</ele>
        <time>2016-02-27T07:07:21Z</time>
      </trkpt>
      <trkpt lat="45.28327" lon="6.20486">
        <ele>1318.1</ele>
        <time>2016-02-27T07:07:33Z</time>
      </trkpt>
      <trkpt lat="45.28327" lon="6.20485">
        <ele>1318.2</ele>
        <time>2016-02-27T07:07:34Z</time>
      </trkpt>
      <trkpt lat="45.28319" lon="6.20464">
        <ele>1321.9</ele>
        <time>2016-02-27T07:07:59Z</time>
      </trkpt>
      <trkpt lat="45.28317" lon="6.20452">
        <ele>1322.5</ele>
        <time>2016-02-27T07:08:08Z</time>
      </trkpt>
      <trkpt lat="45.28313" lon="6.20441">
        <ele>1324.5</ele>
        <time>2016-02-27T07:08:19Z</time>
      </trkpt>
      <trkpt lat="45.28312" lon="6.20429">
        <ele>1325.8</ele>
        <time>2016-02-27T07:08:28Z</time>
      </trkpt>
      <trkpt lat="45.2831" lon="6.20417">
        <ele>1326.8</ele>
        <time>2016-02-27T07:08:36Z</time>
      </trkpt>
      <trkpt lat="45.2831" lon="6.20416">
        <ele>1326.6</ele>
        <time>2016-02-27T07:08:37Z</time>
      </trkpt>
      <trkpt lat="45.2831" lon="6.20393">
        <ele>1329.3</ele>
        <time>2016-02-27T07:08:58Z</time>
      </trkpt>
      <trkpt lat="45.28312" lon="6.20381">
        <ele>1330.7</ele>
        <time>2016-02-27T07:09:09Z</time>
      </trkpt>
      <trkpt lat="45.28313" lon="6.20369">
        <ele>1332.9</ele>
        <time>2016-02-27T07:09:18Z</time>
      </trkpt>
      <trkpt lat="45.28312" lon="6.20357">
        <ele>1333.2</ele>
        <time>2016-02-27T07:09:27Z</time>
      </trkpt>
      <trkpt lat="45.28305" lon="6.20353">
        <ele>1334.3</ele>
        <time>2016-02-27T07:09:42Z</time>
      </trkpt>
      <trkpt lat="45.28304" lon="6.20353">
        <ele>1334.6</ele>
        <time>2016-02-27T07:09:43Z</time>
      </trkpt>
      <trkpt lat="45.28289" lon="6.20364">
        <ele>1336.1</ele>
        <time>2016-02-27T07:10:06Z</time>
      </trkpt>
      <trkpt lat="45.28282" lon="6.20357">
        <ele>1338.1</ele>
        <time>2016-02-27T07:10:21Z</time>
      </trkpt>
      <trkpt lat="45.2828" lon="6.20344">
        <ele>1339.6</ele>
        <time>2016-02-27T07:10:33Z</time>
      </trkpt>
      <trkpt lat="45.28277" lon="6.20333">
        <ele>1341.2</ele>
        <time>2016-02-27T07:10:44Z</time>
      </trkpt>
      <trkpt lat="45.28277" lon="6.20332">
        <ele>1341.3</ele>
        <time>2016-02-27T07:10:45Z</time>
      </trkpt>
      <trkpt lat="45.28263" lon="6.20327">
        <ele>1342.3</ele>
        <time>2016-02-27T07:11:07Z</time>
      </trkpt>
      <trkpt lat="45.28256" lon="6.2032">
        <ele>1343.6</ele>
        <time>2016-02-27T07:11:18Z</time>
      </trkpt>
      <trkpt lat="45.28253" lon="6.20309">
        <ele>1345.1</ele>
        <time>2016-02-27T07:11:29Z</time>
      </trkpt>
      <trkpt lat="45.28251" lon="6.20297">
        <ele>1346.8</ele>
        <time>2016-02-27T07:11:39Z</time>
      </trkpt>
      <trkpt lat="45.28249" lon="6.20285">
        <ele>1347.7</ele>
        <time>2016-02-27T07:11:50Z</time>
      </trkpt>
      <trkpt lat="45.28248" lon="6.20284">
        <ele>1348.4</ele>
        <time>2016-02-27T07:11:51Z</time>
      </trkpt>
      <trkpt lat="45.28241" lon="6.20263">
        <ele>1352.4</ele>
        <time>2016-02-27T07:12:15Z</time>
      </trkpt>
      <trkpt lat="45.28238" lon="6.20252">
        <ele>1355</ele>
        <time>2016-02-27T07:12:27Z</time>
      </trkpt>
      <trkpt lat="45.28235" lon="6.20241">
        <ele>1355.9</ele>
        <time>2016-02-27T07:12:38Z</time>
      </trkpt>
      <trkpt lat="45.2823" lon="6.2023">
        <ele>1357.3</ele>
        <time>2016-02-27T07:12:49Z</time>
      </trkpt>
      <trkpt lat="45.28226" lon="6.20219">
        <ele>1358.7</ele>
        <time>2016-02-27T07:13:00Z</time>
      </trkpt>
      <trkpt lat="45.28225" lon="6.20218">
        <ele>1358.7</ele>
        <time>2016-02-27T07:13:01Z</time>
      </trkpt>
      <trkpt lat="45.28219" lon="6.20197">
        <ele>1360.5</ele>
        <time>2016-02-27T07:13:21Z</time>
      </trkpt>
      <trkpt lat="45.28215" lon="6.20186">
        <ele>1362.9</ele>
        <time>2016-02-27T07:13:33Z</time>
      </trkpt>
      <trkpt lat="45.28211" lon="6.20175">
        <ele>1365.1</ele>
        <time>2016-02-27T07:13:47Z</time>
      </trkpt>
      <trkpt lat="45.28207" lon="6.20165">
        <ele>1366.3</ele>
        <time>2016-02-27T07:14:01Z</time>
      </trkpt>
      <trkpt lat="45.28206" lon="6.20164">
        <ele>1366.3</ele>
        <time>2016-02-27T07:14:02Z</time>
      </trkpt>
      <trkpt lat="45.28195" lon="6.20147">
        <ele>1371</ele>
        <time>2016-02-27T07:14:29Z</time>
      </trkpt>
      <trkpt lat="45.28189" lon="6.20138">
        <ele>1372.7</ele>
        <time>2016-02-27T07:14:42Z</time>
      </trkpt>
      <trkpt lat="45.28182" lon="6.20131">
        <ele>1373.7</ele>
        <time>2016-02-27T07:14:55Z</time>
      </trkpt>
      <trkpt lat="45.28174" lon="6.20126">
        <ele>1375.9</ele>
        <time>2016-02-27T07:15:07Z</time>
      </trkpt>
      <trkpt lat="45.28173" lon="6.20126">
        <ele>1376.2</ele>
        <time>2016-02-27T07:15:08Z</time>
      </trkpt>
      <trkpt lat="45.2816" lon="6.20113">
        <ele>1378.9</ele>
        <time>2016-02-27T07:15:29Z</time>
      </trkpt>
      <trkpt lat="45.28156" lon="6.20102">
        <ele>1380.7</ele>
        <time>2016-02-27T07:15:42Z</time>
      </trkpt>
      <trkpt lat="45.2815" lon="6.20092">
        <ele>1382.9</ele>
        <time>2016-02-27T07:15:55Z</time>
      </trkpt>
      <trkpt lat="45.28145" lon="6.20082">
        <ele>1385.6</ele>
        <time>2016-02-27T07:16:10Z</time>
      </trkpt>
      <trkpt lat="45.28144" lon="6.20082">
        <ele>1385.3</ele>
        <time>2016-02-27T07:16:11Z</time>
      </trkpt>
      <trkpt lat="45.28134" lon="6.20063">
        <ele>1389</ele>
        <time>2016-02-27T07:16:35Z</time>
      </trkpt>
      <trkpt lat="45.28131" lon="6.20051">
        <ele>1391</ele>
        <time>2016-02-27T07:16:46Z</time>
      </trkpt>
      <trkpt lat="45.28129" lon="6.20039">
        <ele>1392.5</ele>
        <time>2016-02-27T07:16:58Z</time>
      </trkpt>
      <trkpt lat="45.28126" lon="6.20027">
        <ele>1394.7</ele>
        <time>2016-02-27T07:17:10Z</time>
      </trkpt>
      <trkpt lat="45.28124" lon="6.20016">
        <ele>1394.5</ele>
        <time>2016-02-27T07:17:21Z</time>
      </trkpt>
      <trkpt lat="45.28124" lon="6.20015">
        <ele>1394.7</ele>
        <time>2016-02-27T07:17:22Z</time>
      </trkpt>
      <trkpt lat="45.28118" lon="6.19993">
        <ele>1397.4</ele>
        <time>2016-02-27T07:17:44Z</time>
      </trkpt>
      <trkpt lat="45.28115" lon="6.19982">
        <ele>1399.8</ele>
        <time>2016-02-27T07:17:54Z</time>
      </trkpt>
      <trkpt lat="45.28113" lon="6.1997">
        <ele>1400.9</ele>
        <time>2016-02-27T07:18:04Z</time>
      </trkpt>
      <trkpt lat="45.28111" lon="6.19958">
        <ele>1402.5</ele>
        <time>2016-02-27T07:18:15Z</time>
      </trkpt>
      <trkpt lat="45.2811" lon="6.19946">
        <ele>1403.7</ele>
        <time>2016-02-27T07:18:27Z</time>
      </trkpt>
      <trkpt lat="45.28109" lon="6.19945">
        <ele>1403.5</ele>
        <time>2016-02-27T07:18:28Z</time>
      </trkpt>
      <trkpt lat="45.28107" lon="6.19923">
        <ele>1407.2</ele>
        <time>2016-02-27T07:18:49Z</time>
      </trkpt>
      <trkpt lat="45.28108" lon="6.19911">
        <ele>1407.6</ele>
        <time>2016-02-27T07:19:01Z</time>
      </trkpt>
      <trkpt lat="45.28112" lon="6.199">
        <ele>1409.5</ele>
        <time>2016-02-27T07:19:13Z</time>
      </trkpt>
      <trkpt lat="45.28115" lon="6.19888">
        <ele>1411.1</ele>
        <time>2016-02-27T07:19:26Z</time>
      </trkpt>
      <trkpt lat="45.28119" lon="6.19877">
        <ele>1410.9</ele>
        <time>2016-02-27T07:19:39Z</time>
      </trkpt>
      <trkpt lat="45.28119" lon="6.19876">
        <ele>1410.8</ele>
        <time>2016-02-27T07:19:40Z</time>
      </trkpt>
      <trkpt lat="45.28111" lon="6.19862">
        <ele>1414.3</ele>
        <time>2016-02-27T07:20:02Z</time>
      </trkpt>
      <trkpt lat="45.28103" lon="6.19859">
        <ele>1415.3</ele>
        <time>2016-02-27T07:20:12Z</time>
      </trkpt>
      <trkpt lat="45.28098" lon="6.19848">
        <ele>1415.1</ele>
        <time>2016-02-27T07:20:22Z</time>
      </trkpt>
      <trkpt lat="45.28094" lon="6.19838">
        <ele>1414.7</ele>
        <time>2016-02-27T07:20:30Z</time>
      </trkpt>
      <trkpt lat="45.28091" lon="6.19826">
        <ele>1415.3</ele>
        <time>2016-02-27T07:20:38Z</time>
      </trkpt>
      <trkpt lat="45.28088" lon="6.19815">
        <ele>1415.6</ele>
        <time>2016-02-27T07:20:49Z</time>
      </trkpt>
      <trkpt lat="45.28088" lon="6.19814">
        <ele>1415.4</ele>
        <time>2016-02-27T07:20:50Z</time>
      </trkpt>
      <trkpt lat="45.28087" lon="6.19792">
        <ele>1415.2</ele>
        <time>2016-02-27T07:21:07Z</time>
      </trkpt>
      <trkpt lat="45.28088" lon="6.19781">
        <ele>1417.6</ele>
        <time>2016-02-27T07:21:17Z</time>
      </trkpt>
      <trkpt lat="45.28089" lon="6.19769">
        <ele>1418</ele>
        <time>2016-02-27T07:21:27Z</time>
      </trkpt>
      <trkpt lat="45.28088" lon="6.19757">
        <ele>1418.9</ele>
        <time>2016-02-27T07:21:37Z</time>
      </trkpt>
      <trkpt lat="45.28085" lon="6.19745">
        <ele>1417.8</ele>
        <time>2016-02-27T07:21:46Z</time>
      </trkpt>
      <trkpt lat="45.28081" lon="6.19734">
        <ele>1418.8</ele>
        <time>2016-02-27T07:21:55Z</time>
      </trkpt>
      <trkpt lat="45.28081" lon="6.19733">
        <ele>1419</ele>
        <time>2016-02-27T07:21:56Z</time>
      </trkpt>
      <trkpt lat="45.28072" lon="6.19714">
        <ele>1419.9</ele>
        <time>2016-02-27T07:22:13Z</time>
      </trkpt>
      <trkpt lat="45.28067" lon="6.19704">
        <ele>1421.7</ele>
        <time>2016-02-27T07:22:23Z</time>
      </trkpt>
      <trkpt lat="45.28063" lon="6.19694">
        <ele>1422.7</ele>
        <time>2016-02-27T07:22:32Z</time>
      </trkpt>
      <trkpt lat="45.28058" lon="6.19684">
        <ele>1423</ele>
        <time>2016-02-27T07:22:43Z</time>
      </trkpt>
      <trkpt lat="45.28053" lon="6.19674">
        <ele>1423</ele>
        <time>2016-02-27T07:22:51Z</time>
      </trkpt>
      <trkpt lat="45.28049" lon="6.19663">
        <ele>1423.1</ele>
        <time>2016-02-27T07:22:58Z</time>
      </trkpt>
      <trkpt lat="45.28048" lon="6.19662">
        <ele>1423.3</ele>
        <time>2016-02-27T07:22:59Z</time>
      </trkpt>
      <trkpt lat="45.28043" lon="6.19641">
        <ele>1425.1</ele>
        <time>2016-02-27T07:23:15Z</time>
      </trkpt>
      <trkpt lat="45.28039" lon="6.1963">
        <ele>1427.1</ele>
        <time>2016-02-27T07:23:25Z</time>
      </trkpt>
      <trkpt lat="45.28034" lon="6.19619">
        <ele>1427.9</ele>
        <time>2016-02-27T07:23:35Z</time>
      </trkpt>
      <trkpt lat="45.28028" lon="6.1961">
        <ele>1429.1</ele>
        <time>2016-02-27T07:23:44Z</time>
      </trkpt>
      <trkpt lat="45.28023" lon="6.196">
        <ele>1429.5</ele>
        <time>2016-02-27T07:23:53Z</time>
      </trkpt>
      <trkpt lat="45.28021" lon="6.19588">
        <ele>1432</ele>
        <time>2016-02-27T07:24:06Z</time>
      </trkpt>
      <trkpt lat="45.28021" lon="6.19587">
        <ele>1431.7</ele>
        <time>2016-02-27T07:24:07Z</time>
      </trkpt>
      <trkpt lat="45.28008" lon="6.19574">
        <ele>1433</ele>
        <time>2016-02-27T07:24:31Z</time>
      </trkpt>
      <trkpt lat="45.28002" lon="6.19566">
        <ele>1434.5</ele>
        <time>2016-02-27T07:24:40Z</time>
      </trkpt>
      <trkpt lat="45.27997" lon="6.19557">
        <ele>1434.8</ele>
        <time>2016-02-27T07:24:49Z</time>
      </trkpt>
      <trkpt lat="45.27993" lon="6.19546">
        <ele>1435.7</ele>
        <time>2016-02-27T07:24:59Z</time>
      </trkpt>
      <trkpt lat="45.27991" lon="6.19535">
        <ele>1436.8</ele>
        <time>2016-02-27T07:25:08Z</time>
      </trkpt>
      <trkpt lat="45.27991" lon="6.19534">
        <ele>1437.1</ele>
        <time>2016-02-27T07:25:09Z</time>
      </trkpt>
      <trkpt lat="45.27986" lon="6.19512">
        <ele>1438.1</ele>
        <time>2016-02-27T07:25:30Z</time>
      </trkpt>
      <trkpt lat="45.27984" lon="6.195">
        <ele>1439.6</ele>
        <time>2016-02-27T07:25:40Z</time>
      </trkpt>
      <trkpt lat="45.27979" lon="6.1949">
        <ele>1439.7</ele>
        <time>2016-02-27T07:26:45Z</time>
      </trkpt>
      <trkpt lat="45.27979" lon="6.1949">
        <ele>1439.7</ele>
        <time>2016-02-27T07:26:46Z</time>
      </trkpt>
      <trkpt lat="45.27979" lon="6.19477">
        <ele>1441.6</ele>
        <time>2016-02-27T07:28:37Z</time>
      </trkpt>
      <trkpt lat="45.27979" lon="6.19454">
        <ele>1445.1</ele>
        <time>2016-02-27T07:28:55Z</time>
      </trkpt>
      <trkpt lat="45.27979" lon="6.19441">
        <ele>1446.4</ele>
        <time>2016-02-27T07:29:05Z</time>
      </trkpt>
      <trkpt lat="45.27977" lon="6.1943">
        <ele>1447.5</ele>
        <time>2016-02-27T07:29:13Z</time>
      </trkpt>
      <trkpt lat="45.27973" lon="6.19419">
        <ele>1447.8</ele>
        <time>2016-02-27T07:29:21Z</time>
      </trkpt>
      <trkpt lat="45.27969" lon="6.19409">
        <ele>1449.1</ele>
        <time>2016-02-27T07:29:30Z</time>
      </trkpt>
      <trkpt lat="45.27965" lon="6.19399">
        <ele>1451.2</ele>
        <time>2016-02-27T07:29:38Z</time>
      </trkpt>
      <trkpt lat="45.27964" lon="6.19398">
        <ele>1451.2</ele>
        <time>2016-02-27T07:29:39Z</time>
      </trkpt>
      <trkpt lat="45.27955" lon="6.19379">
        <ele>1453.2</ele>
        <time>2016-02-27T07:29:56Z</time>
      </trkpt>
      <trkpt lat="45.27951" lon="6.19369">
        <ele>1454.6</ele>
        <time>2016-02-27T07:30:05Z</time>
      </trkpt>
      <trkpt lat="45.27948" lon="6.19358">
        <ele>1456.2</ele>
        <time>2016-02-27T07:30:14Z</time>
      </trkpt>
      <trkpt lat="45.27948" lon="6.19346">
        <ele>1458.1</ele>
        <time>2016-02-27T07:30:23Z</time>
      </trkpt>
      <trkpt lat="45.27948" lon="6.19334">
        <ele>1459.6</ele>
        <time>2016-02-27T07:30:33Z</time>
      </trkpt>
      <trkpt lat="45.27943" lon="6.19324">
        <ele>1460.3</ele>
        <time>2016-02-27T07:30:42Z</time>
      </trkpt>
      <trkpt lat="45.27942" lon="6.19323">
        <ele>1460.9</ele>
        <time>2016-02-27T07:30:43Z</time>
      </trkpt>
      <trkpt lat="45.27932" lon="6.19306">
        <ele>1463.3</ele>
        <time>2016-02-27T07:30:58Z</time>
      </trkpt>
      <trkpt lat="45.27925" lon="6.19298">
        <ele>1464.5</ele>
        <time>2016-02-27T07:31:07Z</time>
      </trkpt>
      <trkpt lat="45.27922" lon="6.19287">
        <ele>1466.1</ele>
        <time>2016-02-27T07:31:16Z</time>
      </trkpt>
      <trkpt lat="45.27917" lon="6.19276">
        <ele>1468.4</ele>
        <time>2016-02-27T07:31:26Z</time>
      </trkpt>
      <trkpt lat="45.27913" lon="6.19264">
        <ele>1469.8</ele>
        <time>2016-02-27T07:31:36Z</time>
      </trkpt>
      <trkpt lat="45.2791" lon="6.19253">
        <ele>1471.1</ele>
        <time>2016-02-27T07:31:45Z</time>
      </trkpt>
      <trkpt lat="45.2791" lon="6.19252">
        <ele>1471.3</ele>
        <time>2016-02-27T07:31:46Z</time>
      </trkpt>
      <trkpt lat="45.27904" lon="6.1923">
        <ele>1473</ele>
        <time>2016-02-27T07:32:05Z</time>
      </trkpt>
      <trkpt lat="45.27902" lon="6.19218">
        <ele>1475</ele>
        <time>2016-02-27T07:32:14Z</time>
      </trkpt>
      <trkpt lat="45.27897" lon="6.19208">
        <ele>1475.8</ele>
        <time>2016-02-27T07:32:23Z</time>
      </trkpt>
      <trkpt lat="45.27893" lon="6.19197">
        <ele>1477</ele>
        <time>2016-02-27T07:32:32Z</time>
      </trkpt>
      <trkpt lat="45.27889" lon="6.19187">
        <ele>1477.4</ele>
        <time>2016-02-27T07:32:43Z</time>
      </trkpt>
      <trkpt lat="45.27886" lon="6.19176">
        <ele>1474.9</ele>
        <time>2016-02-27T07:32:50Z</time>
      </trkpt>
      <trkpt lat="45.27886" lon="6.19175">
        <ele>1474.9</ele>
        <time>2016-02-27T07:32:51Z</time>
      </trkpt>
      <trkpt lat="45.27873" lon="6.19162">
        <ele>1475</ele>
        <time>2016-02-27T07:33:24Z</time>
      </trkpt>
      <trkpt lat="45.27868" lon="6.19151">
        <ele>1476.4</ele>
        <time>2016-02-27T07:33:35Z</time>
      </trkpt>
      <trkpt lat="45.27867" lon="6.19139">
        <ele>1478.2</ele>
        <time>2016-02-27T07:33:45Z</time>
      </trkpt>
      <trkpt lat="45.27867" lon="6.19128">
        <ele>1479.7</ele>
        <time>2016-02-27T07:33:54Z</time>
      </trkpt>
      <trkpt lat="45.27867" lon="6.19126">
        <ele>1479.9</ele>
        <time>2016-02-27T07:33:55Z</time>
      </trkpt>
      <trkpt lat="45.27862" lon="6.19104">
        <ele>1481.2</ele>
        <time>2016-02-27T07:34:10Z</time>
      </trkpt>
      <trkpt lat="45.2786" lon="6.19093">
        <ele>1482.1</ele>
        <time>2016-02-27T07:34:18Z</time>
      </trkpt>
      <trkpt lat="45.27856" lon="6.19082">
        <ele>1484</ele>
        <time>2016-02-27T07:34:26Z</time>
      </trkpt>
      <trkpt lat="45.27853" lon="6.19071">
        <ele>1485.7</ele>
        <time>2016-02-27T07:34:35Z</time>
      </trkpt>
      <trkpt lat="45.2785" lon="6.19059">
        <ele>1486.4</ele>
        <time>2016-02-27T07:34:45Z</time>
      </trkpt>
      <trkpt lat="45.27849" lon="6.19047">
        <ele>1486.7</ele>
        <time>2016-02-27T07:34:53Z</time>
      </trkpt>
      <trkpt lat="45.2785" lon="6.19035">
        <ele>1488.3</ele>
        <time>2016-02-27T07:35:01Z</time>
      </trkpt>
      <trkpt lat="45.2785" lon="6.19033">
        <ele>1488.5</ele>
        <time>2016-02-27T07:35:02Z</time>
      </trkpt>
      <trkpt lat="45.2785" lon="6.19011">
        <ele>1489.7</ele>
        <time>2016-02-27T07:35:19Z</time>
      </trkpt>
      <trkpt lat="45.27854" lon="6.19">
        <ele>1492.5</ele>
        <time>2016-02-27T07:35:30Z</time>
      </trkpt>
      <trkpt lat="45.27861" lon="6.18993">
        <ele>1495.6</ele>
        <time>2016-02-27T07:35:43Z</time>
      </trkpt>
      <trkpt lat="45.27866" lon="6.18984">
        <ele>1497.5</ele>
        <time>2016-02-27T07:35:56Z</time>
      </trkpt>
      <trkpt lat="45.27868" lon="6.18971">
        <ele>1501.7</ele>
        <time>2016-02-27T07:36:12Z</time>
      </trkpt>
      <trkpt lat="45.27868" lon="6.1897">
        <ele>1502</ele>
        <time>2016-02-27T07:36:13Z</time>
      </trkpt>
      <trkpt lat="45.27879" lon="6.18953">
        <ele>1506</ele>
        <time>2016-02-27T07:36:37Z</time>
      </trkpt>
      <trkpt lat="45.27885" lon="6.18944">
        <ele>1507.9</ele>
        <time>2016-02-27T07:36:49Z</time>
      </trkpt>
      <trkpt lat="45.27893" lon="6.18939">
        <ele>1510.8</ele>
        <time>2016-02-27T07:37:18Z</time>
      </trkpt>
      <trkpt lat="45.27894" lon="6.18939">
        <ele>1511</ele>
        <time>2016-02-27T07:37:19Z</time>
      </trkpt>
      <trkpt lat="45.27907" lon="6.18926">
        <ele>1515.3</ele>
        <time>2016-02-27T07:37:40Z</time>
      </trkpt>
      <trkpt lat="45.27915" lon="6.18923">
        <ele>1517.8</ele>
        <time>2016-02-27T07:37:49Z</time>
      </trkpt>
      <trkpt lat="45.27923" lon="6.18919">
        <ele>1519.7</ele>
        <time>2016-02-27T07:38:25Z</time>
      </trkpt>
      <trkpt lat="45.27924" lon="6.18918">
        <ele>1519.7</ele>
        <time>2016-02-27T07:38:26Z</time>
      </trkpt>
      <trkpt lat="45.27928" lon="6.18908">
        <ele>1521</ele>
        <time>2016-02-27T07:39:27Z</time>
      </trkpt>
      <trkpt lat="45.27922" lon="6.18889">
        <ele>1524.8</ele>
        <time>2016-02-27T07:40:34Z</time>
      </trkpt>
      <trkpt lat="45.27922" lon="6.18888">
        <ele>1524.8</ele>
        <time>2016-02-27T07:40:35Z</time>
      </trkpt>
      <trkpt lat="45.27926" lon="6.18866">
        <ele>1525.4</ele>
        <time>2016-02-27T07:40:50Z</time>
      </trkpt>
      <trkpt lat="45.27929" lon="6.18856">
        <ele>1526.1</ele>
        <time>2016-02-27T07:40:56Z</time>
      </trkpt>
      <trkpt lat="45.27932" lon="6.18844">
        <ele>1526.7</ele>
        <time>2016-02-27T07:41:03Z</time>
      </trkpt>
      <trkpt lat="45.27934" lon="6.18833">
        <ele>1527.1</ele>
        <time>2016-02-27T07:41:10Z</time>
      </trkpt>
      <trkpt lat="45.27937" lon="6.18821">
        <ele>1527.8</ele>
        <time>2016-02-27T07:41:18Z</time>
      </trkpt>
      <trkpt lat="45.27939" lon="6.1881">
        <ele>1528.5</ele>
        <time>2016-02-27T07:41:26Z</time>
      </trkpt>
      <trkpt lat="45.2794" lon="6.18799">
        <ele>1529.7</ele>
        <time>2016-02-27T07:41:34Z</time>
      </trkpt>
      <trkpt lat="45.27941" lon="6.18786">
        <ele>1530.6</ele>
        <time>2016-02-27T07:41:43Z</time>
      </trkpt>
      <trkpt lat="45.27941" lon="6.18785">
        <ele>1530.6</ele>
        <time>2016-02-27T07:41:44Z</time>
      </trkpt>
      <trkpt lat="45.27944" lon="6.18764">
        <ele>1531.6</ele>
        <time>2016-02-27T07:41:57Z</time>
      </trkpt>
      <trkpt lat="45.27943" lon="6.18753">
        <ele>1532.3</ele>
        <time>2016-02-27T07:42:05Z</time>
      </trkpt>
      <trkpt lat="45.27944" lon="6.18741">
        <ele>1532.7</ele>
        <time>2016-02-27T07:42:12Z</time>
      </trkpt>
      <trkpt lat="45.27943" lon="6.1873">
        <ele>1533</ele>
        <time>2016-02-27T07:42:20Z</time>
      </trkpt>
      <trkpt lat="45.27941" lon="6.18717">
        <ele>1534.6</ele>
        <time>2016-02-27T07:42:29Z</time>
      </trkpt>
      <trkpt lat="45.27938" lon="6.18706">
        <ele>1535</ele>
        <time>2016-02-27T07:42:37Z</time>
      </trkpt>
      <trkpt lat="45.27934" lon="6.18695">
        <ele>1534.6</ele>
        <time>2016-02-27T07:42:44Z</time>
      </trkpt>
      <trkpt lat="45.27934" lon="6.18693">
        <ele>1534.4</ele>
        <time>2016-02-27T07:42:45Z</time>
      </trkpt>
      <trkpt lat="45.27928" lon="6.18673">
        <ele>1534.5</ele>
        <time>2016-02-27T07:42:57Z</time>
      </trkpt>
      <trkpt lat="45.27927" lon="6.18662">
        <ele>1536.3</ele>
        <time>2016-02-27T07:43:05Z</time>
      </trkpt>
      <trkpt lat="45.27926" lon="6.18651">
        <ele>1537.3</ele>
        <time>2016-02-27T07:43:11Z</time>
      </trkpt>
      <trkpt lat="45.27925" lon="6.18638">
        <ele>1537.5</ele>
        <time>2016-02-27T07:43:18Z</time>
      </trkpt>
      <trkpt lat="45.27922" lon="6.18627">
        <ele>1536.4</ele>
        <time>2016-02-27T07:43:25Z</time>
      </trkpt>
      <trkpt lat="45.27919" lon="6.18616">
        <ele>1536.5</ele>
        <time>2016-02-27T07:43:32Z</time>
      </trkpt>
      <trkpt lat="45.27917" lon="6.18603">
        <ele>1535.9</ele>
        <time>2016-02-27T07:43:41Z</time>
      </trkpt>
      <trkpt lat="45.27917" lon="6.18591">
        <ele>1537</ele>
        <time>2016-02-27T07:43:49Z</time>
      </trkpt>
      <trkpt lat="45.27917" lon="6.1859">
        <ele>1537.3</ele>
        <time>2016-02-27T07:43:50Z</time>
      </trkpt>
      <trkpt lat="45.27919" lon="6.18567">
        <ele>1539.3</ele>
        <time>2016-02-27T07:44:08Z</time>
      </trkpt>
      <trkpt lat="45.27913" lon="6.18559">
        <ele>1539.2</ele>
        <time>2016-02-27T07:44:17Z</time>
      </trkpt>
      <trkpt lat="45.27906" lon="6.18552">
        <ele>1539.4</ele>
        <time>2016-02-27T07:44:29Z</time>
      </trkpt>
      <trkpt lat="45.27902" lon="6.18542">
        <ele>1540.3</ele>
        <time>2016-02-27T07:44:40Z</time>
      </trkpt>
      <trkpt lat="45.27901" lon="6.1853">
        <ele>1542.5</ele>
        <time>2016-02-27T07:44:51Z</time>
      </trkpt>
      <trkpt lat="45.27901" lon="6.18529">
        <ele>1542.7</ele>
        <time>2016-02-27T07:44:52Z</time>
      </trkpt>
      <trkpt lat="45.27901" lon="6.18505">
        <ele>1546.1</ele>
        <time>2016-02-27T07:45:12Z</time>
      </trkpt>
      <trkpt lat="45.27899" lon="6.18493">
        <ele>1547.9</ele>
        <time>2016-02-27T07:45:22Z</time>
      </trkpt>
      <trkpt lat="45.27897" lon="6.18481">
        <ele>1549.3</ele>
        <time>2016-02-27T07:45:32Z</time>
      </trkpt>
      <trkpt lat="45.27896" lon="6.1847">
        <ele>1551.4</ele>
        <time>2016-02-27T07:45:42Z</time>
      </trkpt>
      <trkpt lat="45.27904" lon="6.18467">
        <ele>1553.2</ele>
        <time>2016-02-27T07:45:54Z</time>
      </trkpt>
      <trkpt lat="45.27905" lon="6.18466">
        <ele>1553.5</ele>
        <time>2016-02-27T07:45:55Z</time>
      </trkpt>
      <trkpt lat="45.27921" lon="6.18461">
        <ele>1558.3</ele>
        <time>2016-02-27T07:46:16Z</time>
      </trkpt>
      <trkpt lat="45.27924" lon="6.1845">
        <ele>1560.2</ele>
        <time>2016-02-27T07:46:30Z</time>
      </trkpt>
      <trkpt lat="45.27918" lon="6.18441">
        <ele>1560.3</ele>
        <time>2016-02-27T07:46:41Z</time>
      </trkpt>
      <trkpt lat="45.27914" lon="6.18429">
        <ele>1564</ele>
        <time>2016-02-27T07:46:52Z</time>
      </trkpt>
      <trkpt lat="45.27913" lon="6.18417">
        <ele>1565</ele>
        <time>2016-02-27T07:47:04Z</time>
      </trkpt>
      <trkpt lat="45.27914" lon="6.18416">
        <ele>1565.4</ele>
        <time>2016-02-27T07:47:05Z</time>
      </trkpt>
      <trkpt lat="45.2792" lon="6.18394">
        <ele>1570.4</ele>
        <time>2016-02-27T07:47:30Z</time>
      </trkpt>
      <trkpt lat="45.27921" lon="6.18382">
        <ele>1572.4</ele>
        <time>2016-02-27T07:47:47Z</time>
      </trkpt>
      <trkpt lat="45.27924" lon="6.1837">
        <ele>1574.5</ele>
        <time>2016-02-27T07:48:01Z</time>
      </trkpt>
      <trkpt lat="45.27927" lon="6.18359">
        <ele>1577.3</ele>
        <time>2016-02-27T07:48:17Z</time>
      </trkpt>
      <trkpt lat="45.27927" lon="6.18358">
        <ele>1577.5</ele>
        <time>2016-02-27T07:48:18Z</time>
      </trkpt>
      <trkpt lat="45.27938" lon="6.1834">
        <ele>1581.3</ele>
        <time>2016-02-27T07:48:40Z</time>
      </trkpt>
      <trkpt lat="45.27943" lon="6.18331">
        <ele>1582.1</ele>
        <time>2016-02-27T07:48:49Z</time>
      </trkpt>
      <trkpt lat="45.27948" lon="6.18323">
        <ele>1584</ele>
        <time>2016-02-27T07:48:57Z</time>
      </trkpt>
      <trkpt lat="45.27954" lon="6.18313">
        <ele>1585.6</ele>
        <time>2016-02-27T07:49:05Z</time>
      </trkpt>
      <trkpt lat="45.27958" lon="6.18304">
        <ele>1587.5</ele>
        <time>2016-02-27T07:49:16Z</time>
      </trkpt>
      <trkpt lat="45.27963" lon="6.18293">
        <ele>1588.3</ele>
        <time>2016-02-27T07:49:26Z</time>
      </trkpt>
      <trkpt lat="45.27963" lon="6.18292">
        <ele>1588.3</ele>
        <time>2016-02-27T07:49:27Z</time>
      </trkpt>
      <trkpt lat="45.27973" lon="6.18274">
        <ele>1589.3</ele>
        <time>2016-02-27T07:49:41Z</time>
      </trkpt>
      <trkpt lat="45.27978" lon="6.18264">
        <ele>1589.8</ele>
        <time>2016-02-27T07:49:48Z</time>
      </trkpt>
      <trkpt lat="45.27983" lon="6.18255">
        <ele>1591.3</ele>
        <time>2016-02-27T07:49:58Z</time>
      </trkpt>
      <trkpt lat="45.27991" lon="6.18251">
        <ele>1592.4</ele>
        <time>2016-02-27T07:50:08Z</time>
      </trkpt>
      <trkpt lat="45.27995" lon="6.1824">
        <ele>1595.5</ele>
        <time>2016-02-27T07:50:20Z</time>
      </trkpt>
      <trkpt lat="45.27999" lon="6.18229">
        <ele>1596.9</ele>
        <time>2016-02-27T07:50:31Z</time>
      </trkpt>
      <trkpt lat="45.27999" lon="6.18228">
        <ele>1597.2</ele>
        <time>2016-02-27T07:50:32Z</time>
      </trkpt>
      <trkpt lat="45.28011" lon="6.18213">
        <ele>1603.9</ele>
        <time>2016-02-27T07:51:17Z</time>
      </trkpt>
      <trkpt lat="45.28013" lon="6.182">
        <ele>1605.2</ele>
        <time>2016-02-27T07:51:28Z</time>
      </trkpt>
      <trkpt lat="45.28011" lon="6.18188">
        <ele>1607.4</ele>
        <time>2016-02-27T07:51:41Z</time>
      </trkpt>
      <trkpt lat="45.28011" lon="6.18187">
        <ele>1607.6</ele>
        <time>2016-02-27T07:51:42Z</time>
      </trkpt>
      <trkpt lat="45.28008" lon="6.18163">
        <ele>1611.2</ele>
        <time>2016-02-27T07:52:01Z</time>
      </trkpt>
      <trkpt lat="45.28008" lon="6.18151">
        <ele>1613.5</ele>
        <time>2016-02-27T07:52:11Z</time>
      </trkpt>
      <trkpt lat="45.2801" lon="6.18138">
        <ele>1614.9</ele>
        <time>2016-02-27T07:52:21Z</time>
      </trkpt>
      <trkpt lat="45.28011" lon="6.18127">
        <ele>1615.4</ele>
        <time>2016-02-27T07:52:30Z</time>
      </trkpt>
      <trkpt lat="45.28014" lon="6.18115">
        <ele>1616.9</ele>
        <time>2016-02-27T07:52:39Z</time>
      </trkpt>
      <trkpt lat="45.28015" lon="6.18104">
        <ele>1617.4</ele>
        <time>2016-02-27T07:52:48Z</time>
      </trkpt>
      <trkpt lat="45.28015" lon="6.18103">
        <ele>1617.3</ele>
        <time>2016-02-27T07:52:49Z</time>
      </trkpt>
      <trkpt lat="45.28017" lon="6.18079">
        <ele>1620.3</ele>
        <time>2016-02-27T07:53:07Z</time>
      </trkpt>
      <trkpt lat="45.28016" lon="6.18067">
        <ele>1621.4</ele>
        <time>2016-02-27T07:53:17Z</time>
      </trkpt>
      <trkpt lat="45.28015" lon="6.18054">
        <ele>1623.6</ele>
        <time>2016-02-27T07:53:27Z</time>
      </trkpt>
      <trkpt lat="45.28012" lon="6.18042">
        <ele>1624.4</ele>
        <time>2016-02-27T07:53:37Z</time>
      </trkpt>
      <trkpt lat="45.28011" lon="6.1803">
        <ele>1625.7</ele>
        <time>2016-02-27T07:53:47Z</time>
      </trkpt>
      <trkpt lat="45.28011" lon="6.18017">
        <ele>1626.9</ele>
        <time>2016-02-27T07:53:57Z</time>
      </trkpt>
      <trkpt lat="45.28012" lon="6.18016">
        <ele>1627.4</ele>
        <time>2016-02-27T07:53:58Z</time>
      </trkpt>
      <trkpt lat="45.28009" lon="6.17993">
        <ele>1631.1</ele>
        <time>2016-02-27T07:54:19Z</time>
      </trkpt>
      <trkpt lat="45.28009" lon="6.17981">
        <ele>1632.2</ele>
        <time>2016-02-27T07:54:28Z</time>
      </trkpt>
      <trkpt lat="45.28008" lon="6.17969">
        <ele>1633.3</ele>
        <time>2016-02-27T07:54:36Z</time>
      </trkpt>
      <trkpt lat="45.28008" lon="6.17957">
        <ele>1633.6</ele>
        <time>2016-02-27T07:54:43Z</time>
      </trkpt>
      <trkpt lat="45.28005" lon="6.17946">
        <ele>1633.5</ele>
        <time>2016-02-27T07:54:50Z</time>
      </trkpt>
      <trkpt lat="45.28004" lon="6.17933">
        <ele>1633.4</ele>
        <time>2016-02-27T07:54:59Z</time>
      </trkpt>
      <trkpt lat="45.28004" lon="6.17932">
        <ele>1633.6</ele>
        <time>2016-02-27T07:55:00Z</time>
      </trkpt>
      <trkpt lat="45.28002" lon="6.17908">
        <ele>1633.9</ele>
        <time>2016-02-27T07:55:17Z</time>
      </trkpt>
      <trkpt lat="45.28003" lon="6.17897">
        <ele>1635.7</ele>
        <time>2016-02-27T07:55:27Z</time>
      </trkpt>
      <trkpt lat="45.28004" lon="6.17885">
        <ele>1636.3</ele>
        <time>2016-02-27T07:55:35Z</time>
      </trkpt>
      <trkpt lat="45.28005" lon="6.17874">
        <ele>1638.1</ele>
        <time>2016-02-27T07:55:44Z</time>
      </trkpt>
      <trkpt lat="45.28004" lon="6.17861">
        <ele>1638.7</ele>
        <time>2016-02-27T07:55:53Z</time>
      </trkpt>
      <trkpt lat="45.28005" lon="6.17849">
        <ele>1640</ele>
        <time>2016-02-27T07:56:02Z</time>
      </trkpt>
      <trkpt lat="45.28005" lon="6.17848">
        <ele>1640.1</ele>
        <time>2016-02-27T07:56:03Z</time>
      </trkpt>
      <trkpt lat="45.28007" lon="6.17826">
        <ele>1641.7</ele>
        <time>2016-02-27T07:56:20Z</time>
      </trkpt>
      <trkpt lat="45.2801" lon="6.17814">
        <ele>1642.6</ele>
        <time>2016-02-27T07:56:28Z</time>
      </trkpt>
      <trkpt lat="45.28011" lon="6.17802">
        <ele>1644.5</ele>
        <time>2016-02-27T07:56:38Z</time>
      </trkpt>
      <trkpt lat="45.28011" lon="6.17789">
        <ele>1644.7</ele>
        <time>2016-02-27T07:56:48Z</time>
      </trkpt>
      <trkpt lat="45.2801" lon="6.17777">
        <ele>1646.8</ele>
        <time>2016-02-27T07:56:57Z</time>
      </trkpt>
      <trkpt lat="45.28011" lon="6.17766">
        <ele>1648.3</ele>
        <time>2016-02-27T07:57:06Z</time>
      </trkpt>
      <trkpt lat="45.28011" lon="6.17764">
        <ele>1648.6</ele>
        <time>2016-02-27T07:57:07Z</time>
      </trkpt>
      <trkpt lat="45.28012" lon="6.17742">
        <ele>1650.4</ele>
        <time>2016-02-27T07:57:24Z</time>
      </trkpt>
      <trkpt lat="45.28014" lon="6.1773">
        <ele>1651.5</ele>
        <time>2016-02-27T07:57:33Z</time>
      </trkpt>
      <trkpt lat="45.28013" lon="6.17718">
        <ele>1653.8</ele>
        <time>2016-02-27T07:57:44Z</time>
      </trkpt>
      <trkpt lat="45.28012" lon="6.17706">
        <ele>1655.5</ele>
        <time>2016-02-27T07:57:54Z</time>
      </trkpt>
      <trkpt lat="45.28014" lon="6.17693">
        <ele>1656.8</ele>
        <time>2016-02-27T07:58:04Z</time>
      </trkpt>
      <trkpt lat="45.28016" lon="6.17681">
        <ele>1658.2</ele>
        <time>2016-02-27T07:58:13Z</time>
      </trkpt>
      <trkpt lat="45.28015" lon="6.1768">
        <ele>1658.4</ele>
        <time>2016-02-27T07:58:14Z</time>
      </trkpt>
      <trkpt lat="45.28018" lon="6.17657">
        <ele>1661.6</ele>
        <time>2016-02-27T07:58:35Z</time>
      </trkpt>
      <trkpt lat="45.28019" lon="6.17645">
        <ele>1663.7</ele>
        <time>2016-02-27T07:58:46Z</time>
      </trkpt>
      <trkpt lat="45.28023" lon="6.17634">
        <ele>1666.8</ele>
        <time>2016-02-27T07:59:02Z</time>
      </trkpt>
      <trkpt lat="45.28025" lon="6.17623">
        <ele>1667.8</ele>
        <time>2016-02-27T07:59:10Z</time>
      </trkpt>
      <trkpt lat="45.28024" lon="6.17611">
        <ele>1667.5</ele>
        <time>2016-02-27T07:59:19Z</time>
      </trkpt>
      <trkpt lat="45.28024" lon="6.1761">
        <ele>1667.6</ele>
        <time>2016-02-27T07:59:20Z</time>
      </trkpt>
      <trkpt lat="45.28028" lon="6.17587">
        <ele>1670.5</ele>
        <time>2016-02-27T07:59:39Z</time>
      </trkpt>
      <trkpt lat="45.2803" lon="6.17575">
        <ele>1672.1</ele>
        <time>2016-02-27T07:59:48Z</time>
      </trkpt>
      <trkpt lat="45.28031" lon="6.17564">
        <ele>1672.8</ele>
        <time>2016-02-27T07:59:56Z</time>
      </trkpt>
      <trkpt lat="45.28033" lon="6.17552">
        <ele>1673.7</ele>
        <time>2016-02-27T08:00:04Z</time>
      </trkpt>
      <trkpt lat="45.28037" lon="6.17541">
        <ele>1674.4</ele>
        <time>2016-02-27T08:00:13Z</time>
      </trkpt>
      <trkpt lat="45.28038" lon="6.17529">
        <ele>1675.9</ele>
        <time>2016-02-27T08:00:23Z</time>
      </trkpt>
      <trkpt lat="45.28038" lon="6.17527">
        <ele>1676.1</ele>
        <time>2016-02-27T08:00:24Z</time>
      </trkpt>
      <trkpt lat="45.28043" lon="6.17505">
        <ele>1678.2</ele>
        <time>2016-02-27T08:00:41Z</time>
      </trkpt>
      <trkpt lat="45.28042" lon="6.17493">
        <ele>1679.3</ele>
        <time>2016-02-27T08:00:49Z</time>
      </trkpt>
      <trkpt lat="45.2804" lon="6.17482">
        <ele>1680</ele>
        <time>2016-02-27T08:00:58Z</time>
      </trkpt>
      <trkpt lat="45.28039" lon="6.1747">
        <ele>1681.7</ele>
        <time>2016-02-27T08:01:07Z</time>
      </trkpt>
      <trkpt lat="45.28038" lon="6.17459">
        <ele>1682.1</ele>
        <time>2016-02-27T08:01:15Z</time>
      </trkpt>
      <trkpt lat="45.28038" lon="6.17447">
        <ele>1683</ele>
        <time>2016-02-27T08:01:24Z</time>
      </trkpt>
      <trkpt lat="45.28038" lon="6.17446">
        <ele>1683.1</ele>
        <time>2016-02-27T08:01:25Z</time>
      </trkpt>
      <trkpt lat="45.28038" lon="6.17423">
        <ele>1684.3</ele>
        <time>2016-02-27T08:01:41Z</time>
      </trkpt>
      <trkpt lat="45.28038" lon="6.17411">
        <ele>1685.3</ele>
        <time>2016-02-27T08:01:50Z</time>
      </trkpt>
      <trkpt lat="45.28037" lon="6.17398">
        <ele>1686.7</ele>
        <time>2016-02-27T08:02:01Z</time>
      </trkpt>
      <trkpt lat="45.28034" lon="6.17387">
        <ele>1688.9</ele>
        <time>2016-02-27T08:02:11Z</time>
      </trkpt>
      <trkpt lat="45.2803" lon="6.17371">
        <ele>1691</ele>
        <time>2016-02-27T08:02:25Z</time>
      </trkpt>
      <trkpt lat="45.28029" lon="6.1737">
        <ele>1692.5</ele>
        <time>2016-02-27T08:02:27Z</time>
      </trkpt>
      <trkpt lat="45.28023" lon="6.17341">
        <ele>1697</ele>
        <time>2016-02-27T08:02:53Z</time>
      </trkpt>
      <trkpt lat="45.2802" lon="6.17326">
        <ele>1698</ele>
        <time>2016-02-27T08:03:05Z</time>
      </trkpt>
      <trkpt lat="45.2802" lon="6.17312">
        <ele>1700</ele>
        <time>2016-02-27T08:03:17Z</time>
      </trkpt>
      <trkpt lat="45.28022" lon="6.173">
        <ele>1701.7</ele>
        <time>2016-02-27T08:03:29Z</time>
      </trkpt>
      <trkpt lat="45.28022" lon="6.17299">
        <ele>1702.1</ele>
        <time>2016-02-27T08:03:30Z</time>
      </trkpt>
      <trkpt lat="45.28021" lon="6.17276">
        <ele>1707</ele>
        <time>2016-02-27T08:03:51Z</time>
      </trkpt>
      <trkpt lat="45.2802" lon="6.17264">
        <ele>1707.9</ele>
        <time>2016-02-27T08:04:00Z</time>
      </trkpt>
      <trkpt lat="45.28022" lon="6.17252">
        <ele>1709.1</ele>
        <time>2016-02-27T08:04:10Z</time>
      </trkpt>
      <trkpt lat="45.28023" lon="6.1724">
        <ele>1711.6</ele>
        <time>2016-02-27T08:04:21Z</time>
      </trkpt>
      <trkpt lat="45.28025" lon="6.17229">
        <ele>1712.9</ele>
        <time>2016-02-27T08:04:31Z</time>
      </trkpt>
      <trkpt lat="45.28025" lon="6.17227">
        <ele>1713.1</ele>
        <time>2016-02-27T08:04:32Z</time>
      </trkpt>
      <trkpt lat="45.28027" lon="6.17206">
        <ele>1714.7</ele>
        <time>2016-02-27T08:04:48Z</time>
      </trkpt>
      <trkpt lat="45.28028" lon="6.17194">
        <ele>1715.8</ele>
        <time>2016-02-27T08:04:57Z</time>
      </trkpt>
      <trkpt lat="45.28029" lon="6.17182">
        <ele>1716.9</ele>
        <time>2016-02-27T08:05:07Z</time>
      </trkpt>
      <trkpt lat="45.28029" lon="6.1717">
        <ele>1718.8</ele>
        <time>2016-02-27T08:05:16Z</time>
      </trkpt>
      <trkpt lat="45.2803" lon="6.17159">
        <ele>1718.7</ele>
        <time>2016-02-27T08:05:24Z</time>
      </trkpt>
      <trkpt lat="45.28031" lon="6.17147">
        <ele>1720.4</ele>
        <time>2016-02-27T08:05:32Z</time>
      </trkpt>
      <trkpt lat="45.28031" lon="6.17145">
        <ele>1720.4</ele>
        <time>2016-02-27T08:05:33Z</time>
      </trkpt>
      <trkpt lat="45.28033" lon="6.17122">
        <ele>1721.2</ele>
        <time>2016-02-27T08:05:47Z</time>
      </trkpt>
      <trkpt lat="45.28033" lon="6.17111">
        <ele>1721.8</ele>
        <time>2016-02-27T08:05:54Z</time>
      </trkpt>
      <trkpt lat="45.28033" lon="6.171">
        <ele>1722.9</ele>
        <time>2016-02-27T08:06:01Z</time>
      </trkpt>
      <trkpt lat="45.28032" lon="6.17088">
        <ele>1723</ele>
        <time>2016-02-27T08:06:08Z</time>
      </trkpt>
      <trkpt lat="45.28032" lon="6.17076">
        <ele>1724.2</ele>
        <time>2016-02-27T08:06:16Z</time>
      </trkpt>
      <trkpt lat="45.28033" lon="6.17064">
        <ele>1724.2</ele>
        <time>2016-02-27T08:06:24Z</time>
      </trkpt>
      <trkpt lat="45.28034" lon="6.17052">
        <ele>1725.3</ele>
        <time>2016-02-27T08:06:32Z</time>
      </trkpt>
      <trkpt lat="45.28032" lon="6.1704">
        <ele>1726</ele>
        <time>2016-02-27T08:06:41Z</time>
      </trkpt>
      <trkpt lat="45.28032" lon="6.17038">
        <ele>1726.1</ele>
        <time>2016-02-27T08:06:42Z</time>
      </trkpt>
      <trkpt lat="45.28033" lon="6.17017">
        <ele>1728.8</ele>
        <time>2016-02-27T08:06:58Z</time>
      </trkpt>
      <trkpt lat="45.28033" lon="6.17005">
        <ele>1729.6</ele>
        <time>2016-02-27T08:07:06Z</time>
      </trkpt>
      <trkpt lat="45.28032" lon="6.16992">
        <ele>1731.3</ele>
        <time>2016-02-27T08:07:16Z</time>
      </trkpt>
      <trkpt lat="45.28032" lon="6.1698">
        <ele>1732.1</ele>
        <time>2016-02-27T08:07:25Z</time>
      </trkpt>
      <trkpt lat="45.28033" lon="6.16968">
        <ele>1733</ele>
        <time>2016-02-27T08:07:34Z</time>
      </trkpt>
      <trkpt lat="45.28033" lon="6.16955">
        <ele>1734.2</ele>
        <time>2016-02-27T08:07:43Z</time>
      </trkpt>
      <trkpt lat="45.28034" lon="6.16954">
        <ele>1734.4</ele>
        <time>2016-02-27T08:07:44Z</time>
      </trkpt>
      <trkpt lat="45.28028" lon="6.16932">
        <ele>1735.8</ele>
        <time>2016-02-27T08:08:01Z</time>
      </trkpt>
      <trkpt lat="45.28026" lon="6.16921">
        <ele>1737.3</ele>
        <time>2016-02-27T08:08:09Z</time>
      </trkpt>
      <trkpt lat="45.28027" lon="6.1691">
        <ele>1737.8</ele>
        <time>2016-02-27T08:08:16Z</time>
      </trkpt>
      <trkpt lat="45.28028" lon="6.16897">
        <ele>1737.9</ele>
        <time>2016-02-27T08:08:23Z</time>
      </trkpt>
      <trkpt lat="45.28028" lon="6.16886">
        <ele>1739.3</ele>
        <time>2016-02-27T08:08:31Z</time>
      </trkpt>
      <trkpt lat="45.28025" lon="6.16875">
        <ele>1739.4</ele>
        <time>2016-02-27T08:08:39Z</time>
      </trkpt>
      <trkpt lat="45.28026" lon="6.16863">
        <ele>1740.8</ele>
        <time>2016-02-27T08:08:46Z</time>
      </trkpt>
      <trkpt lat="45.28026" lon="6.16862">
        <ele>1740.6</ele>
        <time>2016-02-27T08:08:47Z</time>
      </trkpt>
      <trkpt lat="45.28029" lon="6.16841">
        <ele>1742.4</ele>
        <time>2016-02-27T08:09:02Z</time>
      </trkpt>
      <trkpt lat="45.28031" lon="6.16829">
        <ele>1742.8</ele>
        <time>2016-02-27T08:09:10Z</time>
      </trkpt>
      <trkpt lat="45.28032" lon="6.16817">
        <ele>1743.3</ele>
        <time>2016-02-27T08:09:18Z</time>
      </trkpt>
      <trkpt lat="45.28034" lon="6.16802">
        <ele>1744</ele>
        <time>2016-02-27T08:09:28Z</time>
      </trkpt>
      <trkpt lat="45.28036" lon="6.1679">
        <ele>1746.1</ele>
        <time>2016-02-27T08:09:38Z</time>
      </trkpt>
      <trkpt lat="45.28038" lon="6.16777">
        <ele>1745</ele>
        <time>2016-02-27T08:09:46Z</time>
      </trkpt>
      <trkpt lat="45.28038" lon="6.16774">
        <ele>1745.4</ele>
        <time>2016-02-27T08:09:48Z</time>
      </trkpt>
      <trkpt lat="45.28033" lon="6.16753">
        <ele>1747.7</ele>
        <time>2016-02-27T08:10:05Z</time>
      </trkpt>
      <trkpt lat="45.28033" lon="6.16741">
        <ele>1749.5</ele>
        <time>2016-02-27T08:10:20Z</time>
      </trkpt>
      <trkpt lat="45.28034" lon="6.16729">
        <ele>1752.1</ele>
        <time>2016-02-27T08:10:34Z</time>
      </trkpt>
      <trkpt lat="45.28036" lon="6.16717">
        <ele>1753.7</ele>
        <time>2016-02-27T08:10:46Z</time>
      </trkpt>
      <trkpt lat="45.28035" lon="6.16705">
        <ele>1755.3</ele>
        <time>2016-02-27T08:10:57Z</time>
      </trkpt>
      <trkpt lat="45.28034" lon="6.16704">
        <ele>1755.4</ele>
        <time>2016-02-27T08:10:58Z</time>
      </trkpt>
      <trkpt lat="45.28026" lon="6.16685">
        <ele>1758.3</ele>
        <time>2016-02-27T08:11:15Z</time>
      </trkpt>
      <trkpt lat="45.28025" lon="6.16672">
        <ele>1760.3</ele>
        <time>2016-02-27T08:11:25Z</time>
      </trkpt>
      <trkpt lat="45.28024" lon="6.1666">
        <ele>1761.1</ele>
        <time>2016-02-27T08:11:34Z</time>
      </trkpt>
      <trkpt lat="45.28024" lon="6.16648">
        <ele>1762.6</ele>
        <time>2016-02-27T08:11:47Z</time>
      </trkpt>
      <trkpt lat="45.28024" lon="6.16636">
        <ele>1765.7</ele>
        <time>2016-02-27T08:11:59Z</time>
      </trkpt>
      <trkpt lat="45.28024" lon="6.16635">
        <ele>1765.7</ele>
        <time>2016-02-27T08:12:00Z</time>
      </trkpt>
      <trkpt lat="45.28032" lon="6.16615">
        <ele>1772</ele>
        <time>2016-02-27T08:12:46Z</time>
      </trkpt>
      <trkpt lat="45.28034" lon="6.16603">
        <ele>1773</ele>
        <time>2016-02-27T08:12:56Z</time>
      </trkpt>
      <trkpt lat="45.28035" lon="6.16591">
        <ele>1774.7</ele>
        <time>2016-02-27T08:13:07Z</time>
      </trkpt>
      <trkpt lat="45.28036" lon="6.1659">
        <ele>1774.7</ele>
        <time>2016-02-27T08:13:08Z</time>
      </trkpt>
      <trkpt lat="45.28038" lon="6.16567">
        <ele>1778.7</ele>
        <time>2016-02-27T08:13:29Z</time>
      </trkpt>
      <trkpt lat="45.28039" lon="6.16554">
        <ele>1780.5</ele>
        <time>2016-02-27T08:13:42Z</time>
      </trkpt>
      <trkpt lat="45.28042" lon="6.16542">
        <ele>1782</ele>
        <time>2016-02-27T08:13:54Z</time>
      </trkpt>
      <trkpt lat="45.28043" lon="6.16528">
        <ele>1784</ele>
        <time>2016-02-27T08:14:10Z</time>
      </trkpt>
      <trkpt lat="45.28043" lon="6.16528">
        <ele>1785.2</ele>
        <time>2016-02-27T08:14:12Z</time>
      </trkpt>
      <trkpt lat="45.28045" lon="6.16499">
        <ele>1792</ele>
        <time>2016-02-27T08:14:56Z</time>
      </trkpt>
      <trkpt lat="45.28041" lon="6.16483">
        <ele>1796</ele>
        <time>2016-02-27T08:15:13Z</time>
      </trkpt>
      <trkpt lat="45.28041" lon="6.1648">
        <ele>1796.2</ele>
        <time>2016-02-27T08:15:17Z</time>
      </trkpt>
      <trkpt lat="45.28061" lon="6.16481">
        <ele>1800</ele>
        <time>2016-02-27T08:15:43Z</time>
      </trkpt>
      <trkpt lat="45.28071" lon="6.16473">
        <ele>1803</ele>
        <time>2016-02-27T08:15:59Z</time>
      </trkpt>
      <trkpt lat="45.28074" lon="6.1646">
        <ele>1805</ele>
        <time>2016-02-27T08:16:11Z</time>
      </trkpt>
      <trkpt lat="45.28077" lon="6.16446">
        <ele>1808</ele>
        <time>2016-02-27T08:16:23Z</time>
      </trkpt>
      <trkpt lat="45.28078" lon="6.16444">
        <ele>1808.4</ele>
        <time>2016-02-27T08:16:25Z</time>
      </trkpt>
      <trkpt lat="45.28087" lon="6.16418">
        <ele>1813</ele>
        <time>2016-02-27T08:16:55Z</time>
      </trkpt>
      <trkpt lat="45.28091" lon="6.16405">
        <ele>1815</ele>
        <time>2016-02-27T08:17:07Z</time>
      </trkpt>
      <trkpt lat="45.28094" lon="6.16392">
        <ele>1817</ele>
        <time>2016-02-27T08:17:19Z</time>
      </trkpt>
      <trkpt lat="45.28098" lon="6.16378">
        <ele>1818</ele>
        <time>2016-02-27T08:17:31Z</time>
      </trkpt>
      <trkpt lat="45.28099" lon="6.16377">
        <ele>1818.1</ele>
        <time>2016-02-27T08:17:33Z</time>
      </trkpt>
      <trkpt lat="45.28099" lon="6.16376">
        <ele>1818</ele>
        <time>2016-02-27T08:18:47Z</time>
      </trkpt>
      <trkpt lat="45.28098" lon="6.16375">
        <ele>1818.8</ele>
        <time>2016-02-27T08:18:49Z</time>
      </trkpt>
      <trkpt lat="45.28101" lon="6.1636">
        <ele>1819</ele>
        <time>2016-02-27T08:19:59Z</time>
      </trkpt>
      <trkpt lat="45.28102" lon="6.16359">
        <ele>1820.1</ele>
        <time>2016-02-27T08:20:01Z</time>
      </trkpt>
      <trkpt lat="45.28098" lon="6.16357">
        <ele>1819</ele>
        <time>2016-02-27T08:22:00Z</time>
      </trkpt>
      <trkpt lat="45.28099" lon="6.16357">
        <ele>1819.5</ele>
        <time>2016-02-27T08:22:02Z</time>
      </trkpt>
      <trkpt lat="45.28111" lon="6.1635">
        <ele>1820.4</ele>
        <time>2016-02-27T08:23:22Z</time>
      </trkpt>
      <trkpt lat="45.28126" lon="6.16334">
        <ele>1824</ele>
        <time>2016-02-27T08:23:44Z</time>
      </trkpt>
      <trkpt lat="45.28136" lon="6.16326">
        <ele>1826</ele>
        <time>2016-02-27T08:24:00Z</time>
      </trkpt>
      <trkpt lat="45.28146" lon="6.16322">
        <ele>1828</ele>
        <time>2016-02-27T08:24:16Z</time>
      </trkpt>
      <trkpt lat="45.28147" lon="6.16307">
        <ele>1831</ele>
        <time>2016-02-27T08:24:32Z</time>
      </trkpt>
      <trkpt lat="45.28145" lon="6.16305">
        <ele>1831.9</ele>
        <time>2016-02-27T08:24:34Z</time>
      </trkpt>
      <trkpt lat="45.28136" lon="6.16279">
        <ele>1836</ele>
        <time>2016-02-27T08:25:00Z</time>
      </trkpt>
      <trkpt lat="45.28147" lon="6.16275">
        <ele>1841</ele>
        <time>2016-02-27T08:25:28Z</time>
      </trkpt>
      <trkpt lat="45.28159" lon="6.16275">
        <ele>1845</ele>
        <time>2016-02-27T08:25:44Z</time>
      </trkpt>
      <trkpt lat="45.2816" lon="6.16275">
        <ele>1845.1</ele>
        <time>2016-02-27T08:25:46Z</time>
      </trkpt>
      <trkpt lat="45.28159" lon="6.1625">
        <ele>1850</ele>
        <time>2016-02-27T08:26:24Z</time>
      </trkpt>
      <trkpt lat="45.28159" lon="6.16234">
        <ele>1853</ele>
        <time>2016-02-27T08:26:40Z</time>
      </trkpt>
      <trkpt lat="45.28158" lon="6.16217">
        <ele>1855</ele>
        <time>2016-02-27T08:26:56Z</time>
      </trkpt>
      <trkpt lat="45.28158" lon="6.16216">
        <ele>1856.6</ele>
        <time>2016-02-27T08:26:58Z</time>
      </trkpt>
      <trkpt lat="45.28161" lon="6.16187">
        <ele>1860</ele>
        <time>2016-02-27T08:27:28Z</time>
      </trkpt>
      <trkpt lat="45.28163" lon="6.16172">
        <ele>1863</ele>
        <time>2016-02-27T08:27:44Z</time>
      </trkpt>
      <trkpt lat="45.2817" lon="6.16166">
        <ele>1865.7</ele>
        <time>2016-02-27T08:27:57Z</time>
      </trkpt>
      <trkpt lat="45.28178" lon="6.16172">
        <ele>1868.6</ele>
        <time>2016-02-27T08:28:08Z</time>
      </trkpt>
      <trkpt lat="45.28179" lon="6.16173">
        <ele>1868.9</ele>
        <time>2016-02-27T08:28:09Z</time>
      </trkpt>
      <trkpt lat="45.2819" lon="6.1619">
        <ele>1871.7</ele>
        <time>2016-02-27T08:28:31Z</time>
      </trkpt>
      <trkpt lat="45.28198" lon="6.16194">
        <ele>1873.4</ele>
        <time>2016-02-27T08:28:42Z</time>
      </trkpt>
      <trkpt lat="45.28207" lon="6.16194">
        <ele>1874.7</ele>
        <time>2016-02-27T08:28:53Z</time>
      </trkpt>
      <trkpt lat="45.28215" lon="6.16193">
        <ele>1877.2</ele>
        <time>2016-02-27T08:29:04Z</time>
      </trkpt>
      <trkpt lat="45.28224" lon="6.16191">
        <ele>1878.8</ele>
        <time>2016-02-27T08:29:15Z</time>
      </trkpt>
      <trkpt lat="45.28225" lon="6.16191">
        <ele>1878.6</ele>
        <time>2016-02-27T08:29:16Z</time>
      </trkpt>
      <trkpt lat="45.28241" lon="6.16195">
        <ele>1883.3</ele>
        <time>2016-02-27T08:29:40Z</time>
      </trkpt>
      <trkpt lat="45.28249" lon="6.16197">
        <ele>1884.5</ele>
        <time>2016-02-27T08:29:54Z</time>
      </trkpt>
      <trkpt lat="45.28258" lon="6.16199">
        <ele>1887.3</ele>
        <time>2016-02-27T08:30:08Z</time>
      </trkpt>
      <trkpt lat="45.28264" lon="6.16191">
        <ele>1890.2</ele>
        <time>2016-02-27T08:30:24Z</time>
      </trkpt>
      <trkpt lat="45.28264" lon="6.1619">
        <ele>1890.5</ele>
        <time>2016-02-27T08:30:25Z</time>
      </trkpt>
      <trkpt lat="45.28269" lon="6.16167">
        <ele>1894.7</ele>
        <time>2016-02-27T08:30:49Z</time>
      </trkpt>
      <trkpt lat="45.28272" lon="6.16157">
        <ele>1897.4</ele>
        <time>2016-02-27T08:31:01Z</time>
      </trkpt>
      <trkpt lat="45.28275" lon="6.16145">
        <ele>1898.5</ele>
        <time>2016-02-27T08:31:14Z</time>
      </trkpt>
      <trkpt lat="45.28278" lon="6.16133">
        <ele>1900.5</ele>
        <time>2016-02-27T08:31:27Z</time>
      </trkpt>
      <trkpt lat="45.28278" lon="6.16132">
        <ele>1900.9</ele>
        <time>2016-02-27T08:31:28Z</time>
      </trkpt>
      <trkpt lat="45.28285" lon="6.1611">
        <ele>1905.1</ele>
        <time>2016-02-27T08:31:51Z</time>
      </trkpt>
      <trkpt lat="45.28288" lon="6.16099">
        <ele>1906.7</ele>
        <time>2016-02-27T08:32:03Z</time>
      </trkpt>
      <trkpt lat="45.2829" lon="6.16087">
        <ele>1908.9</ele>
        <time>2016-02-27T08:32:16Z</time>
      </trkpt>
      <trkpt lat="45.28293" lon="6.16075">
        <ele>1911.3</ele>
        <time>2016-02-27T08:32:28Z</time>
      </trkpt>
      <trkpt lat="45.28293" lon="6.16075">
        <ele>1911.5</ele>
        <time>2016-02-27T08:32:29Z</time>
      </trkpt>
      <trkpt lat="45.28307" lon="6.16084">
        <ele>1917.9</ele>
        <time>2016-02-27T08:33:07Z</time>
      </trkpt>
      <trkpt lat="45.28315" lon="6.16088">
        <ele>1919.4</ele>
        <time>2016-02-27T08:33:21Z</time>
      </trkpt>
      <trkpt lat="45.28324" lon="6.16087">
        <ele>1922.6</ele>
        <time>2016-02-27T08:33:38Z</time>
      </trkpt>
      <trkpt lat="45.28324" lon="6.16086">
        <ele>1922.9</ele>
        <time>2016-02-27T08:33:39Z</time>
      </trkpt>
      <trkpt lat="45.28329" lon="6.16063">
        <ele>1926.1</ele>
        <time>2016-02-27T08:34:02Z</time>
      </trkpt>
      <trkpt lat="45.28335" lon="6.16054">
        <ele>1928.8</ele>
        <time>2016-02-27T08:34:14Z</time>
      </trkpt>
      <trkpt lat="45.28336" lon="6.16042">
        <ele>1930.7</ele>
        <time>2016-02-27T08:34:27Z</time>
      </trkpt>
      <trkpt lat="45.28337" lon="6.1603">
        <ele>1932.3</ele>
        <time>2016-02-27T08:34:40Z</time>
      </trkpt>
      <trkpt lat="45.28337" lon="6.16029">
        <ele>1932.3</ele>
        <time>2016-02-27T08:34:41Z</time>
      </trkpt>
      <trkpt lat="45.28335" lon="6.16006">
        <ele>1937.9</ele>
        <time>2016-02-27T08:35:05Z</time>
      </trkpt>
      <trkpt lat="45.28334" lon="6.15994">
        <ele>1940.3</ele>
        <time>2016-02-27T08:35:18Z</time>
      </trkpt>
      <trkpt lat="45.28333" lon="6.15982">
        <ele>1941.1</ele>
        <time>2016-02-27T08:35:30Z</time>
      </trkpt>
      <trkpt lat="45.28329" lon="6.15971">
        <ele>1944</ele>
        <time>2016-02-27T08:35:43Z</time>
      </trkpt>
      <trkpt lat="45.28329" lon="6.1597">
        <ele>1944.1</ele>
        <time>2016-02-27T08:35:44Z</time>
      </trkpt>
      <trkpt lat="45.28327" lon="6.15948">
        <ele>1949.4</ele>
        <time>2016-02-27T08:36:13Z</time>
      </trkpt>
      <trkpt lat="45.28335" lon="6.15943">
        <ele>1951.7</ele>
        <time>2016-02-27T08:36:26Z</time>
      </trkpt>
      <trkpt lat="45.28343" lon="6.15938">
        <ele>1953.7</ele>
        <time>2016-02-27T08:36:39Z</time>
      </trkpt>
      <trkpt lat="45.28351" lon="6.15936">
        <ele>1955.4</ele>
        <time>2016-02-27T08:36:53Z</time>
      </trkpt>
      <trkpt lat="45.28352" lon="6.15936">
        <ele>1955.3</ele>
        <time>2016-02-27T08:36:54Z</time>
      </trkpt>
      <trkpt lat="45.28368" lon="6.15931">
        <ele>1961.4</ele>
        <time>2016-02-27T08:37:24Z</time>
      </trkpt>
      <trkpt lat="45.28377" lon="6.15929">
        <ele>1963.9</ele>
        <time>2016-02-27T08:37:37Z</time>
      </trkpt>
      <trkpt lat="45.28386" lon="6.15929">
        <ele>1965.9</ele>
        <time>2016-02-27T08:37:50Z</time>
      </trkpt>
      <trkpt lat="45.28395" lon="6.1593">
        <ele>1967.8</ele>
        <time>2016-02-27T08:38:03Z</time>
      </trkpt>
      <trkpt lat="45.28395" lon="6.15929">
        <ele>1968.1</ele>
        <time>2016-02-27T08:38:04Z</time>
      </trkpt>
      <trkpt lat="45.28411" lon="6.15936">
        <ele>1972.5</ele>
        <time>2016-02-27T08:38:28Z</time>
      </trkpt>
      <trkpt lat="45.28416" lon="6.15926">
        <ele>1977</ele>
        <time>2016-02-27T08:38:55Z</time>
      </trkpt>
      <trkpt lat="45.2842" lon="6.15915">
        <ele>1979.5</ele>
        <time>2016-02-27T08:39:11Z</time>
      </trkpt>
      <trkpt lat="45.2842" lon="6.15914">
        <ele>1979.6</ele>
        <time>2016-02-27T08:39:12Z</time>
      </trkpt>
      <trkpt lat="45.28427" lon="6.15892">
        <ele>1983.2</ele>
        <time>2016-02-27T08:39:33Z</time>
      </trkpt>
      <trkpt lat="45.28427" lon="6.1588">
        <ele>1985.5</ele>
        <time>2016-02-27T08:39:45Z</time>
      </trkpt>
      <trkpt lat="45.28427" lon="6.15868">
        <ele>1987.4</ele>
        <time>2016-02-27T08:39:58Z</time>
      </trkpt>
      <trkpt lat="45.28428" lon="6.15856">
        <ele>1989.5</ele>
        <time>2016-02-27T08:40:11Z</time>
      </trkpt>
      <trkpt lat="45.28428" lon="6.15844">
        <ele>1992.3</ele>
        <time>2016-02-27T08:40:24Z</time>
      </trkpt>
      <trkpt lat="45.28428" lon="6.15843">
        <ele>1992.3</ele>
        <time>2016-02-27T08:40:25Z</time>
      </trkpt>
      <trkpt lat="45.28438" lon="6.15824">
        <ele>1996.5</ele>
        <time>2016-02-27T08:40:50Z</time>
      </trkpt>
      <trkpt lat="45.2844" lon="6.15811">
        <ele>1999.7</ele>
        <time>2016-02-27T08:41:06Z</time>
      </trkpt>
      <trkpt lat="45.28443" lon="6.158">
        <ele>2001.2</ele>
        <time>2016-02-27T08:41:18Z</time>
      </trkpt>
      <trkpt lat="45.28445" lon="6.15788">
        <ele>2003.6</ele>
        <time>2016-02-27T08:41:31Z</time>
      </trkpt>
      <trkpt lat="45.28445" lon="6.15787">
        <ele>2003.7</ele>
        <time>2016-02-27T08:41:32Z</time>
      </trkpt>
      <trkpt lat="45.28442" lon="6.15765">
        <ele>2008</ele>
        <time>2016-02-27T08:41:55Z</time>
      </trkpt>
      <trkpt lat="45.28439" lon="6.15753">
        <ele>2009.8</ele>
        <time>2016-02-27T08:42:08Z</time>
      </trkpt>
      <trkpt lat="45.28435" lon="6.15742">
        <ele>2012.3</ele>
        <time>2016-02-27T08:42:20Z</time>
      </trkpt>
      <trkpt lat="45.28435" lon="6.1573">
        <ele>2014.5</ele>
        <time>2016-02-27T08:42:33Z</time>
      </trkpt>
      <trkpt lat="45.28435" lon="6.15729">
        <ele>2014.8</ele>
        <time>2016-02-27T08:42:34Z</time>
      </trkpt>
      <trkpt lat="45.28429" lon="6.15707">
        <ele>2018.5</ele>
        <time>2016-02-27T08:42:57Z</time>
      </trkpt>
      <trkpt lat="45.28432" lon="6.15695">
        <ele>2021.9</ele>
        <time>2016-02-27T08:43:12Z</time>
      </trkpt>
      <trkpt lat="45.28439" lon="6.15687">
        <ele>2023.2</ele>
        <time>2016-02-27T08:43:24Z</time>
      </trkpt>
      <trkpt lat="45.28446" lon="6.1568">
        <ele>2026.2</ele>
        <time>2016-02-27T08:43:36Z</time>
      </trkpt>
      <trkpt lat="45.28446" lon="6.1568">
        <ele>2026.4</ele>
        <time>2016-02-27T08:43:37Z</time>
      </trkpt>
      <trkpt lat="45.28464" lon="6.15683">
        <ele>2032</ele>
        <time>2016-02-27T08:44:11Z</time>
      </trkpt>
      <trkpt lat="45.28473" lon="6.15685">
        <ele>2035.7</ele>
        <time>2016-02-27T08:44:28Z</time>
      </trkpt>
      <trkpt lat="45.28482" lon="6.15685">
        <ele>2038.5</ele>
        <time>2016-02-27T08:44:44Z</time>
      </trkpt>
      <trkpt lat="45.28482" lon="6.15685">
        <ele>2038.9</ele>
        <time>2016-02-27T08:44:45Z</time>
      </trkpt>
      <trkpt lat="45.28482" lon="6.15661">
        <ele>2044.2</ele>
        <time>2016-02-27T08:45:15Z</time>
      </trkpt>
      <trkpt lat="45.2848" lon="6.15649">
        <ele>2047</ele>
        <time>2016-02-27T08:45:28Z</time>
      </trkpt>
      <trkpt lat="45.28477" lon="6.15638">
        <ele>2048.9</ele>
        <time>2016-02-27T08:45:41Z</time>
      </trkpt>
      <trkpt lat="45.28472" lon="6.15627">
        <ele>2051.1</ele>
        <time>2016-02-27T08:45:55Z</time>
      </trkpt>
      <trkpt lat="45.28472" lon="6.15626">
        <ele>2051.2</ele>
        <time>2016-02-27T08:45:56Z</time>
      </trkpt>
      <trkpt lat="45.28472" lon="6.15603">
        <ele>2054.1</ele>
        <time>2016-02-27T08:46:19Z</time>
      </trkpt>
      <trkpt lat="45.28469" lon="6.15592">
        <ele>2056.8</ele>
        <time>2016-02-27T08:46:32Z</time>
      </trkpt>
      <trkpt lat="45.28464" lon="6.15583">
        <ele>2059.5</ele>
        <time>2016-02-27T08:46:45Z</time>
      </trkpt>
      <trkpt lat="45.28458" lon="6.15573">
        <ele>2062</ele>
        <time>2016-02-27T08:46:59Z</time>
      </trkpt>
      <trkpt lat="45.28458" lon="6.15572">
        <ele>2062</ele>
        <time>2016-02-27T08:47:00Z</time>
      </trkpt>
      <trkpt lat="45.2845" lon="6.15551">
        <ele>2065.9</ele>
        <time>2016-02-27T08:47:26Z</time>
      </trkpt>
      <trkpt lat="45.28448" lon="6.15539">
        <ele>2067.5</ele>
        <time>2016-02-27T08:47:40Z</time>
      </trkpt>
      <trkpt lat="45.28445" lon="6.15528">
        <ele>2070.3</ele>
        <time>2016-02-27T08:47:55Z</time>
      </trkpt>
      <trkpt lat="45.28441" lon="6.15516">
        <ele>2074.1</ele>
        <time>2016-02-27T08:48:09Z</time>
      </trkpt>
      <trkpt lat="45.28441" lon="6.15516">
        <ele>2074.2</ele>
        <time>2016-02-27T08:48:10Z</time>
      </trkpt>
      <trkpt lat="45.28454" lon="6.15502">
        <ele>2078.6</ele>
        <time>2016-02-27T08:48:41Z</time>
      </trkpt>
      <trkpt lat="45.28456" lon="6.1549">
        <ele>2083.7</ele>
        <time>2016-02-27T08:49:09Z</time>
      </trkpt>
      <trkpt lat="45.28457" lon="6.15478">
        <ele>2085.8</ele>
        <time>2016-02-27T08:49:24Z</time>
      </trkpt>
      <trkpt lat="45.28457" lon="6.15477">
        <ele>2086.1</ele>
        <time>2016-02-27T08:49:25Z</time>
      </trkpt>
      <trkpt lat="45.28459" lon="6.15454">
        <ele>2090.8</ele>
        <time>2016-02-27T08:49:51Z</time>
      </trkpt>
      <trkpt lat="45.28453" lon="6.15444">
        <ele>2093.8</ele>
        <time>2016-02-27T08:50:06Z</time>
      </trkpt>
      <trkpt lat="45.28453" lon="6.15432">
        <ele>2097.5</ele>
        <time>2016-02-27T08:50:24Z</time>
      </trkpt>
      <trkpt lat="45.28459" lon="6.15425">
        <ele>2099.7</ele>
        <time>2016-02-27T08:50:37Z</time>
      </trkpt>
      <trkpt lat="45.2846" lon="6.15424">
        <ele>2099.7</ele>
        <time>2016-02-27T08:50:38Z</time>
      </trkpt>
      <trkpt lat="45.28471" lon="6.15407">
        <ele>2103.7</ele>
        <time>2016-02-27T08:51:04Z</time>
      </trkpt>
      <trkpt lat="45.28475" lon="6.15396">
        <ele>2106.8</ele>
        <time>2016-02-27T08:51:20Z</time>
      </trkpt>
      <trkpt lat="45.28478" lon="6.15384">
        <ele>2109.9</ele>
        <time>2016-02-27T08:51:37Z</time>
      </trkpt>
      <trkpt lat="45.28471" lon="6.15376">
        <ele>2113.5</ele>
        <time>2016-02-27T08:51:52Z</time>
      </trkpt>
      <trkpt lat="45.28471" lon="6.15375">
        <ele>2113.1</ele>
        <time>2016-02-27T08:51:53Z</time>
      </trkpt>
      <trkpt lat="45.28459" lon="6.15357">
        <ele>2117.6</ele>
        <time>2016-02-27T08:52:21Z</time>
      </trkpt>
      <trkpt lat="45.28464" lon="6.15347">
        <ele>2120.9</ele>
        <time>2016-02-27T08:52:35Z</time>
      </trkpt>
      <trkpt lat="45.2847" lon="6.15338">
        <ele>2123.9</ele>
        <time>2016-02-27T08:55:09Z</time>
      </trkpt>
      <trkpt lat="45.2847" lon="6.15338">
        <ele>2124.1</ele>
        <time>2016-02-27T08:55:10Z</time>
      </trkpt>
      <trkpt lat="45.28479" lon="6.15319">
        <ele>2128.6</ele>
        <time>2016-02-27T08:55:34Z</time>
      </trkpt>
      <trkpt lat="45.28488" lon="6.15318">
        <ele>2131.4</ele>
        <time>2016-02-27T08:55:52Z</time>
      </trkpt>
      <trkpt lat="45.28497" lon="6.15317">
        <ele>2134</ele>
        <time>2016-02-27T08:56:09Z</time>
      </trkpt>
      <trkpt lat="45.285" lon="6.15306">
        <ele>2136.5</ele>
        <time>2016-02-27T08:56:24Z</time>
      </trkpt>
      <trkpt lat="45.285" lon="6.15305">
        <ele>2136.8</ele>
        <time>2016-02-27T08:56:25Z</time>
      </trkpt>
      <trkpt lat="45.28504" lon="6.15281">
        <ele>2141.4</ele>
        <time>2016-02-27T08:56:54Z</time>
      </trkpt>
      <trkpt lat="45.28512" lon="6.15278">
        <ele>2147</ele>
        <time>2016-02-27T08:57:27Z</time>
      </trkpt>
      <trkpt lat="45.28513" lon="6.15278">
        <ele>2147.1</ele>
        <time>2016-02-27T08:57:28Z</time>
      </trkpt>
      <trkpt lat="45.28518" lon="6.15258">
        <ele>2154</ele>
        <time>2016-02-27T08:58:10Z</time>
      </trkpt>
      <trkpt lat="45.28527" lon="6.15253">
        <ele>2157.1</ele>
        <time>2016-02-27T08:58:32Z</time>
      </trkpt>
      <trkpt lat="45.28527" lon="6.15253">
        <ele>2157.6</ele>
        <time>2016-02-27T08:58:33Z</time>
      </trkpt>
      <trkpt lat="45.2853" lon="6.15232">
        <ele>2164.7</ele>
        <time>2016-02-27T08:59:18Z</time>
      </trkpt>
      <trkpt lat="45.28537" lon="6.15224">
        <ele>2167.8</ele>
        <time>2016-02-27T08:59:43Z</time>
      </trkpt>
      <trkpt lat="45.28537" lon="6.15224">
        <ele>2168.4</ele>
        <time>2016-02-27T08:59:44Z</time>
      </trkpt>
      <trkpt lat="45.28545" lon="6.15208">
        <ele>2175.1</ele>
        <time>2016-02-27T09:00:25Z</time>
      </trkpt>
      <trkpt lat="45.28547" lon="6.15196">
        <ele>2181.4</ele>
        <time>2016-02-27T09:01:07Z</time>
      </trkpt>
      <trkpt lat="45.28547" lon="6.15196">
        <ele>2181.5</ele>
        <time>2016-02-27T09:01:08Z</time>
      </trkpt>
      <trkpt lat="45.28561" lon="6.1518">
        <ele>2189.8</ele>
        <time>2016-02-27T09:01:52Z</time>
      </trkpt>
      <trkpt lat="45.28568" lon="6.15175">
        <ele>2191</ele>
        <time>2016-02-27T09:02:06Z</time>
      </trkpt>
      <trkpt lat="45.28575" lon="6.15168">
        <ele>2194.7</ele>
        <time>2016-02-27T09:02:23Z</time>
      </trkpt>
      <trkpt lat="45.28576" lon="6.15168">
        <ele>2195</ele>
        <time>2016-02-27T09:02:24Z</time>
      </trkpt>
      <trkpt lat="45.2859" lon="6.15156">
        <ele>2200</ele>
        <time>2016-02-27T09:02:53Z</time>
      </trkpt>
      <trkpt lat="45.28598" lon="6.1515">
        <ele>2201.7</ele>
        <time>2016-02-27T09:03:08Z</time>
      </trkpt>
      <trkpt lat="45.28605" lon="6.15144">
        <ele>2204.6</ele>
        <time>2016-02-27T09:03:23Z</time>
      </trkpt>
      <trkpt lat="45.28613" lon="6.15138">
        <ele>2208</ele>
        <time>2016-02-27T09:03:37Z</time>
      </trkpt>
      <trkpt lat="45.28613" lon="6.15137">
        <ele>2208.4</ele>
        <time>2016-02-27T09:03:38Z</time>
      </trkpt>
      <trkpt lat="45.28628" lon="6.15124">
        <ele>2212.9</ele>
        <time>2016-02-27T09:04:08Z</time>
      </trkpt>
      <trkpt lat="45.28635" lon="6.15118">
        <ele>2215.4</ele>
        <time>2016-02-27T09:04:23Z</time>
      </trkpt>
      <trkpt lat="45.28643" lon="6.15113">
        <ele>2217.8</ele>
        <time>2016-02-27T09:04:39Z</time>
      </trkpt>
      <trkpt lat="45.28644" lon="6.15113">
        <ele>2217.9</ele>
        <time>2016-02-27T09:04:40Z</time>
      </trkpt>
      <trkpt lat="45.28659" lon="6.15104">
        <ele>2224.9</ele>
        <time>2016-02-27T09:05:16Z</time>
      </trkpt>
      <trkpt lat="45.28666" lon="6.15096">
        <ele>2224.7</ele>
        <time>2016-02-27T09:06:07Z</time>
      </trkpt>
      <trkpt lat="45.28667" lon="6.15096">
        <ele>2224.6</ele>
        <time>2016-02-27T09:06:08Z</time>
      </trkpt>
      <trkpt lat="45.28682" lon="6.15087">
        <ele>2230.6</ele>
        <time>2016-02-27T09:06:36Z</time>
      </trkpt>
      <trkpt lat="45.2869" lon="6.15089">
        <ele>2233.1</ele>
        <time>2016-02-27T09:06:52Z</time>
      </trkpt>
      <trkpt lat="45.28698" lon="6.1509">
        <ele>2235.9</ele>
        <time>2016-02-27T09:07:08Z</time>
      </trkpt>
      <trkpt lat="45.28699" lon="6.1509">
        <ele>2236.3</ele>
        <time>2016-02-27T09:07:09Z</time>
      </trkpt>
      <trkpt lat="45.28716" lon="6.15091">
        <ele>2240.9</ele>
        <time>2016-02-27T09:07:42Z</time>
      </trkpt>
      <trkpt lat="45.28724" lon="6.15088">
        <ele>2244.2</ele>
        <time>2016-02-27T09:08:00Z</time>
      </trkpt>
      <trkpt lat="45.28733" lon="6.15086">
        <ele>2246.8</ele>
        <time>2016-02-27T09:08:19Z</time>
      </trkpt>
      <trkpt lat="45.28734" lon="6.15086">
        <ele>2246.9</ele>
        <time>2016-02-27T09:08:20Z</time>
      </trkpt>
      <trkpt lat="45.28738" lon="6.15071">
        <ele>2253.9</ele>
        <time>2016-02-27T09:09:01Z</time>
      </trkpt>
      <trkpt lat="45.28745" lon="6.15063">
        <ele>2258.8</ele>
        <time>2016-02-27T09:09:35Z</time>
      </trkpt>
      <trkpt lat="45.28745" lon="6.15063">
        <ele>2259.2</ele>
        <time>2016-02-27T09:09:36Z</time>
      </trkpt>
      <trkpt lat="45.28762" lon="6.15061">
        <ele>2264.4</ele>
        <time>2016-02-27T09:10:05Z</time>
      </trkpt>
      <trkpt lat="45.28759" lon="6.1505">
        <ele>2267.9</ele>
        <time>2016-02-27T09:10:35Z</time>
      </trkpt>
      <trkpt lat="45.28753" lon="6.15041">
        <ele>2271.2</ele>
        <time>2016-02-27T09:10:49Z</time>
      </trkpt>
      <trkpt lat="45.28752" lon="6.1504">
        <ele>2271.1</ele>
        <time>2016-02-27T09:10:50Z</time>
      </trkpt>
      <trkpt lat="45.28755" lon="6.15028">
        <ele>2276.1</ele>
        <time>2016-02-27T09:11:30Z</time>
      </trkpt>
      <trkpt lat="45.28764" lon="6.15026">
        <ele>2277.4</ele>
        <time>2016-02-27T09:11:45Z</time>
      </trkpt>
      <trkpt lat="45.28762" lon="6.15014">
        <ele>2282.1</ele>
        <time>2016-02-27T09:12:18Z</time>
      </trkpt>
      <trkpt lat="45.28762" lon="6.15014">
        <ele>2282.2</ele>
        <time>2016-02-27T09:12:19Z</time>
      </trkpt>
      <trkpt lat="45.28748" lon="6.15">
        <ele>2288</ele>
        <time>2016-02-27T09:12:48Z</time>
      </trkpt>
      <trkpt lat="45.2874" lon="6.14995">
        <ele>2291.1</ele>
        <time>2016-02-27T09:13:03Z</time>
      </trkpt>
      <trkpt lat="45.28735" lon="6.14985">
        <ele>2294</ele>
        <time>2016-02-27T09:13:19Z</time>
      </trkpt>
      <trkpt lat="45.28734" lon="6.14984">
        <ele>2294.5</ele>
        <time>2016-02-27T09:13:20Z</time>
      </trkpt>
      <trkpt lat="45.28741" lon="6.14971">
        <ele>2301.8</ele>
        <time>2016-02-27T09:14:10Z</time>
      </trkpt>
      <trkpt lat="45.2875" lon="6.14971">
        <ele>2304.2</ele>
        <time>2016-02-27T09:14:25Z</time>
      </trkpt>
      <trkpt lat="45.2875" lon="6.1497">
        <ele>2304.1</ele>
        <time>2016-02-27T09:14:26Z</time>
      </trkpt>
      <trkpt lat="45.28744" lon="6.14947">
        <ele>2311.3</ele>
        <time>2016-02-27T09:15:07Z</time>
      </trkpt>
      <trkpt lat="45.2875" lon="6.14939">
        <ele>2317.4</ele>
        <time>2016-02-27T09:15:46Z</time>
      </trkpt>
      <trkpt lat="45.28751" lon="6.14939">
        <ele>2317.4</ele>
        <time>2016-02-27T09:15:47Z</time>
      </trkpt>
      <trkpt lat="45.28767" lon="6.14939">
        <ele>2321.9</ele>
        <time>2016-02-27T09:16:15Z</time>
      </trkpt>
      <trkpt lat="45.28762" lon="6.14929">
        <ele>2325.3</ele>
        <time>2016-02-27T09:16:36Z</time>
      </trkpt>
      <trkpt lat="45.28758" lon="6.14918">
        <ele>2327.3</ele>
        <time>2016-02-27T09:16:52Z</time>
      </trkpt>
      <trkpt lat="45.28758" lon="6.14917">
        <ele>2327.3</ele>
        <time>2016-02-27T09:16:53Z</time>
      </trkpt>
      <trkpt lat="45.28762" lon="6.14906">
        <ele>2332.8</ele>
        <time>2016-02-27T09:17:30Z</time>
      </trkpt>
      <trkpt lat="45.28771" lon="6.14909">
        <ele>2335.5</ele>
        <time>2016-02-27T09:17:44Z</time>
      </trkpt>
      <trkpt lat="45.28779" lon="6.14912">
        <ele>2338.8</ele>
        <time>2016-02-27T09:17:57Z</time>
      </trkpt>
      <trkpt lat="45.2878" lon="6.14912">
        <ele>2338.6</ele>
        <time>2016-02-27T09:17:58Z</time>
      </trkpt>
      <trkpt lat="45.28788" lon="6.14901">
        <ele>2343.8</ele>
        <time>2016-02-27T09:18:37Z</time>
      </trkpt>
      <trkpt lat="45.28784" lon="6.1489">
        <ele>2346.1</ele>
        <time>2016-02-27T09:18:52Z</time>
      </trkpt>
      <trkpt lat="45.2878" lon="6.14879">
        <ele>2347.4</ele>
        <time>2016-02-27T09:19:07Z</time>
      </trkpt>
      <trkpt lat="45.28779" lon="6.14879">
        <ele>2347.4</ele>
        <time>2016-02-27T09:19:08Z</time>
      </trkpt>
      <trkpt lat="45.28776" lon="6.14855">
        <ele>2352.3</ele>
        <time>2016-02-27T09:19:39Z</time>
      </trkpt>
      <trkpt lat="45.28778" lon="6.14843">
        <ele>2355.9</ele>
        <time>2016-02-27T09:19:54Z</time>
      </trkpt>
      <trkpt lat="45.28786" lon="6.14838">
        <ele>2359.1</ele>
        <time>2016-02-27T09:20:15Z</time>
      </trkpt>
      <trkpt lat="45.28787" lon="6.14838">
        <ele>2359.1</ele>
        <time>2016-02-27T09:20:16Z</time>
      </trkpt>
      <trkpt lat="45.28801" lon="6.14849">
        <ele>2363.1</ele>
        <time>2016-02-27T09:20:44Z</time>
      </trkpt>
      <trkpt lat="45.28809" lon="6.14855">
        <ele>2365.5</ele>
        <time>2016-02-27T09:20:58Z</time>
      </trkpt>
      <trkpt lat="45.28816" lon="6.14862">
        <ele>2367.6</ele>
        <time>2016-02-27T09:21:13Z</time>
      </trkpt>
      <trkpt lat="45.28825" lon="6.14866">
        <ele>2370.5</ele>
        <time>2016-02-27T09:21:28Z</time>
      </trkpt>
      <trkpt lat="45.28825" lon="6.14866">
        <ele>2370.7</ele>
        <time>2016-02-27T09:21:29Z</time>
      </trkpt>
      <trkpt lat="45.28825" lon="6.14842">
        <ele>2377.9</ele>
        <time>2016-02-27T09:22:16Z</time>
      </trkpt>
      <trkpt lat="45.28823" lon="6.14829">
        <ele>2380.1</ele>
        <time>2016-02-27T09:22:32Z</time>
      </trkpt>
      <trkpt lat="45.28823" lon="6.14828">
        <ele>2380.2</ele>
        <time>2016-02-27T09:22:33Z</time>
      </trkpt>
      <trkpt lat="45.2883" lon="6.14816">
        <ele>2388.1</ele>
        <time>2016-02-27T09:23:28Z</time>
      </trkpt>
      <trkpt lat="45.28837" lon="6.14824">
        <ele>2390.5</ele>
        <time>2016-02-27T09:23:43Z</time>
      </trkpt>
      <trkpt lat="45.28838" lon="6.14824">
        <ele>2390.6</ele>
        <time>2016-02-27T09:23:44Z</time>
      </trkpt>
      <trkpt lat="45.28852" lon="6.14823">
        <ele>2397.9</ele>
        <time>2016-02-27T09:24:35Z</time>
      </trkpt>
      <trkpt lat="45.28852" lon="6.14811">
        <ele>2400.6</ele>
        <time>2016-02-27T09:24:51Z</time>
      </trkpt>
      <trkpt lat="45.28851" lon="6.1481">
        <ele>2400.7</ele>
        <time>2016-02-27T09:24:52Z</time>
      </trkpt>
      <trkpt lat="45.28849" lon="6.14786">
        <ele>2405.5</ele>
        <time>2016-02-27T09:25:23Z</time>
      </trkpt>
      <trkpt lat="45.28847" lon="6.14774">
        <ele>2408.5</ele>
        <time>2016-02-27T09:25:40Z</time>
      </trkpt>
      <trkpt lat="45.28854" lon="6.14767">
        <ele>2413.6</ele>
        <time>2016-02-27T09:26:15Z</time>
      </trkpt>
      <trkpt lat="45.28854" lon="6.14767">
        <ele>2413.5</ele>
        <time>2016-02-27T09:26:16Z</time>
      </trkpt>
      <trkpt lat="45.2887" lon="6.14772">
        <ele>2417.5</ele>
        <time>2016-02-27T09:26:41Z</time>
      </trkpt>
      <trkpt lat="45.28879" lon="6.14773">
        <ele>2420.7</ele>
        <time>2016-02-27T09:26:55Z</time>
      </trkpt>
      <trkpt lat="45.28887" lon="6.14776">
        <ele>2423.6</ele>
        <time>2016-02-27T09:27:09Z</time>
      </trkpt>
      <trkpt lat="45.28895" lon="6.14781">
        <ele>2424.3</ele>
        <time>2016-02-27T09:27:24Z</time>
      </trkpt>
      <trkpt lat="45.28896" lon="6.14781">
        <ele>2424.2</ele>
        <time>2016-02-27T09:27:25Z</time>
      </trkpt>
      <trkpt lat="45.28908" lon="6.14764">
        <ele>2428.8</ele>
        <time>2016-02-27T09:27:56Z</time>
      </trkpt>
      <trkpt lat="45.28908" lon="6.14752">
        <ele>2431.7</ele>
        <time>2016-02-27T09:28:13Z</time>
      </trkpt>
      <trkpt lat="45.28903" lon="6.14741">
        <ele>2434.6</ele>
        <time>2016-02-27T09:28:28Z</time>
      </trkpt>
      <trkpt lat="45.28903" lon="6.14741">
        <ele>2434.8</ele>
        <time>2016-02-27T09:28:29Z</time>
      </trkpt>
      <trkpt lat="45.28894" lon="6.14721">
        <ele>2439.3</ele>
        <time>2016-02-27T09:28:56Z</time>
      </trkpt>
      <trkpt lat="45.2889" lon="6.1471">
        <ele>2440.8</ele>
        <time>2016-02-27T09:29:11Z</time>
      </trkpt>
      <trkpt lat="45.28898" lon="6.14706">
        <ele>2444.6</ele>
        <time>2016-02-27T09:29:38Z</time>
      </trkpt>
      <trkpt lat="45.28898" lon="6.14706">
        <ele>2444.8</ele>
        <time>2016-02-27T09:29:39Z</time>
      </trkpt>
      <trkpt lat="45.28915" lon="6.14704">
        <ele>2449.3</ele>
        <time>2016-02-27T09:30:08Z</time>
      </trkpt>
      <trkpt lat="45.28924" lon="6.14706">
        <ele>2453.3</ele>
        <time>2016-02-27T09:30:24Z</time>
      </trkpt>
      <trkpt lat="45.28923" lon="6.14693">
        <ele>2457.8</ele>
        <time>2016-02-27T09:30:55Z</time>
      </trkpt>
      <trkpt lat="45.28923" lon="6.14692">
        <ele>2457.7</ele>
        <time>2016-02-27T09:30:56Z</time>
      </trkpt>
      <trkpt lat="45.28914" lon="6.14672">
        <ele>2463.7</ele>
        <time>2016-02-27T09:31:24Z</time>
      </trkpt>
      <trkpt lat="45.28911" lon="6.14661">
        <ele>2464.8</ele>
        <time>2016-02-27T09:31:39Z</time>
      </trkpt>
      <trkpt lat="45.28918" lon="6.14655">
        <ele>2468.9</ele>
        <time>2016-02-27T09:32:08Z</time>
      </trkpt>
      <trkpt lat="45.28919" lon="6.14655">
        <ele>2469</ele>
        <time>2016-02-27T09:32:09Z</time>
      </trkpt>
      <trkpt lat="45.28936" lon="6.14652">
        <ele>2474.6</ele>
        <time>2016-02-27T09:32:36Z</time>
      </trkpt>
      <trkpt lat="45.28944" lon="6.14653">
        <ele>2476</ele>
        <time>2016-02-27T09:32:50Z</time>
      </trkpt>
      <trkpt lat="45.28951" lon="6.1466">
        <ele>2479.9</ele>
        <time>2016-02-27T09:33:05Z</time>
      </trkpt>
      <trkpt lat="45.28958" lon="6.14651">
        <ele>2483.5</ele>
        <time>2016-02-27T09:33:34Z</time>
      </trkpt>
      <trkpt lat="45.28958" lon="6.14651">
        <ele>2483.5</ele>
        <time>2016-02-27T09:33:35Z</time>
      </trkpt>
      <trkpt lat="45.28959" lon="6.14627">
        <ele>2488.1</ele>
        <time>2016-02-27T09:34:05Z</time>
      </trkpt>
      <trkpt lat="45.28961" lon="6.14615">
        <ele>2490.9</ele>
        <time>2016-02-27T09:34:19Z</time>
      </trkpt>
      <trkpt lat="45.28961" lon="6.14603">
        <ele>2492.9</ele>
        <time>2016-02-27T09:34:32Z</time>
      </trkpt>
      <trkpt lat="45.28962" lon="6.14591">
        <ele>2495.4</ele>
        <time>2016-02-27T09:34:47Z</time>
      </trkpt>
      <trkpt lat="45.28963" lon="6.1459">
        <ele>2495.7</ele>
        <time>2016-02-27T09:34:48Z</time>
      </trkpt>
      <trkpt lat="45.28979" lon="6.14591">
        <ele>2502</ele>
        <time>2016-02-27T09:35:16Z</time>
      </trkpt>
      <trkpt lat="45.28987" lon="6.14587">
        <ele>2507.9</ele>
        <time>2016-02-27T09:35:44Z</time>
      </trkpt>
      <trkpt lat="45.28988" lon="6.14575">
        <ele>2509.3</ele>
        <time>2016-02-27T09:35:58Z</time>
      </trkpt>
      <trkpt lat="45.28988" lon="6.14574">
        <ele>2509.5</ele>
        <time>2016-02-27T09:35:59Z</time>
      </trkpt>
      <trkpt lat="45.28994" lon="6.14552">
        <ele>2514</ele>
        <time>2016-02-27T09:36:32Z</time>
      </trkpt>
      <trkpt lat="45.28993" lon="6.14539">
        <ele>2514.1</ele>
        <time>2016-02-27T09:37:19Z</time>
      </trkpt>
      <trkpt lat="45.28993" lon="6.14539">
        <ele>2514.1</ele>
        <time>2016-02-27T09:37:20Z</time>
      </trkpt>
      <trkpt lat="45.29001" lon="6.14532">
        <ele>2515.6</ele>
        <time>2016-02-27T09:39:04Z</time>
      </trkpt>
      <trkpt lat="45.29012" lon="6.14549">
        <ele>2523</ele>
        <time>2016-02-27T09:39:33Z</time>
      </trkpt>
      <trkpt lat="45.29018" lon="6.1454">
        <ele>2526</ele>
        <time>2016-02-27T09:39:58Z</time>
      </trkpt>
      <trkpt lat="45.29024" lon="6.1453">
        <ele>2527.4</ele>
        <time>2016-02-27T09:40:10Z</time>
      </trkpt>
      <trkpt lat="45.29024" lon="6.14529">
        <ele>2527.6</ele>
        <time>2016-02-27T09:40:11Z</time>
      </trkpt>
      <trkpt lat="45.29033" lon="6.14509">
        <ele>2530.7</ele>
        <time>2016-02-27T09:40:37Z</time>
      </trkpt>
      <trkpt lat="45.29039" lon="6.145">
        <ele>2531.9</ele>
        <time>2016-02-27T09:40:51Z</time>
      </trkpt>
      <trkpt lat="45.29046" lon="6.14492">
        <ele>2535.6</ele>
        <time>2016-02-27T09:41:06Z</time>
      </trkpt>
      <trkpt lat="45.29054" lon="6.14491">
        <ele>2538.4</ele>
        <time>2016-02-27T09:41:25Z</time>
      </trkpt>
      <trkpt lat="45.29055" lon="6.14491">
        <ele>2538.7</ele>
        <time>2016-02-27T09:41:26Z</time>
      </trkpt>
      <trkpt lat="45.29066" lon="6.14507">
        <ele>2542.4</ele>
        <time>2016-02-27T09:42:47Z</time>
      </trkpt>
      <trkpt lat="45.29066" lon="6.14507">
        <ele>2542.5</ele>
        <time>2016-02-27T09:42:48Z</time>
      </trkpt>
      <trkpt lat="45.29079" lon="6.14505">
        <ele>2543.1</ele>
        <time>2016-02-27T09:44:59Z</time>
      </trkpt>
      <trkpt lat="45.29079" lon="6.14505">
        <ele>2542.8</ele>
        <time>2016-02-27T09:45:00Z</time>
      </trkpt>
      <trkpt lat="45.29093" lon="6.14491">
        <ele>2545.8</ele>
        <time>2016-02-27T09:45:27Z</time>
      </trkpt>
      <trkpt lat="45.291" lon="6.14484">
        <ele>2548</ele>
        <time>2016-02-27T09:45:41Z</time>
      </trkpt>
      <trkpt lat="45.29106" lon="6.14476">
        <ele>2551.3</ele>
        <time>2016-02-27T09:45:59Z</time>
      </trkpt>
      <trkpt lat="45.29114" lon="6.14469">
        <ele>2554.9</ele>
        <time>2016-02-27T09:46:17Z</time>
      </trkpt>
      <trkpt lat="45.29114" lon="6.14469">
        <ele>2554.9</ele>
        <time>2016-02-27T09:46:18Z</time>
      </trkpt>
      <trkpt lat="45.29129" lon="6.14458">
        <ele>2560</ele>
        <time>2016-02-27T09:46:55Z</time>
      </trkpt>
      <trkpt lat="45.29138" lon="6.14455">
        <ele>2564.2</ele>
        <time>2016-02-27T09:47:13Z</time>
      </trkpt>
      <trkpt lat="45.29147" lon="6.14452">
        <ele>2565.7</ele>
        <time>2016-02-27T09:47:29Z</time>
      </trkpt>
      <trkpt lat="45.29147" lon="6.14452">
        <ele>2565.7</ele>
        <time>2016-02-27T09:47:30Z</time>
      </trkpt>
      <trkpt lat="45.29164" lon="6.14446">
        <ele>2571</ele>
        <time>2016-02-27T09:47:59Z</time>
      </trkpt>
      <trkpt lat="45.29172" lon="6.14442">
        <ele>2574.7</ele>
        <time>2016-02-27T09:48:14Z</time>
      </trkpt>
      <trkpt lat="45.29181" lon="6.14439">
        <ele>2577.5</ele>
        <time>2016-02-27T09:48:31Z</time>
      </trkpt>
      <trkpt lat="45.29181" lon="6.14438">
        <ele>2577.4</ele>
        <time>2016-02-27T09:48:32Z</time>
      </trkpt>
      <trkpt lat="45.29194" lon="6.14423">
        <ele>2579.7</ele>
        <time>2016-02-27T09:49:11Z</time>
      </trkpt>
      <trkpt lat="45.29202" lon="6.14427">
        <ele>2583.1</ele>
        <time>2016-02-27T09:49:46Z</time>
      </trkpt>
      <trkpt lat="45.29203" lon="6.14427">
        <ele>2582.7</ele>
        <time>2016-02-27T09:49:47Z</time>
      </trkpt>
      <trkpt lat="45.29218" lon="6.14438">
        <ele>2591.6</ele>
        <time>2016-02-27T09:50:46Z</time>
      </trkpt>
      <trkpt lat="45.29225" lon="6.14431">
        <ele>2593.3</ele>
        <time>2016-02-27T09:51:20Z</time>
      </trkpt>
      <trkpt lat="45.29226" lon="6.1443">
        <ele>2593.3</ele>
        <time>2016-02-27T09:51:21Z</time>
      </trkpt>
      <trkpt lat="45.29239" lon="6.14416">
        <ele>2601.8</ele>
        <time>2016-02-27T09:52:21Z</time>
      </trkpt>
      <trkpt lat="45.29239" lon="6.14415">
        <ele>2602.2</ele>
        <time>2016-02-27T09:52:22Z</time>
      </trkpt>
      <trkpt lat="45.2925" lon="6.14398">
        <ele>2604.5</ele>
        <time>2016-02-27T09:53:05Z</time>
      </trkpt>
      <trkpt lat="45.29258" lon="6.14391">
        <ele>2598.9</ele>
        <time>2016-02-27T09:54:07Z</time>
      </trkpt>
      <trkpt lat="45.29258" lon="6.1439">
        <ele>2598.7</ele>
        <time>2016-02-27T09:54:08Z</time>
      </trkpt>
      <trkpt lat="45.29252" lon="6.14397">
        <ele>2606</ele>
        <time>2016-02-27T09:55:11Z</time>
      </trkpt>
      <trkpt lat="45.29253" lon="6.14398">
        <ele>2605.9</ele>
        <time>2016-02-27T09:55:12Z</time>
      </trkpt>
      <trkpt lat="45.29261" lon="6.14418">
        <ele>2610.8</ele>
        <time>2016-02-27T09:55:30Z</time>
      </trkpt>
      <trkpt lat="45.2927" lon="6.1442">
        <ele>2615.2</ele>
        <time>2016-02-27T09:56:00Z</time>
      </trkpt>
      <trkpt lat="45.29276" lon="6.14411">
        <ele>2617.7</ele>
        <time>2016-02-27T09:56:18Z</time>
      </trkpt>
      <trkpt lat="45.29276" lon="6.14411">
        <ele>2618.2</ele>
        <time>2016-02-27T09:56:19Z</time>
      </trkpt>
      <trkpt lat="45.29289" lon="6.14397">
        <ele>2622.4</ele>
        <time>2016-02-27T09:56:52Z</time>
      </trkpt>
      <trkpt lat="45.29295" lon="6.14387">
        <ele>2627</ele>
        <time>2016-02-27T09:57:14Z</time>
      </trkpt>
      <trkpt lat="45.29301" lon="6.14378">
        <ele>2627.2</ele>
        <time>2016-02-27T09:57:32Z</time>
      </trkpt>
      <trkpt lat="45.29302" lon="6.14378">
        <ele>2627.2</ele>
        <time>2016-02-27T09:57:33Z</time>
      </trkpt>
      <trkpt lat="45.29316" lon="6.14364">
        <ele>2634.2</ele>
        <time>2016-02-27T09:58:13Z</time>
      </trkpt>
      <trkpt lat="45.29323" lon="6.14358">
        <ele>2636.5</ele>
        <time>2016-02-27T09:58:35Z</time>
      </trkpt>
      <trkpt lat="45.29324" lon="6.14357">
        <ele>2636.9</ele>
        <time>2016-02-27T09:58:36Z</time>
      </trkpt>
      <trkpt lat="45.29339" lon="6.14351">
        <ele>2645.7</ele>
        <time>2016-02-27T09:59:37Z</time>
      </trkpt>
      <trkpt lat="45.2934" lon="6.14351">
        <ele>2646.1</ele>
        <time>2016-02-27T09:59:38Z</time>
      </trkpt>
      <trkpt lat="45.29354" lon="6.1436">
        <ele>2655.2</ele>
        <time>2016-02-27T10:00:59Z</time>
      </trkpt>
      <trkpt lat="45.29354" lon="6.14361">
        <ele>2655.6</ele>
        <time>2016-02-27T10:01:00Z</time>
      </trkpt>
      <trkpt lat="45.29366" lon="6.14377">
        <ele>2659.5</ele>
        <time>2016-02-27T10:01:29Z</time>
      </trkpt>
      <trkpt lat="45.29374" lon="6.1438">
        <ele>2662.3</ele>
        <time>2016-02-27T10:01:47Z</time>
      </trkpt>
      <trkpt lat="45.29384" lon="6.14382">
        <ele>2665</ele>
        <time>2016-02-27T10:02:02Z</time>
      </trkpt>
      <trkpt lat="45.29385" lon="6.14382">
        <ele>2666.6</ele>
        <time>2016-02-27T10:02:04Z</time>
      </trkpt>
      <trkpt lat="45.29399" lon="6.14389">
        <ele>2668.2</ele>
        <time>2016-02-27T10:02:44Z</time>
      </trkpt>
      <trkpt lat="45.29407" lon="6.14388">
        <ele>2671.5</ele>
        <time>2016-02-27T10:02:56Z</time>
      </trkpt>
      <trkpt lat="45.29416" lon="6.14384">
        <ele>2672.5</ele>
        <time>2016-02-27T10:03:10Z</time>
      </trkpt>
      <trkpt lat="45.29416" lon="6.14383">
        <ele>2672.6</ele>
        <time>2016-02-27T10:03:11Z</time>
      </trkpt>
      <trkpt lat="45.29431" lon="6.14372">
        <ele>2677.9</ele>
        <time>2016-02-27T10:03:48Z</time>
      </trkpt>
      <trkpt lat="45.29437" lon="6.14364">
        <ele>2679.1</ele>
        <time>2016-02-27T10:04:03Z</time>
      </trkpt>
      <trkpt lat="45.29444" lon="6.14356">
        <ele>2681</ele>
        <time>2016-02-27T10:04:21Z</time>
      </trkpt>
      <trkpt lat="45.29445" lon="6.14355">
        <ele>2681.5</ele>
        <time>2016-02-27T10:04:23Z</time>
      </trkpt>
      <trkpt lat="45.29459" lon="6.14343">
        <ele>2683.8</ele>
        <time>2016-02-27T10:04:56Z</time>
      </trkpt>
      <trkpt lat="45.29466" lon="6.14337">
        <ele>2686.4</ele>
        <time>2016-02-27T10:05:13Z</time>
      </trkpt>
      <trkpt lat="45.29472" lon="6.14328">
        <ele>2688.2</ele>
        <time>2016-02-27T10:05:30Z</time>
      </trkpt>
      <trkpt lat="45.29472" lon="6.14327">
        <ele>2688.9</ele>
        <time>2016-02-27T10:05:31Z</time>
      </trkpt>
      <trkpt lat="45.2948" lon="6.14344">
        <ele>2697.5</ele>
        <time>2016-02-27T10:06:48Z</time>
      </trkpt>
      <trkpt lat="45.2948" lon="6.14344">
        <ele>2697.7</ele>
        <time>2016-02-27T10:06:49Z</time>
      </trkpt>
      <trkpt lat="45.29481" lon="6.14368">
        <ele>2702.4</ele>
        <time>2016-02-27T10:07:28Z</time>
      </trkpt>
      <trkpt lat="45.29481" lon="6.14381">
        <ele>2704.7</ele>
        <time>2016-02-27T10:07:42Z</time>
      </trkpt>
      <trkpt lat="45.29482" lon="6.14393">
        <ele>2707.1</ele>
        <time>2016-02-27T10:08:01Z</time>
      </trkpt>
      <trkpt lat="45.29482" lon="6.14394">
        <ele>2707.1</ele>
        <time>2016-02-27T10:08:02Z</time>
      </trkpt>
      <trkpt lat="45.29482" lon="6.14418">
        <ele>2710.5</ele>
        <time>2016-02-27T10:08:43Z</time>
      </trkpt>
      <trkpt lat="45.29491" lon="6.14414">
        <ele>2714.5</ele>
        <time>2016-02-27T10:09:25Z</time>
      </trkpt>
      <trkpt lat="45.29491" lon="6.14413">
        <ele>2715.3</ele>
        <time>2016-02-27T10:09:26Z</time>
      </trkpt>
      <trkpt lat="45.29505" lon="6.14401">
        <ele>2720.6</ele>
        <time>2016-02-27T10:10:02Z</time>
      </trkpt>
      <trkpt lat="45.29512" lon="6.14393">
        <ele>2721.4</ele>
        <time>2016-02-27T10:10:23Z</time>
      </trkpt>
      <trkpt lat="45.2952" lon="6.14387">
        <ele>2723.8</ele>
        <time>2016-02-27T10:10:47Z</time>
      </trkpt>
      <trkpt lat="45.2952" lon="6.14387">
        <ele>2723.9</ele>
        <time>2016-02-27T10:10:48Z</time>
      </trkpt>
      <trkpt lat="45.29529" lon="6.14366">
        <ele>2727.4</ele>
        <time>2016-02-27T10:11:27Z</time>
      </trkpt>
      <trkpt lat="45.29533" lon="6.14356">
        <ele>2730.6</ele>
        <time>2016-02-27T10:11:54Z</time>
      </trkpt>
      <trkpt lat="45.29533" lon="6.14355">
        <ele>2730.7</ele>
        <time>2016-02-27T10:11:55Z</time>
      </trkpt>
      <trkpt lat="45.29541" lon="6.14349">
        <ele>2735.4</ele>
        <time>2016-02-27T10:13:08Z</time>
      </trkpt>
      <trkpt lat="45.29548" lon="6.14344">
        <ele>2742.3</ele>
        <time>2016-02-27T10:14:28Z</time>
      </trkpt>
      <trkpt lat="45.29556" lon="6.14364">
        <ele>2747.3</ele>
        <time>2016-02-27T10:15:51Z</time>
      </trkpt>
      <trkpt lat="45.29557" lon="6.14365">
        <ele>2747.5</ele>
        <time>2016-02-27T10:15:52Z</time>
      </trkpt>
      <trkpt lat="45.29567" lon="6.14346">
        <ele>2753.8</ele>
        <time>2016-02-27T10:17:26Z</time>
      </trkpt>
      <trkpt lat="45.29567" lon="6.14346">
        <ele>2753.4</ele>
        <time>2016-02-27T10:17:27Z</time>
      </trkpt>
      <trkpt lat="45.29572" lon="6.14324">
        <ele>2758.5</ele>
        <time>2016-02-27T10:19:05Z</time>
      </trkpt>
      <trkpt lat="45.29572" lon="6.14324">
        <ele>2758</ele>
        <time>2016-02-27T10:19:06Z</time>
      </trkpt>
      <trkpt lat="45.29586" lon="6.1431">
        <ele>2764.2</ele>
        <time>2016-02-27T10:20:23Z</time>
      </trkpt>
      <trkpt lat="45.29586" lon="6.14309">
        <ele>2764.3</ele>
        <time>2016-02-27T10:20:24Z</time>
      </trkpt>
      <trkpt lat="45.29599" lon="6.14293">
        <ele>2768.4</ele>
        <time>2016-02-27T10:20:59Z</time>
      </trkpt>
      <trkpt lat="45.29596" lon="6.14304">
        <ele>2769.4</ele>
        <time>2016-02-27T10:21:15Z</time>
      </trkpt>
      <trkpt lat="45.29592" lon="6.14314">
        <ele>2769.8</ele>
        <time>2016-02-27T10:21:21Z</time>
      </trkpt>
      <trkpt lat="45.29587" lon="6.14325">
        <ele>2769.1</ele>
        <time>2016-02-27T10:21:33Z</time>
      </trkpt>
      <trkpt lat="45.29586" lon="6.14326">
        <ele>2769.3</ele>
        <time>2016-02-27T10:21:34Z</time>
      </trkpt>
      <trkpt lat="45.29587" lon="6.14337">
        <ele>2770.7</ele>
        <time>2016-02-27T10:23:32Z</time>
      </trkpt>
      <trkpt lat="45.29588" lon="6.14337">
        <ele>2768.1</ele>
        <time>2016-02-27T10:25:01Z</time>
      </trkpt>
      <trkpt lat="45.29588" lon="6.14337">
        <ele>2767.8</ele>
        <time>2016-02-27T10:25:02Z</time>
      </trkpt>
      <trkpt lat="45.29597" lon="6.14334">
        <ele>2765.9</ele>
        <time>2016-02-27T10:29:18Z</time>
      </trkpt>
      <trkpt lat="45.29606" lon="6.14335">
        <ele>2768.2</ele>
        <time>2016-02-27T10:30:55Z</time>
      </trkpt>
      <trkpt lat="45.296" lon="6.14348">
        <ele>2768.1</ele>
        <time>2016-02-27T10:33:43Z</time>
      </trkpt>
      <trkpt lat="45.29603" lon="6.14349">
        <ele>2768.2</ele>
        <time>2016-02-27T10:33:44Z</time>
      </trkpt>
      <trkpt lat="45.29616" lon="6.14354">
        <ele>2766</ele>
        <time>2016-02-27T10:33:49Z</time>
      </trkpt>
      <trkpt lat="45.29623" lon="6.14359">
        <ele>2762.4</ele>
        <time>2016-02-27T10:33:52Z</time>
      </trkpt>
      <trkpt lat="45.29631" lon="6.14366">
        <ele>2759.4</ele>
        <time>2016-02-27T10:33:55Z</time>
      </trkpt>
      <trkpt lat="45.29637" lon="6.14366">
        <ele>2756.5</ele>
        <time>2016-02-27T10:33:57Z</time>
      </trkpt>
      <trkpt lat="45.29642" lon="6.14373">
        <ele>2752.4</ele>
        <time>2016-02-27T10:33:59Z</time>
      </trkpt>
      <trkpt lat="45.29649" lon="6.14376">
        <ele>2746.5</ele>
        <time>2016-02-27T10:34:02Z</time>
      </trkpt>
      <trkpt lat="45.29654" lon="6.14383">
        <ele>2739.4</ele>
        <time>2016-02-27T10:34:05Z</time>
      </trkpt>
      <trkpt lat="45.2966" lon="6.14391">
        <ele>2733.6</ele>
        <time>2016-02-27T10:34:09Z</time>
      </trkpt>
      <trkpt lat="45.29669" lon="6.14395">
        <ele>2730.8</ele>
        <time>2016-02-27T10:34:12Z</time>
      </trkpt>
      <trkpt lat="45.29671" lon="6.14406">
        <ele>2726.7</ele>
        <time>2016-02-27T10:34:15Z</time>
      </trkpt>
      <trkpt lat="45.29679" lon="6.14413">
        <ele>2719</ele>
        <time>2016-02-27T10:34:23Z</time>
      </trkpt>
      <trkpt lat="45.29684" lon="6.1442">
        <ele>2716.7</ele>
        <time>2016-02-27T10:34:34Z</time>
      </trkpt>
      <trkpt lat="45.29685" lon="6.1443">
        <ele>2714.3</ele>
        <time>2016-02-27T10:34:39Z</time>
      </trkpt>
      <trkpt lat="45.29692" lon="6.14437">
        <ele>2711.5</ele>
        <time>2016-02-27T10:34:43Z</time>
      </trkpt>
      <trkpt lat="45.29695" lon="6.14449">
        <ele>2704</ele>
        <time>2016-02-27T10:34:50Z</time>
      </trkpt>
      <trkpt lat="45.29696" lon="6.14451">
        <ele>2703.3</ele>
        <time>2016-02-27T10:34:51Z</time>
      </trkpt>
      <trkpt lat="45.29707" lon="6.14453">
        <ele>2694.4</ele>
        <time>2016-02-27T10:35:06Z</time>
      </trkpt>
      <trkpt lat="45.29714" lon="6.14449">
        <ele>2692.2</ele>
        <time>2016-02-27T10:35:11Z</time>
      </trkpt>
      <trkpt lat="45.29718" lon="6.14458">
        <ele>2690</ele>
        <time>2016-02-27T10:35:16Z</time>
      </trkpt>
      <trkpt lat="45.29721" lon="6.14469">
        <ele>2686.2</ele>
        <time>2016-02-27T10:35:20Z</time>
      </trkpt>
      <trkpt lat="45.29727" lon="6.14479">
        <ele>2677</ele>
        <time>2016-02-27T10:35:26Z</time>
      </trkpt>
      <trkpt lat="45.29727" lon="6.14491">
        <ele>2666</ele>
        <time>2016-02-27T10:35:46Z</time>
      </trkpt>
      <trkpt lat="45.29733" lon="6.14501">
        <ele>2663.7</ele>
        <time>2016-02-27T10:35:51Z</time>
      </trkpt>
      <trkpt lat="45.29733" lon="6.14505">
        <ele>2663.2</ele>
        <time>2016-02-27T10:35:52Z</time>
      </trkpt>
      <trkpt lat="45.29745" lon="6.14517">
        <ele>2656.8</ele>
        <time>2016-02-27T10:35:59Z</time>
      </trkpt>
      <trkpt lat="45.29744" lon="6.14528">
        <ele>2653.7</ele>
        <time>2016-02-27T10:36:02Z</time>
      </trkpt>
      <trkpt lat="45.29751" lon="6.14535">
        <ele>2650.8</ele>
        <time>2016-02-27T10:36:05Z</time>
      </trkpt>
      <trkpt lat="45.2975" lon="6.14547">
        <ele>2648.8</ele>
        <time>2016-02-27T10:36:08Z</time>
      </trkpt>
      <trkpt lat="45.29755" lon="6.14554">
        <ele>2646.8</ele>
        <time>2016-02-27T10:36:11Z</time>
      </trkpt>
      <trkpt lat="45.29756" lon="6.14564">
        <ele>2644.2</ele>
        <time>2016-02-27T10:36:14Z</time>
      </trkpt>
      <trkpt lat="45.29759" lon="6.14571">
        <ele>2641.6</ele>
        <time>2016-02-27T10:36:16Z</time>
      </trkpt>
      <trkpt lat="45.29763" lon="6.14581">
        <ele>2637.6</ele>
        <time>2016-02-27T10:36:19Z</time>
      </trkpt>
      <trkpt lat="45.29765" lon="6.14593">
        <ele>2635.6</ele>
        <time>2016-02-27T10:36:22Z</time>
      </trkpt>
      <trkpt lat="45.29763" lon="6.14604">
        <ele>2631.9</ele>
        <time>2016-02-27T10:36:25Z</time>
      </trkpt>
      <trkpt lat="45.29762" lon="6.14616">
        <ele>2623.4</ele>
        <time>2016-02-27T10:36:36Z</time>
      </trkpt>
      <trkpt lat="45.29764" lon="6.14628">
        <ele>2623.6</ele>
        <time>2016-02-27T10:36:40Z</time>
      </trkpt>
      <trkpt lat="45.29763" lon="6.14638">
        <ele>2622.7</ele>
        <time>2016-02-27T10:36:42Z</time>
      </trkpt>
      <trkpt lat="45.29764" lon="6.14647">
        <ele>2620.2</ele>
        <time>2016-02-27T10:36:44Z</time>
      </trkpt>
      <trkpt lat="45.29762" lon="6.14657">
        <ele>2616.1</ele>
        <time>2016-02-27T10:36:46Z</time>
      </trkpt>
      <trkpt lat="45.29764" lon="6.14666">
        <ele>2613</ele>
        <time>2016-02-27T10:36:48Z</time>
      </trkpt>
      <trkpt lat="45.29762" lon="6.14676">
        <ele>2609.1</ele>
        <time>2016-02-27T10:36:50Z</time>
      </trkpt>
      <trkpt lat="45.29765" lon="6.14685">
        <ele>2605.8</ele>
        <time>2016-02-27T10:36:52Z</time>
      </trkpt>
      <trkpt lat="45.29763" lon="6.14689">
        <ele>2604.5</ele>
        <time>2016-02-27T10:36:53Z</time>
      </trkpt>
      <trkpt lat="45.29764" lon="6.14703">
        <ele>2601.2</ele>
        <time>2016-02-27T10:36:56Z</time>
      </trkpt>
      <trkpt lat="45.29763" lon="6.14712">
        <ele>2596.9</ele>
        <time>2016-02-27T10:36:58Z</time>
      </trkpt>
      <trkpt lat="45.29766" lon="6.14721">
        <ele>2594.7</ele>
        <time>2016-02-27T10:37:00Z</time>
      </trkpt>
      <trkpt lat="45.29765" lon="6.14731">
        <ele>2592.4</ele>
        <time>2016-02-27T10:37:02Z</time>
      </trkpt>
      <trkpt lat="45.29767" lon="6.14742">
        <ele>2590.2</ele>
        <time>2016-02-27T10:37:04Z</time>
      </trkpt>
      <trkpt lat="45.29766" lon="6.14752">
        <ele>2588.4</ele>
        <time>2016-02-27T10:37:06Z</time>
      </trkpt>
      <trkpt lat="45.29765" lon="6.14764">
        <ele>2586</ele>
        <time>2016-02-27T10:37:08Z</time>
      </trkpt>
      <trkpt lat="45.29767" lon="6.14771">
        <ele>2584.9</ele>
        <time>2016-02-27T10:37:09Z</time>
      </trkpt>
      <trkpt lat="45.29766" lon="6.14783">
        <ele>2583.4</ele>
        <time>2016-02-27T10:37:11Z</time>
      </trkpt>
      <trkpt lat="45.29764" lon="6.14789">
        <ele>2581.3</ele>
        <time>2016-02-27T10:37:12Z</time>
      </trkpt>
      <trkpt lat="45.29763" lon="6.14796">
        <ele>2579.8</ele>
        <time>2016-02-27T10:37:13Z</time>
      </trkpt>
      <trkpt lat="45.29764" lon="6.14808">
        <ele>2577.6</ele>
        <time>2016-02-27T10:37:15Z</time>
      </trkpt>
      <trkpt lat="45.29762" lon="6.14819">
        <ele>2575.3</ele>
        <time>2016-02-27T10:37:17Z</time>
      </trkpt>
      <trkpt lat="45.29764" lon="6.1483">
        <ele>2573.5</ele>
        <time>2016-02-27T10:37:19Z</time>
      </trkpt>
      <trkpt lat="45.2976" lon="6.1484">
        <ele>2571.6</ele>
        <time>2016-02-27T10:37:21Z</time>
      </trkpt>
      <trkpt lat="45.29759" lon="6.14852">
        <ele>2570</ele>
        <time>2016-02-27T10:37:23Z</time>
      </trkpt>
      <trkpt lat="45.29753" lon="6.14861">
        <ele>2561.4</ele>
        <time>2016-02-27T10:37:32Z</time>
      </trkpt>
      <trkpt lat="45.29749" lon="6.14871">
        <ele>2560.9</ele>
        <time>2016-02-27T10:37:42Z</time>
      </trkpt>
      <trkpt lat="45.2975" lon="6.14882">
        <ele>2560.6</ele>
        <time>2016-02-27T10:37:44Z</time>
      </trkpt>
      <trkpt lat="45.29749" lon="6.14894">
        <ele>2558.9</ele>
        <time>2016-02-27T10:37:46Z</time>
      </trkpt>
      <trkpt lat="45.2975" lon="6.14901">
        <ele>2558.1</ele>
        <time>2016-02-27T10:37:47Z</time>
      </trkpt>
      <trkpt lat="45.2975" lon="6.14908">
        <ele>2557.4</ele>
        <time>2016-02-27T10:37:48Z</time>
      </trkpt>
      <trkpt lat="45.2975" lon="6.14915">
        <ele>2556.9</ele>
        <time>2016-02-27T10:37:49Z</time>
      </trkpt>
      <trkpt lat="45.29749" lon="6.14922">
        <ele>2555.1</ele>
        <time>2016-02-27T10:37:50Z</time>
      </trkpt>
      <trkpt lat="45.29748" lon="6.14928">
        <ele>2553.8</ele>
        <time>2016-02-27T10:37:51Z</time>
      </trkpt>
      <trkpt lat="45.29748" lon="6.14935">
        <ele>2550.8</ele>
        <time>2016-02-27T10:37:52Z</time>
      </trkpt>
      <trkpt lat="45.29746" lon="6.14942">
        <ele>2548.7</ele>
        <time>2016-02-27T10:37:53Z</time>
      </trkpt>
      <trkpt lat="45.29746" lon="6.14949">
        <ele>2546.8</ele>
        <time>2016-02-27T10:37:54Z</time>
      </trkpt>
      <trkpt lat="45.29745" lon="6.14961">
        <ele>2544.3</ele>
        <time>2016-02-27T10:37:56Z</time>
      </trkpt>
      <trkpt lat="45.29744" lon="6.14974">
        <ele>2541.7</ele>
        <time>2016-02-27T10:37:58Z</time>
      </trkpt>
      <trkpt lat="45.29742" lon="6.14985">
        <ele>2538</ele>
        <time>2016-02-27T10:38:00Z</time>
      </trkpt>
      <trkpt lat="45.29742" lon="6.14997">
        <ele>2535.6</ele>
        <time>2016-02-27T10:38:02Z</time>
      </trkpt>
      <trkpt lat="45.29741" lon="6.15008">
        <ele>2532.8</ele>
        <time>2016-02-27T10:38:04Z</time>
      </trkpt>
      <trkpt lat="45.29739" lon="6.1502">
        <ele>2530.1</ele>
        <time>2016-02-27T10:38:06Z</time>
      </trkpt>
      <trkpt lat="45.29735" lon="6.15028">
        <ele>2528.3</ele>
        <time>2016-02-27T10:38:08Z</time>
      </trkpt>
      <trkpt lat="45.29734" lon="6.15039">
        <ele>2520</ele>
        <time>2016-02-27T10:38:31Z</time>
      </trkpt>
      <trkpt lat="45.29733" lon="6.15051">
        <ele>2520.3</ele>
        <time>2016-02-27T10:38:35Z</time>
      </trkpt>
      <trkpt lat="45.29732" lon="6.15063">
        <ele>2520.1</ele>
        <time>2016-02-27T10:38:37Z</time>
      </trkpt>
      <trkpt lat="45.29732" lon="6.15071">
        <ele>2519.9</ele>
        <time>2016-02-27T10:38:38Z</time>
      </trkpt>
      <trkpt lat="45.29731" lon="6.15079">
        <ele>2519</ele>
        <time>2016-02-27T10:38:39Z</time>
      </trkpt>
      <trkpt lat="45.29728" lon="6.15086">
        <ele>2518.4</ele>
        <time>2016-02-27T10:38:40Z</time>
      </trkpt>
      <trkpt lat="45.29727" lon="6.15093">
        <ele>2517.9</ele>
        <time>2016-02-27T10:38:41Z</time>
      </trkpt>
      <trkpt lat="45.29726" lon="6.151">
        <ele>2516.8</ele>
        <time>2016-02-27T10:38:42Z</time>
      </trkpt>
      <trkpt lat="45.29724" lon="6.15106">
        <ele>2516</ele>
        <time>2016-02-27T10:38:43Z</time>
      </trkpt>
      <trkpt lat="45.29723" lon="6.15119">
        <ele>2513.3</ele>
        <time>2016-02-27T10:38:45Z</time>
      </trkpt>
      <trkpt lat="45.29722" lon="6.15131">
        <ele>2510.7</ele>
        <time>2016-02-27T10:38:47Z</time>
      </trkpt>
      <trkpt lat="45.2972" lon="6.15143">
        <ele>2507.8</ele>
        <time>2016-02-27T10:38:49Z</time>
      </trkpt>
      <trkpt lat="45.2972" lon="6.1515">
        <ele>2506.6</ele>
        <time>2016-02-27T10:38:50Z</time>
      </trkpt>
      <trkpt lat="45.2972" lon="6.15157">
        <ele>2505.2</ele>
        <time>2016-02-27T10:38:51Z</time>
      </trkpt>
      <trkpt lat="45.29719" lon="6.15164">
        <ele>2504.1</ele>
        <time>2016-02-27T10:38:52Z</time>
      </trkpt>
      <trkpt lat="45.29719" lon="6.15171">
        <ele>2503.3</ele>
        <time>2016-02-27T10:38:53Z</time>
      </trkpt>
      <trkpt lat="45.29718" lon="6.15178">
        <ele>2502.2</ele>
        <time>2016-02-27T10:38:54Z</time>
      </trkpt>
      <trkpt lat="45.29717" lon="6.15185">
        <ele>2501.4</ele>
        <time>2016-02-27T10:38:55Z</time>
      </trkpt>
      <trkpt lat="45.29716" lon="6.15192">
        <ele>2499.8</ele>
        <time>2016-02-27T10:38:56Z</time>
      </trkpt>
      <trkpt lat="45.29716" lon="6.15199">
        <ele>2498.5</ele>
        <time>2016-02-27T10:38:57Z</time>
      </trkpt>
      <trkpt lat="45.2971" lon="6.15223">
        <ele>2492</ele>
        <time>2016-02-27T10:39:00Z</time>
      </trkpt>
      <trkpt lat="45.29708" lon="6.15233">
        <ele>2489.8</ele>
        <time>2016-02-27T10:39:02Z</time>
      </trkpt>
      <trkpt lat="45.29707" lon="6.15239">
        <ele>2487.7</ele>
        <time>2016-02-27T10:39:03Z</time>
      </trkpt>
      <trkpt lat="45.29706" lon="6.15246">
        <ele>2486.2</ele>
        <time>2016-02-27T10:39:04Z</time>
      </trkpt>
      <trkpt lat="45.29705" lon="6.15251">
        <ele>2485.1</ele>
        <time>2016-02-27T10:39:05Z</time>
      </trkpt>
      <trkpt lat="45.29704" lon="6.15258">
        <ele>2483.9</ele>
        <time>2016-02-27T10:39:06Z</time>
      </trkpt>
      <trkpt lat="45.29703" lon="6.15265">
        <ele>2483</ele>
        <time>2016-02-27T10:39:07Z</time>
      </trkpt>
      <trkpt lat="45.29702" lon="6.15273">
        <ele>2481.7</ele>
        <time>2016-02-27T10:39:08Z</time>
      </trkpt>
      <trkpt lat="45.297" lon="6.1528">
        <ele>2480.8</ele>
        <time>2016-02-27T10:39:09Z</time>
      </trkpt>
      <trkpt lat="45.29699" lon="6.15287">
        <ele>2479.6</ele>
        <time>2016-02-27T10:39:10Z</time>
      </trkpt>
      <trkpt lat="45.29698" lon="6.15294">
        <ele>2478.7</ele>
        <time>2016-02-27T10:39:11Z</time>
      </trkpt>
      <trkpt lat="45.29696" lon="6.153">
        <ele>2478</ele>
        <time>2016-02-27T10:39:12Z</time>
      </trkpt>
      <trkpt lat="45.29695" lon="6.15307">
        <ele>2476.8</ele>
        <time>2016-02-27T10:39:13Z</time>
      </trkpt>
      <trkpt lat="45.29693" lon="6.15313">
        <ele>2475.8</ele>
        <time>2016-02-27T10:39:14Z</time>
      </trkpt>
      <trkpt lat="45.29691" lon="6.15319">
        <ele>2474.1</ele>
        <time>2016-02-27T10:39:15Z</time>
      </trkpt>
      <trkpt lat="45.29689" lon="6.15325">
        <ele>2472.8</ele>
        <time>2016-02-27T10:39:16Z</time>
      </trkpt>
      <trkpt lat="45.29688" lon="6.15333">
        <ele>2471.3</ele>
        <time>2016-02-27T10:39:17Z</time>
      </trkpt>
      <trkpt lat="45.29687" lon="6.1534">
        <ele>2470.1</ele>
        <time>2016-02-27T10:39:18Z</time>
      </trkpt>
      <trkpt lat="45.29686" lon="6.15348">
        <ele>2469.2</ele>
        <time>2016-02-27T10:39:19Z</time>
      </trkpt>
      <trkpt lat="45.29684" lon="6.15355">
        <ele>2468.1</ele>
        <time>2016-02-27T10:39:20Z</time>
      </trkpt>
      <trkpt lat="45.29683" lon="6.15362">
        <ele>2467.2</ele>
        <time>2016-02-27T10:39:21Z</time>
      </trkpt>
      <trkpt lat="45.29679" lon="6.15373">
        <ele>2464.4</ele>
        <time>2016-02-27T10:39:23Z</time>
      </trkpt>
      <trkpt lat="45.29675" lon="6.15385">
        <ele>2463.2</ele>
        <time>2016-02-27T10:39:25Z</time>
      </trkpt>
      <trkpt lat="45.29673" lon="6.15391">
        <ele>2462.9</ele>
        <time>2016-02-27T10:39:26Z</time>
      </trkpt>
      <trkpt lat="45.2967" lon="6.15397">
        <ele>2462</ele>
        <time>2016-02-27T10:39:27Z</time>
      </trkpt>
      <trkpt lat="45.29667" lon="6.15404">
        <ele>2461.3</ele>
        <time>2016-02-27T10:39:28Z</time>
      </trkpt>
      <trkpt lat="45.29664" lon="6.15409">
        <ele>2459.9</ele>
        <time>2016-02-27T10:39:29Z</time>
      </trkpt>
      <trkpt lat="45.29659" lon="6.15419">
        <ele>2458</ele>
        <time>2016-02-27T10:39:31Z</time>
      </trkpt>
      <trkpt lat="45.29656" lon="6.15427">
        <ele>2456.9</ele>
        <time>2016-02-27T10:39:33Z</time>
      </trkpt>
      <trkpt lat="45.29651" lon="6.15436">
        <ele>2455.2</ele>
        <time>2016-02-27T10:39:36Z</time>
      </trkpt>
      <trkpt lat="45.29647" lon="6.15442">
        <ele>2454.4</ele>
        <time>2016-02-27T10:39:38Z</time>
      </trkpt>
      <trkpt lat="45.29642" lon="6.15449">
        <ele>2453.5</ele>
        <time>2016-02-27T10:39:40Z</time>
      </trkpt>
      <trkpt lat="45.29637" lon="6.15457">
        <ele>2452.5</ele>
        <time>2016-02-27T10:39:42Z</time>
      </trkpt>
      <trkpt lat="45.29633" lon="6.15468">
        <ele>2451.7</ele>
        <time>2016-02-27T10:39:44Z</time>
      </trkpt>
      <trkpt lat="45.2963" lon="6.15474">
        <ele>2451.3</ele>
        <time>2016-02-27T10:39:45Z</time>
      </trkpt>
      <trkpt lat="45.29627" lon="6.1548">
        <ele>2450.6</ele>
        <time>2016-02-27T10:39:46Z</time>
      </trkpt>
      <trkpt lat="45.29624" lon="6.15488">
        <ele>2450.1</ele>
        <time>2016-02-27T10:39:47Z</time>
      </trkpt>
      <trkpt lat="45.29622" lon="6.15495">
        <ele>2449.1</ele>
        <time>2016-02-27T10:39:48Z</time>
      </trkpt>
      <trkpt lat="45.2962" lon="6.15502">
        <ele>2448.4</ele>
        <time>2016-02-27T10:39:49Z</time>
      </trkpt>
      <trkpt lat="45.29618" lon="6.15509">
        <ele>2447.9</ele>
        <time>2016-02-27T10:39:50Z</time>
      </trkpt>
      <trkpt lat="45.29617" lon="6.15517">
        <ele>2446.6</ele>
        <time>2016-02-27T10:39:51Z</time>
      </trkpt>
      <trkpt lat="45.29617" lon="6.15524">
        <ele>2445.7</ele>
        <time>2016-02-27T10:39:52Z</time>
      </trkpt>
      <trkpt lat="45.29617" lon="6.1553">
        <ele>2444.5</ele>
        <time>2016-02-27T10:39:53Z</time>
      </trkpt>
      <trkpt lat="45.2962" lon="6.15536">
        <ele>2443.7</ele>
        <time>2016-02-27T10:39:54Z</time>
      </trkpt>
      <trkpt lat="45.29622" lon="6.15543">
        <ele>2441.8</ele>
        <time>2016-02-27T10:39:55Z</time>
      </trkpt>
      <trkpt lat="45.29625" lon="6.15548">
        <ele>2440.4</ele>
        <time>2016-02-27T10:39:56Z</time>
      </trkpt>
      <trkpt lat="45.29628" lon="6.1556">
        <ele>2438.1</ele>
        <time>2016-02-27T10:39:58Z</time>
      </trkpt>
      <trkpt lat="45.2963" lon="6.15572">
        <ele>2435.9</ele>
        <time>2016-02-27T10:40:00Z</time>
      </trkpt>
      <trkpt lat="45.29632" lon="6.15578">
        <ele>2435</ele>
        <time>2016-02-27T10:40:01Z</time>
      </trkpt>
      <trkpt lat="45.29633" lon="6.15585">
        <ele>2434.3</ele>
        <time>2016-02-27T10:40:02Z</time>
      </trkpt>
      <trkpt lat="45.29635" lon="6.15592">
        <ele>2431.9</ele>
        <time>2016-02-27T10:40:03Z</time>
      </trkpt>
      <trkpt lat="45.29635" lon="6.15599">
        <ele>2430</ele>
        <time>2016-02-27T10:40:04Z</time>
      </trkpt>
      <trkpt lat="45.29636" lon="6.15606">
        <ele>2427.9</ele>
        <time>2016-02-27T10:40:05Z</time>
      </trkpt>
      <trkpt lat="45.29637" lon="6.15613">
        <ele>2426.3</ele>
        <time>2016-02-27T10:40:06Z</time>
      </trkpt>
      <trkpt lat="45.29638" lon="6.1562">
        <ele>2424.4</ele>
        <time>2016-02-27T10:40:07Z</time>
      </trkpt>
      <trkpt lat="45.29639" lon="6.15626">
        <ele>2423</ele>
        <time>2016-02-27T10:40:08Z</time>
      </trkpt>
      <trkpt lat="45.29639" lon="6.15633">
        <ele>2421.9</ele>
        <time>2016-02-27T10:40:09Z</time>
      </trkpt>
      <trkpt lat="45.29639" lon="6.15639">
        <ele>2421</ele>
        <time>2016-02-27T10:40:10Z</time>
      </trkpt>
      <trkpt lat="45.29638" lon="6.15646">
        <ele>2420.4</ele>
        <time>2016-02-27T10:40:11Z</time>
      </trkpt>
      <trkpt lat="45.29639" lon="6.15654">
        <ele>2419</ele>
        <time>2016-02-27T10:40:12Z</time>
      </trkpt>
      <trkpt lat="45.29639" lon="6.15663">
        <ele>2418</ele>
        <time>2016-02-27T10:40:13Z</time>
      </trkpt>
      <trkpt lat="45.29639" lon="6.15672">
        <ele>2416.2</ele>
        <time>2016-02-27T10:40:14Z</time>
      </trkpt>
      <trkpt lat="45.29639" lon="6.15681">
        <ele>2414.8</ele>
        <time>2016-02-27T10:40:15Z</time>
      </trkpt>
      <trkpt lat="45.29639" lon="6.1569">
        <ele>2413.8</ele>
        <time>2016-02-27T10:40:16Z</time>
      </trkpt>
      <trkpt lat="45.29639" lon="6.15699">
        <ele>2412.5</ele>
        <time>2016-02-27T10:40:17Z</time>
      </trkpt>
      <trkpt lat="45.29639" lon="6.15709">
        <ele>2411.5</ele>
        <time>2016-02-27T10:40:18Z</time>
      </trkpt>
      <trkpt lat="45.29638" lon="6.15719">
        <ele>2409.8</ele>
        <time>2016-02-27T10:40:19Z</time>
      </trkpt>
      <trkpt lat="45.29637" lon="6.15728">
        <ele>2408.5</ele>
        <time>2016-02-27T10:40:20Z</time>
      </trkpt>
      <trkpt lat="45.29637" lon="6.15736">
        <ele>2407.5</ele>
        <time>2016-02-27T10:40:21Z</time>
      </trkpt>
      <trkpt lat="45.29637" lon="6.15743">
        <ele>2405.9</ele>
        <time>2016-02-27T10:40:22Z</time>
      </trkpt>
      <trkpt lat="45.29638" lon="6.15755">
        <ele>2403.5</ele>
        <time>2016-02-27T10:40:24Z</time>
      </trkpt>
      <trkpt lat="45.2964" lon="6.15766">
        <ele>2401.8</ele>
        <time>2016-02-27T10:40:26Z</time>
      </trkpt>
      <trkpt lat="45.29642" lon="6.15778">
        <ele>2400.8</ele>
        <time>2016-02-27T10:40:28Z</time>
      </trkpt>
      <trkpt lat="45.29643" lon="6.15789">
        <ele>2399</ele>
        <time>2016-02-27T10:40:30Z</time>
      </trkpt>
      <trkpt lat="45.29644" lon="6.15796">
        <ele>2397.9</ele>
        <time>2016-02-27T10:40:31Z</time>
      </trkpt>
      <trkpt lat="45.29645" lon="6.15808">
        <ele>2395.1</ele>
        <time>2016-02-27T10:40:33Z</time>
      </trkpt>
      <trkpt lat="45.29646" lon="6.15815">
        <ele>2393.7</ele>
        <time>2016-02-27T10:40:34Z</time>
      </trkpt>
      <trkpt lat="45.29643" lon="6.15826">
        <ele>2389.9</ele>
        <time>2016-02-27T10:40:36Z</time>
      </trkpt>
      <trkpt lat="45.29641" lon="6.15836">
        <ele>2386.1</ele>
        <time>2016-02-27T10:40:38Z</time>
      </trkpt>
      <trkpt lat="45.29641" lon="6.15848">
        <ele>2383.8</ele>
        <time>2016-02-27T10:40:40Z</time>
      </trkpt>
      <trkpt lat="45.29639" lon="6.15854">
        <ele>2382.2</ele>
        <time>2016-02-27T10:40:41Z</time>
      </trkpt>
      <trkpt lat="45.29636" lon="6.1586">
        <ele>2380.9</ele>
        <time>2016-02-27T10:40:42Z</time>
      </trkpt>
      <trkpt lat="45.29633" lon="6.15868">
        <ele>2378.8</ele>
        <time>2016-02-27T10:40:43Z</time>
      </trkpt>
      <trkpt lat="45.29631" lon="6.1588">
        <ele>2375.9</ele>
        <time>2016-02-27T10:40:45Z</time>
      </trkpt>
      <trkpt lat="45.29632" lon="6.1589">
        <ele>2374</ele>
        <time>2016-02-27T10:40:47Z</time>
      </trkpt>
      <trkpt lat="45.29632" lon="6.15902">
        <ele>2371.7</ele>
        <time>2016-02-27T10:40:50Z</time>
      </trkpt>
      <trkpt lat="45.29632" lon="6.15914">
        <ele>2370.3</ele>
        <time>2016-02-27T10:40:53Z</time>
      </trkpt>
      <trkpt lat="45.29631" lon="6.15926">
        <ele>2369.2</ele>
        <time>2016-02-27T10:40:56Z</time>
      </trkpt>
      <trkpt lat="45.2963" lon="6.15932">
        <ele>2368.7</ele>
        <time>2016-02-27T10:40:57Z</time>
      </trkpt>
      <trkpt lat="45.29633" lon="6.15945">
        <ele>2368</ele>
        <time>2016-02-27T10:40:59Z</time>
      </trkpt>
      <trkpt lat="45.29636" lon="6.15956">
        <ele>2367.6</ele>
        <time>2016-02-27T10:41:01Z</time>
      </trkpt>
      <trkpt lat="45.29639" lon="6.15966">
        <ele>2366.4</ele>
        <time>2016-02-27T10:41:03Z</time>
      </trkpt>
      <trkpt lat="45.29641" lon="6.15977">
        <ele>2365.3</ele>
        <time>2016-02-27T10:41:06Z</time>
      </trkpt>
      <trkpt lat="45.29642" lon="6.15988">
        <ele>2362.7</ele>
        <time>2016-02-27T10:41:16Z</time>
      </trkpt>
      <trkpt lat="45.29643" lon="6.16001">
        <ele>2362.8</ele>
        <time>2016-02-27T10:41:30Z</time>
      </trkpt>
      <trkpt lat="45.29643" lon="6.16012">
        <ele>2363.1</ele>
        <time>2016-02-27T10:41:38Z</time>
      </trkpt>
      <trkpt lat="45.29642" lon="6.16023">
        <ele>2362.8</ele>
        <time>2016-02-27T10:41:44Z</time>
      </trkpt>
      <trkpt lat="45.29642" lon="6.16034">
        <ele>2364.9</ele>
        <time>2016-02-27T10:41:49Z</time>
      </trkpt>
      <trkpt lat="45.29641" lon="6.16046">
        <ele>2364.3</ele>
        <time>2016-02-27T10:41:53Z</time>
      </trkpt>
      <trkpt lat="45.29639" lon="6.16058">
        <ele>2360.6</ele>
        <time>2016-02-27T10:42:34Z</time>
      </trkpt>
      <trkpt lat="45.29639" lon="6.16062">
        <ele>2361</ele>
        <time>2016-02-27T10:42:35Z</time>
      </trkpt>
      <trkpt lat="45.29637" lon="6.16079">
        <ele>2359.8</ele>
        <time>2016-02-27T10:42:38Z</time>
      </trkpt>
      <trkpt lat="45.29636" lon="6.16092">
        <ele>2357.4</ele>
        <time>2016-02-27T10:42:40Z</time>
      </trkpt>
      <trkpt lat="45.29636" lon="6.16098">
        <ele>2356.6</ele>
        <time>2016-02-27T10:42:41Z</time>
      </trkpt>
      <trkpt lat="45.29636" lon="6.16111">
        <ele>2352.9</ele>
        <time>2016-02-27T10:42:43Z</time>
      </trkpt>
      <trkpt lat="45.29638" lon="6.16117">
        <ele>2351.2</ele>
        <time>2016-02-27T10:42:44Z</time>
      </trkpt>
      <trkpt lat="45.29638" lon="6.16124">
        <ele>2349.9</ele>
        <time>2016-02-27T10:42:45Z</time>
      </trkpt>
      <trkpt lat="45.2964" lon="6.1613">
        <ele>2347.6</ele>
        <time>2016-02-27T10:42:46Z</time>
      </trkpt>
      <trkpt lat="45.2964" lon="6.16138">
        <ele>2345.8</ele>
        <time>2016-02-27T10:42:47Z</time>
      </trkpt>
      <trkpt lat="45.29641" lon="6.16147">
        <ele>2344.5</ele>
        <time>2016-02-27T10:42:48Z</time>
      </trkpt>
      <trkpt lat="45.2964" lon="6.16156">
        <ele>2342.4</ele>
        <time>2016-02-27T10:42:49Z</time>
      </trkpt>
      <trkpt lat="45.29641" lon="6.16165">
        <ele>2340.8</ele>
        <time>2016-02-27T10:42:50Z</time>
      </trkpt>
      <trkpt lat="45.29642" lon="6.16174">
        <ele>2338.7</ele>
        <time>2016-02-27T10:42:51Z</time>
      </trkpt>
      <trkpt lat="45.29642" lon="6.16183">
        <ele>2337.2</ele>
        <time>2016-02-27T10:42:52Z</time>
      </trkpt>
      <trkpt lat="45.29643" lon="6.1619">
        <ele>2335.3</ele>
        <time>2016-02-27T10:42:53Z</time>
      </trkpt>
      <trkpt lat="45.29644" lon="6.16202">
        <ele>2332.8</ele>
        <time>2016-02-27T10:42:55Z</time>
      </trkpt>
      <trkpt lat="45.29644" lon="6.16211">
        <ele>2330.6</ele>
        <time>2016-02-27T10:42:57Z</time>
      </trkpt>
      <trkpt lat="45.29645" lon="6.16223">
        <ele>2330</ele>
        <time>2016-02-27T10:43:00Z</time>
      </trkpt>
      <trkpt lat="45.29645" lon="6.16233">
        <ele>2328.4</ele>
        <time>2016-02-27T10:43:03Z</time>
      </trkpt>
      <trkpt lat="45.29646" lon="6.16244">
        <ele>2327.6</ele>
        <time>2016-02-27T10:43:06Z</time>
      </trkpt>
      <trkpt lat="45.29646" lon="6.16252">
        <ele>2327.4</ele>
        <time>2016-02-27T10:43:08Z</time>
      </trkpt>
      <trkpt lat="45.29649" lon="6.1626">
        <ele>2326.5</ele>
        <time>2016-02-27T10:43:10Z</time>
      </trkpt>
      <trkpt lat="45.29652" lon="6.16267">
        <ele>2325.7</ele>
        <time>2016-02-27T10:43:12Z</time>
      </trkpt>
      <trkpt lat="45.29657" lon="6.16278">
        <ele>2324.5</ele>
        <time>2016-02-27T10:43:15Z</time>
      </trkpt>
      <trkpt lat="45.29661" lon="6.16289">
        <ele>2323.2</ele>
        <time>2016-02-27T10:43:18Z</time>
      </trkpt>
      <trkpt lat="45.29663" lon="6.16296">
        <ele>2321.9</ele>
        <time>2016-02-27T10:43:20Z</time>
      </trkpt>
      <trkpt lat="45.29667" lon="6.16307">
        <ele>2321.8</ele>
        <time>2016-02-27T10:43:23Z</time>
      </trkpt>
      <trkpt lat="45.29672" lon="6.16317">
        <ele>2320.9</ele>
        <time>2016-02-27T10:43:27Z</time>
      </trkpt>
      <trkpt lat="45.29679" lon="6.16325">
        <ele>2316.1</ele>
        <time>2016-02-27T10:43:58Z</time>
      </trkpt>
      <trkpt lat="45.2968" lon="6.16325">
        <ele>2316.2</ele>
        <time>2016-02-27T10:43:59Z</time>
      </trkpt>
      <trkpt lat="45.29695" lon="6.16321">
        <ele>2314.2</ele>
        <time>2016-02-27T10:44:05Z</time>
      </trkpt>
      <trkpt lat="45.29703" lon="6.16319">
        <ele>2312</ele>
        <time>2016-02-27T10:44:08Z</time>
      </trkpt>
      <trkpt lat="45.29711" lon="6.16317">
        <ele>2310.1</ele>
        <time>2016-02-27T10:44:11Z</time>
      </trkpt>
      <trkpt lat="45.2972" lon="6.16316">
        <ele>2306.8</ele>
        <time>2016-02-27T10:44:14Z</time>
      </trkpt>
      <trkpt lat="45.29727" lon="6.16319">
        <ele>2306</ele>
        <time>2016-02-27T10:44:18Z</time>
      </trkpt>
      <trkpt lat="45.29736" lon="6.16322">
        <ele>2302.8</ele>
        <time>2016-02-27T10:44:34Z</time>
      </trkpt>
      <trkpt lat="45.29743" lon="6.16319">
        <ele>2302.2</ele>
        <time>2016-02-27T10:44:42Z</time>
      </trkpt>
      <trkpt lat="45.29748" lon="6.1631">
        <ele>2301.7</ele>
        <time>2016-02-27T10:44:45Z</time>
      </trkpt>
      <trkpt lat="45.29752" lon="6.16301">
        <ele>2300.8</ele>
        <time>2016-02-27T10:44:47Z</time>
      </trkpt>
      <trkpt lat="45.29758" lon="6.16291">
        <ele>2299.6</ele>
        <time>2016-02-27T10:44:49Z</time>
      </trkpt>
      <trkpt lat="45.29761" lon="6.16287">
        <ele>2298.6</ele>
        <time>2016-02-27T10:44:50Z</time>
      </trkpt>
      <trkpt lat="45.29765" lon="6.16282">
        <ele>2297.8</ele>
        <time>2016-02-27T10:44:51Z</time>
      </trkpt>
      <trkpt lat="45.29768" lon="6.16277">
        <ele>2296.4</ele>
        <time>2016-02-27T10:44:52Z</time>
      </trkpt>
      <trkpt lat="45.29771" lon="6.16272">
        <ele>2295.4</ele>
        <time>2016-02-27T10:44:53Z</time>
      </trkpt>
      <trkpt lat="45.29775" lon="6.16268">
        <ele>2293.8</ele>
        <time>2016-02-27T10:44:54Z</time>
      </trkpt>
      <trkpt lat="45.29779" lon="6.16263">
        <ele>2292.6</ele>
        <time>2016-02-27T10:44:55Z</time>
      </trkpt>
      <trkpt lat="45.29783" lon="6.16259">
        <ele>2291.8</ele>
        <time>2016-02-27T10:44:56Z</time>
      </trkpt>
      <trkpt lat="45.29791" lon="6.16254">
        <ele>2290.3</ele>
        <time>2016-02-27T10:44:58Z</time>
      </trkpt>
      <trkpt lat="45.29799" lon="6.16253">
        <ele>2286.7</ele>
        <time>2016-02-27T10:45:03Z</time>
      </trkpt>
      <trkpt lat="45.298" lon="6.16256">
        <ele>2286.1</ele>
        <time>2016-02-27T10:45:04Z</time>
      </trkpt>
      <trkpt lat="45.29808" lon="6.16272">
        <ele>2284</ele>
        <time>2016-02-27T10:45:08Z</time>
      </trkpt>
      <trkpt lat="45.29812" lon="6.16283">
        <ele>2280.1</ele>
        <time>2016-02-27T10:45:10Z</time>
      </trkpt>
      <trkpt lat="45.29814" lon="6.16294">
        <ele>2275.9</ele>
        <time>2016-02-27T10:45:12Z</time>
      </trkpt>
      <trkpt lat="45.29816" lon="6.16305">
        <ele>2271.9</ele>
        <time>2016-02-27T10:45:14Z</time>
      </trkpt>
      <trkpt lat="45.29817" lon="6.16311">
        <ele>2270.6</ele>
        <time>2016-02-27T10:45:15Z</time>
      </trkpt>
      <trkpt lat="45.29817" lon="6.16318">
        <ele>2268.6</ele>
        <time>2016-02-27T10:45:16Z</time>
      </trkpt>
      <trkpt lat="45.29818" lon="6.16325">
        <ele>2267.1</ele>
        <time>2016-02-27T10:45:17Z</time>
      </trkpt>
      <trkpt lat="45.29819" lon="6.16332">
        <ele>2264.3</ele>
        <time>2016-02-27T10:45:18Z</time>
      </trkpt>
      <trkpt lat="45.2982" lon="6.16339">
        <ele>2262.2</ele>
        <time>2016-02-27T10:45:19Z</time>
      </trkpt>
      <trkpt lat="45.29822" lon="6.16346">
        <ele>2260.7</ele>
        <time>2016-02-27T10:45:20Z</time>
      </trkpt>
      <trkpt lat="45.29825" lon="6.16352">
        <ele>2258.3</ele>
        <time>2016-02-27T10:45:21Z</time>
      </trkpt>
      <trkpt lat="45.29827" lon="6.16359">
        <ele>2256.5</ele>
        <time>2016-02-27T10:45:22Z</time>
      </trkpt>
      <trkpt lat="45.29831" lon="6.16366">
        <ele>2254.5</ele>
        <time>2016-02-27T10:45:23Z</time>
      </trkpt>
      <trkpt lat="45.29835" lon="6.16373">
        <ele>2253</ele>
        <time>2016-02-27T10:45:24Z</time>
      </trkpt>
      <trkpt lat="45.29839" lon="6.16379">
        <ele>2250.9</ele>
        <time>2016-02-27T10:45:25Z</time>
      </trkpt>
      <trkpt lat="45.29842" lon="6.16385">
        <ele>2249.3</ele>
        <time>2016-02-27T10:45:26Z</time>
      </trkpt>
      <trkpt lat="45.29845" lon="6.16391">
        <ele>2248.1</ele>
        <time>2016-02-27T10:45:27Z</time>
      </trkpt>
      <trkpt lat="45.29848" lon="6.16398">
        <ele>2246.9</ele>
        <time>2016-02-27T10:45:28Z</time>
      </trkpt>
      <trkpt lat="45.29851" lon="6.16405">
        <ele>2246.1</ele>
        <time>2016-02-27T10:45:29Z</time>
      </trkpt>
      <trkpt lat="45.29854" lon="6.16417">
        <ele>2243.7</ele>
        <time>2016-02-27T10:45:31Z</time>
      </trkpt>
      <trkpt lat="45.29856" lon="6.16425">
        <ele>2240.7</ele>
        <time>2016-02-27T10:45:33Z</time>
      </trkpt>
      <trkpt lat="45.29859" lon="6.16435">
        <ele>2239.1</ele>
        <time>2016-02-27T10:45:35Z</time>
      </trkpt>
      <trkpt lat="45.29862" lon="6.16446">
        <ele>2237.5</ele>
        <time>2016-02-27T10:45:37Z</time>
      </trkpt>
      <trkpt lat="45.29864" lon="6.16452">
        <ele>2236.6</ele>
        <time>2016-02-27T10:45:38Z</time>
      </trkpt>
      <trkpt lat="45.29865" lon="6.16459">
        <ele>2235.9</ele>
        <time>2016-02-27T10:45:39Z</time>
      </trkpt>
      <trkpt lat="45.29866" lon="6.16466">
        <ele>2235.3</ele>
        <time>2016-02-27T10:45:40Z</time>
      </trkpt>
      <trkpt lat="45.29869" lon="6.16478">
        <ele>2233.9</ele>
        <time>2016-02-27T10:45:42Z</time>
      </trkpt>
      <trkpt lat="45.29873" lon="6.16487">
        <ele>2230.7</ele>
        <time>2016-02-27T10:45:47Z</time>
      </trkpt>
      <trkpt lat="45.29878" lon="6.16495">
        <ele>2229.5</ele>
        <time>2016-02-27T10:45:51Z</time>
      </trkpt>
      <trkpt lat="45.29884" lon="6.16502">
        <ele>2228.2</ele>
        <time>2016-02-27T10:45:54Z</time>
      </trkpt>
      <trkpt lat="45.2989" lon="6.16509">
        <ele>2227.8</ele>
        <time>2016-02-27T10:45:56Z</time>
      </trkpt>
      <trkpt lat="45.29896" lon="6.16518">
        <ele>2227.9</ele>
        <time>2016-02-27T10:45:58Z</time>
      </trkpt>
      <trkpt lat="45.29899" lon="6.16523">
        <ele>2227</ele>
        <time>2016-02-27T10:45:59Z</time>
      </trkpt>
      <trkpt lat="45.29905" lon="6.16531">
        <ele>2225.2</ele>
        <time>2016-02-27T10:46:01Z</time>
      </trkpt>
      <trkpt lat="45.29911" lon="6.16539">
        <ele>2223</ele>
        <time>2016-02-27T10:46:03Z</time>
      </trkpt>
      <trkpt lat="45.29919" lon="6.16546">
        <ele>2216.8</ele>
        <time>2016-02-27T10:46:51Z</time>
      </trkpt>
      <trkpt lat="45.29919" lon="6.16547">
        <ele>2216.8</ele>
        <time>2016-02-27T10:46:52Z</time>
      </trkpt>
      <trkpt lat="45.29928" lon="6.1655">
        <ele>2215.6</ele>
        <time>2016-02-27T10:50:42Z</time>
      </trkpt>
      <trkpt lat="45.29941" lon="6.16551">
        <ele>2213.8</ele>
        <time>2016-02-27T10:50:47Z</time>
      </trkpt>
      <trkpt lat="45.29946" lon="6.16559">
        <ele>2212.2</ele>
        <time>2016-02-27T10:50:49Z</time>
      </trkpt>
      <trkpt lat="45.29952" lon="6.16566">
        <ele>2210.2</ele>
        <time>2016-02-27T10:50:51Z</time>
      </trkpt>
      <trkpt lat="45.29958" lon="6.16568">
        <ele>2207.9</ele>
        <time>2016-02-27T10:50:53Z</time>
      </trkpt>
      <trkpt lat="45.29966" lon="6.16571">
        <ele>2205.6</ele>
        <time>2016-02-27T10:50:56Z</time>
      </trkpt>
      <trkpt lat="45.29972" lon="6.16575">
        <ele>2204.4</ele>
        <time>2016-02-27T10:50:58Z</time>
      </trkpt>
      <trkpt lat="45.29979" lon="6.16589">
        <ele>2198</ele>
        <time>2016-02-27T10:51:02Z</time>
      </trkpt>
      <trkpt lat="45.29979" lon="6.166">
        <ele>2194.9</ele>
        <time>2016-02-27T10:51:05Z</time>
      </trkpt>
      <trkpt lat="45.29978" lon="6.16609">
        <ele>2191</ele>
        <time>2016-02-27T10:51:07Z</time>
      </trkpt>
      <trkpt lat="45.29975" lon="6.16619">
        <ele>2186.6</ele>
        <time>2016-02-27T10:51:09Z</time>
      </trkpt>
      <trkpt lat="45.29978" lon="6.16629">
        <ele>2181.5</ele>
        <time>2016-02-27T10:51:12Z</time>
      </trkpt>
      <trkpt lat="45.2998" lon="6.1664">
        <ele>2176</ele>
        <time>2016-02-27T10:51:15Z</time>
      </trkpt>
      <trkpt lat="45.29983" lon="6.16651">
        <ele>2171.1</ele>
        <time>2016-02-27T10:51:18Z</time>
      </trkpt>
      <trkpt lat="45.29983" lon="6.16659">
        <ele>2166.7</ele>
        <time>2016-02-27T10:51:20Z</time>
      </trkpt>
      <trkpt lat="45.29986" lon="6.16668">
        <ele>2163.2</ele>
        <time>2016-02-27T10:51:22Z</time>
      </trkpt>
      <trkpt lat="45.29989" lon="6.16676">
        <ele>2160.1</ele>
        <time>2016-02-27T10:51:24Z</time>
      </trkpt>
      <trkpt lat="45.29991" lon="6.16688">
        <ele>2154.3</ele>
        <time>2016-02-27T10:51:27Z</time>
      </trkpt>
      <trkpt lat="45.29992" lon="6.167">
        <ele>2149</ele>
        <time>2016-02-27T10:51:30Z</time>
      </trkpt>
      <trkpt lat="45.29992" lon="6.16709">
        <ele>2145</ele>
        <time>2016-02-27T10:51:32Z</time>
      </trkpt>
      <trkpt lat="45.29992" lon="6.16719">
        <ele>2141</ele>
        <time>2016-02-27T10:51:34Z</time>
      </trkpt>
      <trkpt lat="45.29996" lon="6.16728">
        <ele>2137.8</ele>
        <time>2016-02-27T10:51:36Z</time>
      </trkpt>
      <trkpt lat="45.29999" lon="6.16739">
        <ele>2132.8</ele>
        <time>2016-02-27T10:51:39Z</time>
      </trkpt>
      <trkpt lat="45.30008" lon="6.16739">
        <ele>2122.9</ele>
        <time>2016-02-27T10:51:57Z</time>
      </trkpt>
      <trkpt lat="45.30008" lon="6.16739">
        <ele>2123.5</ele>
        <time>2016-02-27T10:51:58Z</time>
      </trkpt>
      <trkpt lat="45.30016" lon="6.16754">
        <ele>2120.8</ele>
        <time>2016-02-27T10:52:26Z</time>
      </trkpt>
      <trkpt lat="45.30017" lon="6.16765">
        <ele>2118.8</ele>
        <time>2016-02-27T10:52:28Z</time>
      </trkpt>
      <trkpt lat="45.30021" lon="6.16775">
        <ele>2115</ele>
        <time>2016-02-27T10:52:30Z</time>
      </trkpt>
      <trkpt lat="45.30022" lon="6.16786">
        <ele>2110.6</ele>
        <time>2016-02-27T10:52:32Z</time>
      </trkpt>
      <trkpt lat="45.30023" lon="6.16797">
        <ele>2107</ele>
        <time>2016-02-27T10:52:34Z</time>
      </trkpt>
      <trkpt lat="45.30025" lon="6.16809">
        <ele>2102.1</ele>
        <time>2016-02-27T10:52:36Z</time>
      </trkpt>
      <trkpt lat="45.30026" lon="6.16821">
        <ele>2095.9</ele>
        <time>2016-02-27T10:52:38Z</time>
      </trkpt>
      <trkpt lat="45.30028" lon="6.16833">
        <ele>2091.1</ele>
        <time>2016-02-27T10:52:40Z</time>
      </trkpt>
      <trkpt lat="45.3003" lon="6.16845">
        <ele>2085.9</ele>
        <time>2016-02-27T10:52:42Z</time>
      </trkpt>
      <trkpt lat="45.3003" lon="6.16856">
        <ele>2080.8</ele>
        <time>2016-02-27T10:52:44Z</time>
      </trkpt>
      <trkpt lat="45.30029" lon="6.16868">
        <ele>2077.1</ele>
        <time>2016-02-27T10:52:46Z</time>
      </trkpt>
      <trkpt lat="45.30033" lon="6.16877">
        <ele>2072.6</ele>
        <time>2016-02-27T10:52:48Z</time>
      </trkpt>
      <trkpt lat="45.30033" lon="6.16887">
        <ele>2066.8</ele>
        <time>2016-02-27T10:52:50Z</time>
      </trkpt>
      <trkpt lat="45.30038" lon="6.16896">
        <ele>2062.1</ele>
        <time>2016-02-27T10:52:52Z</time>
      </trkpt>
      <trkpt lat="45.30035" lon="6.16905">
        <ele>2058.2</ele>
        <time>2016-02-27T10:52:54Z</time>
      </trkpt>
      <trkpt lat="45.30035" lon="6.16915">
        <ele>2053.9</ele>
        <time>2016-02-27T10:52:56Z</time>
      </trkpt>
      <trkpt lat="45.30035" lon="6.16926">
        <ele>2050.5</ele>
        <time>2016-02-27T10:52:58Z</time>
      </trkpt>
      <trkpt lat="45.30033" lon="6.16929">
        <ele>2048.2</ele>
        <time>2016-02-27T10:52:59Z</time>
      </trkpt>
      <trkpt lat="45.30029" lon="6.16943">
        <ele>2041.8</ele>
        <time>2016-02-27T10:53:02Z</time>
      </trkpt>
      <trkpt lat="45.3003" lon="6.16955">
        <ele>2028.5</ele>
        <time>2016-02-27T10:53:49Z</time>
      </trkpt>
      <trkpt lat="45.30028" lon="6.16964">
        <ele>2027</ele>
        <time>2016-02-27T10:53:52Z</time>
      </trkpt>
      <trkpt lat="45.30026" lon="6.16976">
        <ele>2024.2</ele>
        <time>2016-02-27T10:53:55Z</time>
      </trkpt>
      <trkpt lat="45.30025" lon="6.16985">
        <ele>2021.9</ele>
        <time>2016-02-27T10:53:57Z</time>
      </trkpt>
      <trkpt lat="45.30028" lon="6.16997">
        <ele>2016.1</ele>
        <time>2016-02-27T10:54:00Z</time>
      </trkpt>
      <trkpt lat="45.30028" lon="6.17002">
        <ele>2014.9</ele>
        <time>2016-02-27T10:54:01Z</time>
      </trkpt>
      <trkpt lat="45.30026" lon="6.17016">
        <ele>2010.5</ele>
        <time>2016-02-27T10:54:04Z</time>
      </trkpt>
      <trkpt lat="45.30025" lon="6.17027">
        <ele>2007.2</ele>
        <time>2016-02-27T10:54:06Z</time>
      </trkpt>
      <trkpt lat="45.30023" lon="6.17037">
        <ele>2003.3</ele>
        <time>2016-02-27T10:54:08Z</time>
      </trkpt>
      <trkpt lat="45.30023" lon="6.17047">
        <ele>1999.9</ele>
        <time>2016-02-27T10:54:10Z</time>
      </trkpt>
      <trkpt lat="45.30023" lon="6.17057">
        <ele>1996.1</ele>
        <time>2016-02-27T10:54:12Z</time>
      </trkpt>
      <trkpt lat="45.30024" lon="6.17069">
        <ele>1993.4</ele>
        <time>2016-02-27T10:54:14Z</time>
      </trkpt>
      <trkpt lat="45.30024" lon="6.17079">
        <ele>1989.9</ele>
        <time>2016-02-27T10:54:16Z</time>
      </trkpt>
      <trkpt lat="45.30026" lon="6.1709">
        <ele>1985.9</ele>
        <time>2016-02-27T10:54:18Z</time>
      </trkpt>
      <trkpt lat="45.30027" lon="6.17102">
        <ele>1982.1</ele>
        <time>2016-02-27T10:54:20Z</time>
      </trkpt>
      <trkpt lat="45.30029" lon="6.17112">
        <ele>1979.1</ele>
        <time>2016-02-27T10:54:22Z</time>
      </trkpt>
      <trkpt lat="45.30031" lon="6.17124">
        <ele>1975.3</ele>
        <time>2016-02-27T10:54:24Z</time>
      </trkpt>
      <trkpt lat="45.30037" lon="6.1713">
        <ele>1971.1</ele>
        <time>2016-02-27T10:54:26Z</time>
      </trkpt>
      <trkpt lat="45.30037" lon="6.17142">
        <ele>1958.6</ele>
        <time>2016-02-27T10:59:08Z</time>
      </trkpt>
      <trkpt lat="45.30037" lon="6.17144">
        <ele>1958.7</ele>
        <time>2016-02-27T10:59:09Z</time>
      </trkpt>
      <trkpt lat="45.30038" lon="6.17158">
        <ele>1958.2</ele>
        <time>2016-02-27T10:59:13Z</time>
      </trkpt>
      <trkpt lat="45.30039" lon="6.17168">
        <ele>1956.4</ele>
        <time>2016-02-27T10:59:15Z</time>
      </trkpt>
      <trkpt lat="45.30042" lon="6.17177">
        <ele>1953</ele>
        <time>2016-02-27T10:59:17Z</time>
      </trkpt>
      <trkpt lat="45.30047" lon="6.17187">
        <ele>1950</ele>
        <time>2016-02-27T10:59:19Z</time>
      </trkpt>
      <trkpt lat="45.30051" lon="6.17199">
        <ele>1947.1</ele>
        <time>2016-02-27T10:59:21Z</time>
      </trkpt>
      <trkpt lat="45.30053" lon="6.1721">
        <ele>1943.5</ele>
        <time>2016-02-27T10:59:23Z</time>
      </trkpt>
      <trkpt lat="45.30054" lon="6.17221">
        <ele>1939.5</ele>
        <time>2016-02-27T10:59:25Z</time>
      </trkpt>
      <trkpt lat="45.30057" lon="6.17231">
        <ele>1936.5</ele>
        <time>2016-02-27T10:59:27Z</time>
      </trkpt>
      <trkpt lat="45.30059" lon="6.17241">
        <ele>1932.2</ele>
        <time>2016-02-27T10:59:29Z</time>
      </trkpt>
      <trkpt lat="45.30062" lon="6.17252">
        <ele>1929</ele>
        <time>2016-02-27T10:59:31Z</time>
      </trkpt>
      <trkpt lat="45.30064" lon="6.17263">
        <ele>1925.5</ele>
        <time>2016-02-27T10:59:33Z</time>
      </trkpt>
      <trkpt lat="45.30068" lon="6.17273">
        <ele>1921.8</ele>
        <time>2016-02-27T10:59:35Z</time>
      </trkpt>
      <trkpt lat="45.30068" lon="6.17283">
        <ele>1917.3</ele>
        <time>2016-02-27T10:59:37Z</time>
      </trkpt>
      <trkpt lat="45.30068" lon="6.17292">
        <ele>1913.4</ele>
        <time>2016-02-27T10:59:39Z</time>
      </trkpt>
      <trkpt lat="45.3007" lon="6.17302">
        <ele>1911.2</ele>
        <time>2016-02-27T10:59:41Z</time>
      </trkpt>
      <trkpt lat="45.30071" lon="6.17313">
        <ele>1906.8</ele>
        <time>2016-02-27T10:59:43Z</time>
      </trkpt>
      <trkpt lat="45.30072" lon="6.17323">
        <ele>1902.5</ele>
        <time>2016-02-27T10:59:45Z</time>
      </trkpt>
      <trkpt lat="45.30074" lon="6.17334">
        <ele>1899.3</ele>
        <time>2016-02-27T10:59:47Z</time>
      </trkpt>
      <trkpt lat="45.30075" lon="6.17345">
        <ele>1896.2</ele>
        <time>2016-02-27T10:59:49Z</time>
      </trkpt>
      <trkpt lat="45.30077" lon="6.17354">
        <ele>1892.8</ele>
        <time>2016-02-27T10:59:51Z</time>
      </trkpt>
      <trkpt lat="45.30078" lon="6.17363">
        <ele>1889.9</ele>
        <time>2016-02-27T10:59:53Z</time>
      </trkpt>
      <trkpt lat="45.30079" lon="6.17375">
        <ele>1887.3</ele>
        <time>2016-02-27T10:59:55Z</time>
      </trkpt>
      <trkpt lat="45.30078" lon="6.17387">
        <ele>1883.4</ele>
        <time>2016-02-27T10:59:57Z</time>
      </trkpt>
      <trkpt lat="45.30073" lon="6.17397">
        <ele>1874.4</ele>
        <time>2016-02-27T11:00:12Z</time>
      </trkpt>
      <trkpt lat="45.30073" lon="6.17397">
        <ele>1874.2</ele>
        <time>2016-02-27T11:00:13Z</time>
      </trkpt>
      <trkpt lat="45.30073" lon="6.17416">
        <ele>1873.8</ele>
        <time>2016-02-27T11:01:11Z</time>
      </trkpt>
      <trkpt lat="45.30076" lon="6.17425">
        <ele>1871.9</ele>
        <time>2016-02-27T11:01:13Z</time>
      </trkpt>
      <trkpt lat="45.30079" lon="6.17428">
        <ele>1871.3</ele>
        <time>2016-02-27T11:01:14Z</time>
      </trkpt>
      <trkpt lat="45.30083" lon="6.17441">
        <ele>1867.7</ele>
        <time>2016-02-27T11:01:17Z</time>
      </trkpt>
      <trkpt lat="45.30086" lon="6.17452">
        <ele>1864.5</ele>
        <time>2016-02-27T11:01:19Z</time>
      </trkpt>
      <trkpt lat="45.3009" lon="6.17463">
        <ele>1861.7</ele>
        <time>2016-02-27T11:01:21Z</time>
      </trkpt>
      <trkpt lat="45.30093" lon="6.17469">
        <ele>1859.6</ele>
        <time>2016-02-27T11:01:22Z</time>
      </trkpt>
      <trkpt lat="45.30094" lon="6.17475">
        <ele>1858.1</ele>
        <time>2016-02-27T11:01:23Z</time>
      </trkpt>
      <trkpt lat="45.30097" lon="6.17481">
        <ele>1855.8</ele>
        <time>2016-02-27T11:01:24Z</time>
      </trkpt>
      <trkpt lat="45.30097" lon="6.17492">
        <ele>1851.3</ele>
        <time>2016-02-27T11:01:26Z</time>
      </trkpt>
      <trkpt lat="45.30101" lon="6.17503">
        <ele>1845.5</ele>
        <time>2016-02-27T11:01:29Z</time>
      </trkpt>
      <trkpt lat="45.30104" lon="6.17511">
        <ele>1841.9</ele>
        <time>2016-02-27T11:01:31Z</time>
      </trkpt>
      <trkpt lat="45.30108" lon="6.17522">
        <ele>1837.5</ele>
        <time>2016-02-27T11:01:34Z</time>
      </trkpt>
      <trkpt lat="45.3011" lon="6.17533">
        <ele>1833</ele>
        <time>2016-02-27T11:01:37Z</time>
      </trkpt>
      <trkpt lat="45.30113" lon="6.17541">
        <ele>1829.5</ele>
        <time>2016-02-27T11:01:39Z</time>
      </trkpt>
      <trkpt lat="45.30116" lon="6.17552">
        <ele>1825.3</ele>
        <time>2016-02-27T11:01:42Z</time>
      </trkpt>
      <trkpt lat="45.3012" lon="6.17562">
        <ele>1820.7</ele>
        <time>2016-02-27T11:01:45Z</time>
      </trkpt>
      <trkpt lat="45.30123" lon="6.17574">
        <ele>1816.9</ele>
        <time>2016-02-27T11:01:48Z</time>
      </trkpt>
      <trkpt lat="45.30124" lon="6.17583">
        <ele>1814.7</ele>
        <time>2016-02-27T11:01:50Z</time>
      </trkpt>
      <trkpt lat="45.30125" lon="6.17593">
        <ele>1813.2</ele>
        <time>2016-02-27T11:01:52Z</time>
      </trkpt>
      <trkpt lat="45.30128" lon="6.17601">
        <ele>1811.5</ele>
        <time>2016-02-27T11:01:54Z</time>
      </trkpt>
      <trkpt lat="45.30124" lon="6.17613">
        <ele>1803.3</ele>
        <time>2016-02-27T11:03:04Z</time>
      </trkpt>
      <trkpt lat="45.30124" lon="6.17613">
        <ele>1803.2</ele>
        <time>2016-02-27T11:03:05Z</time>
      </trkpt>
      <trkpt lat="45.30124" lon="6.17635">
        <ele>1801.5</ele>
        <time>2016-02-27T11:03:16Z</time>
      </trkpt>
      <trkpt lat="45.30125" lon="6.17644">
        <ele>1800</ele>
        <time>2016-02-27T11:03:18Z</time>
      </trkpt>
      <trkpt lat="45.30128" lon="6.17655">
        <ele>1797.8</ele>
        <time>2016-02-27T11:03:20Z</time>
      </trkpt>
      <trkpt lat="45.30131" lon="6.17667">
        <ele>1795.8</ele>
        <time>2016-02-27T11:03:22Z</time>
      </trkpt>
      <trkpt lat="45.30133" lon="6.17678">
        <ele>1793.7</ele>
        <time>2016-02-27T11:03:24Z</time>
      </trkpt>
      <trkpt lat="45.30135" lon="6.17689">
        <ele>1791.6</ele>
        <time>2016-02-27T11:03:26Z</time>
      </trkpt>
      <trkpt lat="45.30137" lon="6.17701">
        <ele>1789.6</ele>
        <time>2016-02-27T11:03:28Z</time>
      </trkpt>
      <trkpt lat="45.30134" lon="6.1771">
        <ele>1787.8</ele>
        <time>2016-02-27T11:03:30Z</time>
      </trkpt>
      <trkpt lat="45.30135" lon="6.17721">
        <ele>1785.4</ele>
        <time>2016-02-27T11:03:32Z</time>
      </trkpt>
      <trkpt lat="45.30136" lon="6.17734">
        <ele>1783.4</ele>
        <time>2016-02-27T11:03:34Z</time>
      </trkpt>
      <trkpt lat="45.30137" lon="6.17746">
        <ele>1781.6</ele>
        <time>2016-02-27T11:03:36Z</time>
      </trkpt>
      <trkpt lat="45.30138" lon="6.17758">
        <ele>1778.7</ele>
        <time>2016-02-27T11:03:38Z</time>
      </trkpt>
      <trkpt lat="45.3014" lon="6.17771">
        <ele>1774.7</ele>
        <time>2016-02-27T11:03:40Z</time>
      </trkpt>
      <trkpt lat="45.30141" lon="6.17783">
        <ele>1771.8</ele>
        <time>2016-02-27T11:03:42Z</time>
      </trkpt>
      <trkpt lat="45.30141" lon="6.17795">
        <ele>1768.5</ele>
        <time>2016-02-27T11:03:44Z</time>
      </trkpt>
      <trkpt lat="45.30141" lon="6.17802">
        <ele>1767</ele>
        <time>2016-02-27T11:03:45Z</time>
      </trkpt>
      <trkpt lat="45.3014" lon="6.17808">
        <ele>1765.2</ele>
        <time>2016-02-27T11:03:46Z</time>
      </trkpt>
      <trkpt lat="45.30138" lon="6.17814">
        <ele>1763.9</ele>
        <time>2016-02-27T11:03:47Z</time>
      </trkpt>
      <trkpt lat="45.30136" lon="6.1782">
        <ele>1762.9</ele>
        <time>2016-02-27T11:03:48Z</time>
      </trkpt>
      <trkpt lat="45.30133" lon="6.17827">
        <ele>1761.4</ele>
        <time>2016-02-27T11:03:49Z</time>
      </trkpt>
      <trkpt lat="45.30131" lon="6.17839">
        <ele>1758.9</ele>
        <time>2016-02-27T11:03:51Z</time>
      </trkpt>
      <trkpt lat="45.30132" lon="6.17846">
        <ele>1757.8</ele>
        <time>2016-02-27T11:03:52Z</time>
      </trkpt>
      <trkpt lat="45.30129" lon="6.17857">
        <ele>1755.8</ele>
        <time>2016-02-27T11:03:54Z</time>
      </trkpt>
      <trkpt lat="45.30127" lon="6.17863">
        <ele>1754.8</ele>
        <time>2016-02-27T11:03:55Z</time>
      </trkpt>
      <trkpt lat="45.30126" lon="6.17869">
        <ele>1753.6</ele>
        <time>2016-02-27T11:03:56Z</time>
      </trkpt>
      <trkpt lat="45.30125" lon="6.17876">
        <ele>1752.7</ele>
        <time>2016-02-27T11:03:57Z</time>
      </trkpt>
      <trkpt lat="45.30124" lon="6.17883">
        <ele>1751.7</ele>
        <time>2016-02-27T11:03:58Z</time>
      </trkpt>
      <trkpt lat="45.30122" lon="6.17889">
        <ele>1750.9</ele>
        <time>2016-02-27T11:03:59Z</time>
      </trkpt>
      <trkpt lat="45.3012" lon="6.17896">
        <ele>1750.3</ele>
        <time>2016-02-27T11:04:00Z</time>
      </trkpt>
      <trkpt lat="45.30119" lon="6.17903">
        <ele>1749.1</ele>
        <time>2016-02-27T11:04:01Z</time>
      </trkpt>
      <trkpt lat="45.30117" lon="6.1791">
        <ele>1748.1</ele>
        <time>2016-02-27T11:04:02Z</time>
      </trkpt>
      <trkpt lat="45.30114" lon="6.17917">
        <ele>1746.8</ele>
        <time>2016-02-27T11:04:03Z</time>
      </trkpt>
      <trkpt lat="45.30112" lon="6.17923">
        <ele>1745.9</ele>
        <time>2016-02-27T11:04:04Z</time>
      </trkpt>
      <trkpt lat="45.30108" lon="6.17935">
        <ele>1743.2</ele>
        <time>2016-02-27T11:04:06Z</time>
      </trkpt>
      <trkpt lat="45.30107" lon="6.1794">
        <ele>1742.3</ele>
        <time>2016-02-27T11:04:07Z</time>
      </trkpt>
      <trkpt lat="45.30105" lon="6.17953">
        <ele>1740.8</ele>
        <time>2016-02-27T11:04:10Z</time>
      </trkpt>
      <trkpt lat="45.30102" lon="6.17964">
        <ele>1740.7</ele>
        <time>2016-02-27T11:04:12Z</time>
      </trkpt>
      <trkpt lat="45.30098" lon="6.17975">
        <ele>1738</ele>
        <time>2016-02-27T11:04:14Z</time>
      </trkpt>
      <trkpt lat="45.30093" lon="6.17985">
        <ele>1736.1</ele>
        <time>2016-02-27T11:04:16Z</time>
      </trkpt>
      <trkpt lat="45.30094" lon="6.17997">
        <ele>1734.3</ele>
        <time>2016-02-27T11:04:18Z</time>
      </trkpt>
      <trkpt lat="45.30092" lon="6.18004">
        <ele>1731.9</ele>
        <time>2016-02-27T11:04:20Z</time>
      </trkpt>
      <trkpt lat="45.30089" lon="6.18015">
        <ele>1729.5</ele>
        <time>2016-02-27T11:04:22Z</time>
      </trkpt>
      <trkpt lat="45.30084" lon="6.18025">
        <ele>1727.1</ele>
        <time>2016-02-27T11:04:24Z</time>
      </trkpt>
      <trkpt lat="45.30078" lon="6.18032">
        <ele>1724.8</ele>
        <time>2016-02-27T11:04:26Z</time>
      </trkpt>
      <trkpt lat="45.30074" lon="6.1804">
        <ele>1721.9</ele>
        <time>2016-02-27T11:04:29Z</time>
      </trkpt>
      <trkpt lat="45.30073" lon="6.18045">
        <ele>1721.3</ele>
        <time>2016-02-27T11:04:30Z</time>
      </trkpt>
      <trkpt lat="45.30064" lon="6.18068">
        <ele>1718</ele>
        <time>2016-02-27T11:04:33Z</time>
      </trkpt>
      <trkpt lat="45.30057" lon="6.1809">
        <ele>1714</ele>
        <time>2016-02-27T11:04:37Z</time>
      </trkpt>
      <trkpt lat="45.30052" lon="6.18102">
        <ele>1710</ele>
        <time>2016-02-27T11:04:41Z</time>
      </trkpt>
      <trkpt lat="45.30051" lon="6.18125">
        <ele>1707</ele>
        <time>2016-02-27T11:05:09Z</time>
      </trkpt>
      <trkpt lat="45.30052" lon="6.18131">
        <ele>1706.5</ele>
        <time>2016-02-27T11:05:11Z</time>
      </trkpt>
      <trkpt lat="45.30046" lon="6.18163">
        <ele>1698</ele>
        <time>2016-02-27T11:05:17Z</time>
      </trkpt>
      <trkpt lat="45.30037" lon="6.18181">
        <ele>1693</ele>
        <time>2016-02-27T11:05:21Z</time>
      </trkpt>
      <trkpt lat="45.3003" lon="6.18204">
        <ele>1689</ele>
        <time>2016-02-27T11:05:25Z</time>
      </trkpt>
      <trkpt lat="45.30027" lon="6.18228">
        <ele>1685</ele>
        <time>2016-02-27T11:05:29Z</time>
      </trkpt>
      <trkpt lat="45.30026" lon="6.18255">
        <ele>1680</ele>
        <time>2016-02-27T11:05:33Z</time>
      </trkpt>
      <trkpt lat="45.30023" lon="6.18284">
        <ele>1673</ele>
        <time>2016-02-27T11:05:37Z</time>
      </trkpt>
      <trkpt lat="45.30018" lon="6.18311">
        <ele>1666</ele>
        <time>2016-02-27T11:05:41Z</time>
      </trkpt>
      <trkpt lat="45.30016" lon="6.18342">
        <ele>1662</ele>
        <time>2016-02-27T11:05:45Z</time>
      </trkpt>
      <trkpt lat="45.30017" lon="6.18369">
        <ele>1659</ele>
        <time>2016-02-27T11:05:49Z</time>
      </trkpt>
      <trkpt lat="45.30018" lon="6.18387">
        <ele>1656</ele>
        <time>2016-02-27T11:05:53Z</time>
      </trkpt>
      <trkpt lat="45.30018" lon="6.18402">
        <ele>1656</ele>
        <time>2016-02-27T11:05:57Z</time>
      </trkpt>
      <trkpt lat="45.30017" lon="6.18422">
        <ele>1655</ele>
        <time>2016-02-27T11:06:05Z</time>
      </trkpt>
      <trkpt lat="45.30015" lon="6.18435">
        <ele>1654</ele>
        <time>2016-02-27T11:06:09Z</time>
      </trkpt>
      <trkpt lat="45.30007" lon="6.18453">
        <ele>1652</ele>
        <time>2016-02-27T11:06:13Z</time>
      </trkpt>
      <trkpt lat="45.30003" lon="6.18459">
        <ele>1652</ele>
        <time>2016-02-27T11:06:15Z</time>
      </trkpt>
      <trkpt lat="45.29997" lon="6.1849">
        <ele>1644</ele>
        <time>2016-02-27T11:06:21Z</time>
      </trkpt>
      <trkpt lat="45.29993" lon="6.1851">
        <ele>1638</ele>
        <time>2016-02-27T11:06:25Z</time>
      </trkpt>
      <trkpt lat="45.29991" lon="6.18533">
        <ele>1632</ele>
        <time>2016-02-27T11:06:29Z</time>
      </trkpt>
      <trkpt lat="45.29992" lon="6.18558">
        <ele>1627</ele>
        <time>2016-02-27T11:06:33Z</time>
      </trkpt>
      <trkpt lat="45.29989" lon="6.18582">
        <ele>1622</ele>
        <time>2016-02-27T11:06:37Z</time>
      </trkpt>
      <trkpt lat="45.29989" lon="6.18603">
        <ele>1619</ele>
        <time>2016-02-27T11:06:41Z</time>
      </trkpt>
      <trkpt lat="45.29987" lon="6.18624">
        <ele>1616</ele>
        <time>2016-02-27T11:06:45Z</time>
      </trkpt>
      <trkpt lat="45.29987" lon="6.18642">
        <ele>1613</ele>
        <time>2016-02-27T11:06:49Z</time>
      </trkpt>
      <trkpt lat="45.29984" lon="6.18656">
        <ele>1609</ele>
        <time>2016-02-27T11:06:53Z</time>
      </trkpt>
      <trkpt lat="45.29989" lon="6.18673">
        <ele>1602</ele>
        <time>2016-02-27T11:07:21Z</time>
      </trkpt>
      <trkpt lat="45.2999" lon="6.18678">
        <ele>1602.2</ele>
        <time>2016-02-27T11:07:23Z</time>
      </trkpt>
      <trkpt lat="45.29981" lon="6.18706">
        <ele>1599</ele>
        <time>2016-02-27T11:07:29Z</time>
      </trkpt>
      <trkpt lat="45.29973" lon="6.1872">
        <ele>1597</ele>
        <time>2016-02-27T11:07:33Z</time>
      </trkpt>
      <trkpt lat="45.29964" lon="6.18734">
        <ele>1594</ele>
        <time>2016-02-27T11:07:37Z</time>
      </trkpt>
      <trkpt lat="45.29957" lon="6.18752">
        <ele>1591</ele>
        <time>2016-02-27T11:07:41Z</time>
      </trkpt>
      <trkpt lat="45.29957" lon="6.18769">
        <ele>1586</ele>
        <time>2016-02-27T11:07:45Z</time>
      </trkpt>
      <trkpt lat="45.29955" lon="6.18785">
        <ele>1581</ele>
        <time>2016-02-27T11:07:49Z</time>
      </trkpt>
      <trkpt lat="45.29958" lon="6.18799">
        <ele>1575</ele>
        <time>2016-02-27T11:07:53Z</time>
      </trkpt>
      <trkpt lat="45.29954" lon="6.18817">
        <ele>1569</ele>
        <time>2016-02-27T11:07:57Z</time>
      </trkpt>
      <trkpt lat="45.29944" lon="6.18829">
        <ele>1564</ele>
        <time>2016-02-27T11:08:01Z</time>
      </trkpt>
      <trkpt lat="45.29934" lon="6.18849">
        <ele>1557</ele>
        <time>2016-02-27T11:08:22Z</time>
      </trkpt>
      <trkpt lat="45.29937" lon="6.18852">
        <ele>1556.5</ele>
        <time>2016-02-27T11:08:24Z</time>
      </trkpt>
      <trkpt lat="45.29948" lon="6.18867">
        <ele>1549</ele>
        <time>2016-02-27T11:08:30Z</time>
      </trkpt>
      <trkpt lat="45.29946" lon="6.18881">
        <ele>1545</ele>
        <time>2016-02-27T11:08:34Z</time>
      </trkpt>
      <trkpt lat="45.29943" lon="6.18895">
        <ele>1541</ele>
        <time>2016-02-27T11:08:38Z</time>
      </trkpt>
      <trkpt lat="45.29938" lon="6.18911">
        <ele>1538</ele>
        <time>2016-02-27T11:08:42Z</time>
      </trkpt>
      <trkpt lat="45.2993" lon="6.18927">
        <ele>1535</ele>
        <time>2016-02-27T11:08:46Z</time>
      </trkpt>
      <trkpt lat="45.29923" lon="6.18937">
        <ele>1532</ele>
        <time>2016-02-27T11:08:58Z</time>
      </trkpt>
      <trkpt lat="45.29919" lon="6.18951">
        <ele>1531</ele>
        <time>2016-02-27T11:09:02Z</time>
      </trkpt>
      <trkpt lat="45.29913" lon="6.18966">
        <ele>1529</ele>
        <time>2016-02-27T11:09:06Z</time>
      </trkpt>
      <trkpt lat="45.29907" lon="6.1899">
        <ele>1528</ele>
        <time>2016-02-27T11:09:10Z</time>
      </trkpt>
      <trkpt lat="45.29899" lon="6.19011">
        <ele>1525</ele>
        <time>2016-02-27T11:09:14Z</time>
      </trkpt>
      <trkpt lat="45.299" lon="6.19028">
        <ele>1522</ele>
        <time>2016-02-27T11:09:18Z</time>
      </trkpt>
      <trkpt lat="45.29907" lon="6.19047">
        <ele>1517</ele>
        <time>2016-02-27T11:09:22Z</time>
      </trkpt>
      <trkpt lat="45.29905" lon="6.19057">
        <ele>1513.6</ele>
        <time>2016-02-27T11:10:23Z</time>
      </trkpt>
      <trkpt lat="45.29903" lon="6.19061">
        <ele>1513.6</ele>
        <time>2016-02-27T11:10:24Z</time>
      </trkpt>
      <trkpt lat="45.29909" lon="6.19079">
        <ele>1508.3</ele>
        <time>2016-02-27T11:10:39Z</time>
      </trkpt>
      <trkpt lat="45.29906" lon="6.19086">
        <ele>1507.8</ele>
        <time>2016-02-27T11:10:41Z</time>
      </trkpt>
      <trkpt lat="45.29903" lon="6.19094">
        <ele>1507.2</ele>
        <time>2016-02-27T11:10:43Z</time>
      </trkpt>
      <trkpt lat="45.29898" lon="6.191">
        <ele>1506.8</ele>
        <time>2016-02-27T11:10:45Z</time>
      </trkpt>
      <trkpt lat="45.29892" lon="6.19108">
        <ele>1505.3</ele>
        <time>2016-02-27T11:10:48Z</time>
      </trkpt>
      <trkpt lat="45.29885" lon="6.19116">
        <ele>1504.8</ele>
        <time>2016-02-27T11:10:51Z</time>
      </trkpt>
      <trkpt lat="45.2988" lon="6.19124">
        <ele>1505.3</ele>
        <time>2016-02-27T11:10:55Z</time>
      </trkpt>
      <trkpt lat="45.29875" lon="6.19135">
        <ele>1503.6</ele>
        <time>2016-02-27T11:11:00Z</time>
      </trkpt>
      <trkpt lat="45.29872" lon="6.19146">
        <ele>1503.1</ele>
        <time>2016-02-27T11:11:08Z</time>
      </trkpt>
      <trkpt lat="45.29866" lon="6.19155">
        <ele>1502.9</ele>
        <time>2016-02-27T11:11:13Z</time>
      </trkpt>
      <trkpt lat="45.29861" lon="6.19165">
        <ele>1501.8</ele>
        <time>2016-02-27T11:11:16Z</time>
      </trkpt>
      <trkpt lat="45.29854" lon="6.1918">
        <ele>1501</ele>
        <time>2016-02-27T11:11:20Z</time>
      </trkpt>
      <trkpt lat="45.29849" lon="6.19188">
        <ele>1501.4</ele>
        <time>2016-02-27T11:11:23Z</time>
      </trkpt>
      <trkpt lat="45.29846" lon="6.19199">
        <ele>1501.4</ele>
        <time>2016-02-27T11:11:26Z</time>
      </trkpt>
      <trkpt lat="45.29846" lon="6.19205">
        <ele>1501.2</ele>
        <time>2016-02-27T11:11:27Z</time>
      </trkpt>
      <trkpt lat="45.29844" lon="6.19217">
        <ele>1500.3</ele>
        <time>2016-02-27T11:11:29Z</time>
      </trkpt>
      <trkpt lat="45.29844" lon="6.19224">
        <ele>1499.8</ele>
        <time>2016-02-27T11:11:30Z</time>
      </trkpt>
      <trkpt lat="45.29842" lon="6.19231">
        <ele>1499.4</ele>
        <time>2016-02-27T11:11:31Z</time>
      </trkpt>
      <trkpt lat="45.29841" lon="6.19238">
        <ele>1498.3</ele>
        <time>2016-02-27T11:11:32Z</time>
      </trkpt>
      <trkpt lat="45.29839" lon="6.19245">
        <ele>1497.4</ele>
        <time>2016-02-27T11:11:33Z</time>
      </trkpt>
      <trkpt lat="45.29836" lon="6.19251">
        <ele>1496.7</ele>
        <time>2016-02-27T11:11:34Z</time>
      </trkpt>
      <trkpt lat="45.29832" lon="6.19262">
        <ele>1495.4</ele>
        <time>2016-02-27T11:11:36Z</time>
      </trkpt>
      <trkpt lat="45.2983" lon="6.19267">
        <ele>1494.8</ele>
        <time>2016-02-27T11:11:37Z</time>
      </trkpt>
      <trkpt lat="45.29827" lon="6.19273">
        <ele>1494.4</ele>
        <time>2016-02-27T11:11:38Z</time>
      </trkpt>
      <trkpt lat="45.29825" lon="6.19279">
        <ele>1493.8</ele>
        <time>2016-02-27T11:11:39Z</time>
      </trkpt>
      <trkpt lat="45.29823" lon="6.19285">
        <ele>1493.3</ele>
        <time>2016-02-27T11:11:40Z</time>
      </trkpt>
      <trkpt lat="45.29821" lon="6.19291">
        <ele>1492.2</ele>
        <time>2016-02-27T11:11:41Z</time>
      </trkpt>
      <trkpt lat="45.29816" lon="6.19302">
        <ele>1490.8</ele>
        <time>2016-02-27T11:11:43Z</time>
      </trkpt>
      <trkpt lat="45.29808" lon="6.19317">
        <ele>1489</ele>
        <time>2016-02-27T11:11:47Z</time>
      </trkpt>
      <trkpt lat="45.29802" lon="6.19327">
        <ele>1488</ele>
        <time>2016-02-27T11:11:51Z</time>
      </trkpt>
      <trkpt lat="45.29798" lon="6.19336">
        <ele>1488.2</ele>
        <time>2016-02-27T11:11:54Z</time>
      </trkpt>
      <trkpt lat="45.29789" lon="6.19356">
        <ele>1486</ele>
        <time>2016-02-27T11:11:59Z</time>
      </trkpt>
      <trkpt lat="45.29783" lon="6.19369">
        <ele>1486</ele>
        <time>2016-02-27T11:12:03Z</time>
      </trkpt>
      <trkpt lat="45.29773" lon="6.19383">
        <ele>1485</ele>
        <time>2016-02-27T11:12:07Z</time>
      </trkpt>
      <trkpt lat="45.29761" lon="6.19399">
        <ele>1484</ele>
        <time>2016-02-27T11:12:11Z</time>
      </trkpt>
      <trkpt lat="45.29748" lon="6.19414">
        <ele>1484</ele>
        <time>2016-02-27T11:12:15Z</time>
      </trkpt>
      <trkpt lat="45.29739" lon="6.19422">
        <ele>1483</ele>
        <time>2016-02-27T11:12:19Z</time>
      </trkpt>
      <trkpt lat="45.29736" lon="6.19435">
        <ele>1483</ele>
        <time>2016-02-27T11:13:29Z</time>
      </trkpt>
      <trkpt lat="45.29733" lon="6.19438">
        <ele>1483.8</ele>
        <time>2016-02-27T11:13:31Z</time>
      </trkpt>
      <trkpt lat="45.29716" lon="6.19459">
        <ele>1482</ele>
        <time>2016-02-27T11:13:37Z</time>
      </trkpt>
      <trkpt lat="45.29709" lon="6.19468">
        <ele>1481</ele>
        <time>2016-02-27T11:13:41Z</time>
      </trkpt>
      <trkpt lat="45.29703" lon="6.19481">
        <ele>1482.7</ele>
        <time>2016-02-27T11:13:47Z</time>
      </trkpt>
      <trkpt lat="45.29701" lon="6.19486">
        <ele>1482.6</ele>
        <time>2016-02-27T11:13:48Z</time>
      </trkpt>
      <trkpt lat="45.29698" lon="6.19492">
        <ele>1481.8</ele>
        <time>2016-02-27T11:13:49Z</time>
      </trkpt>
      <trkpt lat="45.29694" lon="6.19499">
        <ele>1481.1</ele>
        <time>2016-02-27T11:13:50Z</time>
      </trkpt>
      <trkpt lat="45.2969" lon="6.19505">
        <ele>1480.6</ele>
        <time>2016-02-27T11:13:51Z</time>
      </trkpt>
      <trkpt lat="45.29686" lon="6.19512">
        <ele>1479.9</ele>
        <time>2016-02-27T11:13:52Z</time>
      </trkpt>
      <trkpt lat="45.29681" lon="6.19517">
        <ele>1479.4</ele>
        <time>2016-02-27T11:13:53Z</time>
      </trkpt>
      <trkpt lat="45.29678" lon="6.19522">
        <ele>1478.7</ele>
        <time>2016-02-27T11:13:54Z</time>
      </trkpt>
      <trkpt lat="45.29675" lon="6.19528">
        <ele>1478.2</ele>
        <time>2016-02-27T11:13:55Z</time>
      </trkpt>
      <trkpt lat="45.29669" lon="6.19538">
        <ele>1476.7</ele>
        <time>2016-02-27T11:13:57Z</time>
      </trkpt>
      <trkpt lat="45.2966" lon="6.19556">
        <ele>1474</ele>
        <time>2016-02-27T11:14:00Z</time>
      </trkpt>
      <trkpt lat="45.29648" lon="6.19576">
        <ele>1473</ele>
        <time>2016-02-27T11:14:04Z</time>
      </trkpt>
      <trkpt lat="45.29632" lon="6.19597">
        <ele>1471</ele>
        <time>2016-02-27T11:14:08Z</time>
      </trkpt>
      <trkpt lat="45.29615" lon="6.19618">
        <ele>1468</ele>
        <time>2016-02-27T11:14:12Z</time>
      </trkpt>
      <trkpt lat="45.296" lon="6.19639">
        <ele>1467</ele>
        <time>2016-02-27T11:14:16Z</time>
      </trkpt>
      <trkpt lat="45.29587" lon="6.19655">
        <ele>1465</ele>
        <time>2016-02-27T11:14:20Z</time>
      </trkpt>
      <trkpt lat="45.29577" lon="6.19674">
        <ele>1464</ele>
        <time>2016-02-27T11:14:25Z</time>
      </trkpt>
      <trkpt lat="45.29573" lon="6.19686">
        <ele>1463</ele>
        <time>2016-02-27T11:14:29Z</time>
      </trkpt>
      <trkpt lat="45.29567" lon="6.19709">
        <ele>1457</ele>
        <time>2016-02-27T11:14:37Z</time>
      </trkpt>
      <trkpt lat="45.29566" lon="6.1971">
        <ele>1457.4</ele>
        <time>2016-02-27T11:14:39Z</time>
      </trkpt>
      <trkpt lat="45.29561" lon="6.19736">
        <ele>1450</ele>
        <time>2016-02-27T11:15:23Z</time>
      </trkpt>
      <trkpt lat="45.29556" lon="6.19746">
        <ele>1450.4</ele>
        <time>2016-02-27T11:15:29Z</time>
      </trkpt>
      <trkpt lat="45.29551" lon="6.19755">
        <ele>1450</ele>
        <time>2016-02-27T11:15:33Z</time>
      </trkpt>
      <trkpt lat="45.2955" lon="6.19763">
        <ele>1449.3</ele>
        <time>2016-02-27T11:15:35Z</time>
      </trkpt>
      <trkpt lat="45.29548" lon="6.19771">
        <ele>1447.5</ele>
        <time>2016-02-27T11:15:37Z</time>
      </trkpt>
      <trkpt lat="45.29544" lon="6.19779">
        <ele>1445.5</ele>
        <time>2016-02-27T11:15:39Z</time>
      </trkpt>
      <trkpt lat="45.2954" lon="6.19788">
        <ele>1444.1</ele>
        <time>2016-02-27T11:15:41Z</time>
      </trkpt>
      <trkpt lat="45.29538" lon="6.19794">
        <ele>1443.5</ele>
        <time>2016-02-27T11:15:42Z</time>
      </trkpt>
      <trkpt lat="45.29535" lon="6.198">
        <ele>1442.5</ele>
        <time>2016-02-27T11:15:43Z</time>
      </trkpt>
      <trkpt lat="45.29531" lon="6.19806">
        <ele>1441.7</ele>
        <time>2016-02-27T11:15:44Z</time>
      </trkpt>
      <trkpt lat="45.29527" lon="6.19811">
        <ele>1441.2</ele>
        <time>2016-02-27T11:15:45Z</time>
      </trkpt>
      <trkpt lat="45.29523" lon="6.19817">
        <ele>1440.8</ele>
        <time>2016-02-27T11:15:46Z</time>
      </trkpt>
      <trkpt lat="45.29519" lon="6.19823">
        <ele>1440.6</ele>
        <time>2016-02-27T11:15:47Z</time>
      </trkpt>
      <trkpt lat="45.29515" lon="6.19831">
        <ele>1439.9</ele>
        <time>2016-02-27T11:15:48Z</time>
      </trkpt>
      <trkpt lat="45.29511" lon="6.19838">
        <ele>1439.3</ele>
        <time>2016-02-27T11:15:49Z</time>
      </trkpt>
      <trkpt lat="45.29508" lon="6.19845">
        <ele>1438.5</ele>
        <time>2016-02-27T11:15:50Z</time>
      </trkpt>
      <trkpt lat="45.29504" lon="6.19851">
        <ele>1437.8</ele>
        <time>2016-02-27T11:15:51Z</time>
      </trkpt>
      <trkpt lat="45.295" lon="6.19858">
        <ele>1437.4</ele>
        <time>2016-02-27T11:15:52Z</time>
      </trkpt>
      <trkpt lat="45.29496" lon="6.19864">
        <ele>1436.7</ele>
        <time>2016-02-27T11:15:53Z</time>
      </trkpt>
      <trkpt lat="45.29493" lon="6.1987">
        <ele>1436.2</ele>
        <time>2016-02-27T11:15:54Z</time>
      </trkpt>
      <trkpt lat="45.2949" lon="6.19876">
        <ele>1435.5</ele>
        <time>2016-02-27T11:15:55Z</time>
      </trkpt>
      <trkpt lat="45.29487" lon="6.19881">
        <ele>1435</ele>
        <time>2016-02-27T11:15:56Z</time>
      </trkpt>
      <trkpt lat="45.29483" lon="6.19886">
        <ele>1434.8</ele>
        <time>2016-02-27T11:15:57Z</time>
      </trkpt>
      <trkpt lat="45.29481" lon="6.19892">
        <ele>1434.6</ele>
        <time>2016-02-27T11:15:58Z</time>
      </trkpt>
      <trkpt lat="45.29474" lon="6.1991">
        <ele>1433</ele>
        <time>2016-02-27T11:16:01Z</time>
      </trkpt>
      <trkpt lat="45.2947" lon="6.19932">
        <ele>1431</ele>
        <time>2016-02-27T11:16:05Z</time>
      </trkpt>
      <trkpt lat="45.29469" lon="6.19942">
        <ele>1431.9</ele>
        <time>2016-02-27T11:16:07Z</time>
      </trkpt>
      <trkpt lat="45.29464" lon="6.19952">
        <ele>1428</ele>
        <time>2016-02-27T11:16:43Z</time>
      </trkpt>
      <trkpt lat="45.29463" lon="6.19952">
        <ele>1427.9</ele>
        <time>2016-02-27T11:16:44Z</time>
      </trkpt>
      <trkpt lat="45.29459" lon="6.19973">
        <ele>1426.4</ele>
        <time>2016-02-27T11:17:04Z</time>
      </trkpt>
      <trkpt lat="45.29456" lon="6.19982">
        <ele>1423.9</ele>
        <time>2016-02-27T11:17:08Z</time>
      </trkpt>
      <trkpt lat="45.2945" lon="6.19992">
        <ele>1420.8</ele>
        <time>2016-02-27T11:17:14Z</time>
      </trkpt>
      <trkpt lat="45.29453" lon="6.20003">
        <ele>1417.1</ele>
        <time>2016-02-27T11:17:48Z</time>
      </trkpt>
      <trkpt lat="45.29454" lon="6.20006">
        <ele>1417.2</ele>
        <time>2016-02-27T11:17:49Z</time>
      </trkpt>
      <trkpt lat="45.29454" lon="6.20026">
        <ele>1415.1</ele>
        <time>2016-02-27T11:17:56Z</time>
      </trkpt>
      <trkpt lat="45.29453" lon="6.20039">
        <ele>1412.7</ele>
        <time>2016-02-27T11:18:00Z</time>
      </trkpt>
      <trkpt lat="45.29453" lon="6.2005">
        <ele>1410.6</ele>
        <time>2016-02-27T11:18:03Z</time>
      </trkpt>
      <trkpt lat="45.29451" lon="6.20062">
        <ele>1408.7</ele>
        <time>2016-02-27T11:18:06Z</time>
      </trkpt>
      <trkpt lat="45.29447" lon="6.2007">
        <ele>1406.7</ele>
        <time>2016-02-27T11:18:08Z</time>
      </trkpt>
      <trkpt lat="45.29443" lon="6.20077">
        <ele>1404.7</ele>
        <time>2016-02-27T11:18:10Z</time>
      </trkpt>
      <trkpt lat="45.29439" lon="6.20087">
        <ele>1403.3</ele>
        <time>2016-02-27T11:18:12Z</time>
      </trkpt>
      <trkpt lat="45.29435" lon="6.20095">
        <ele>1401.9</ele>
        <time>2016-02-27T11:18:14Z</time>
      </trkpt>
      <trkpt lat="45.2943" lon="6.20102">
        <ele>1401.6</ele>
        <time>2016-02-27T11:18:17Z</time>
      </trkpt>
      <trkpt lat="45.29425" lon="6.20108">
        <ele>1401.1</ele>
        <time>2016-02-27T11:18:19Z</time>
      </trkpt>
      <trkpt lat="45.2942" lon="6.20116">
        <ele>1400.8</ele>
        <time>2016-02-27T11:18:21Z</time>
      </trkpt>
      <trkpt lat="45.29418" lon="6.20123">
        <ele>1400.2</ele>
        <time>2016-02-27T11:18:22Z</time>
      </trkpt>
      <trkpt lat="45.29416" lon="6.2013">
        <ele>1399.7</ele>
        <time>2016-02-27T11:18:23Z</time>
      </trkpt>
      <trkpt lat="45.29414" lon="6.20136">
        <ele>1399.4</ele>
        <time>2016-02-27T11:18:24Z</time>
      </trkpt>
      <trkpt lat="45.29412" lon="6.20142">
        <ele>1398.8</ele>
        <time>2016-02-27T11:18:25Z</time>
      </trkpt>
      <trkpt lat="45.29408" lon="6.20153">
        <ele>1395.3</ele>
        <time>2016-02-27T11:18:31Z</time>
      </trkpt>
      <trkpt lat="45.29406" lon="6.20164">
        <ele>1394.2</ele>
        <time>2016-02-27T11:18:43Z</time>
      </trkpt>
      <trkpt lat="45.29408" lon="6.20174">
        <ele>1392.8</ele>
        <time>2016-02-27T11:18:46Z</time>
      </trkpt>
      <trkpt lat="45.29406" lon="6.20182">
        <ele>1390.9</ele>
        <time>2016-02-27T11:18:48Z</time>
      </trkpt>
      <trkpt lat="45.29409" lon="6.20198">
        <ele>1386</ele>
        <time>2016-02-27T11:18:52Z</time>
      </trkpt>
      <trkpt lat="45.29411" lon="6.20203">
        <ele>1384.8</ele>
        <time>2016-02-27T11:18:54Z</time>
      </trkpt>
      <trkpt lat="45.29418" lon="6.20216">
        <ele>1382.3</ele>
        <time>2016-02-27T11:18:57Z</time>
      </trkpt>
      <trkpt lat="45.2942" lon="6.20233">
        <ele>1377</ele>
        <time>2016-02-27T11:19:01Z</time>
      </trkpt>
      <trkpt lat="45.29422" lon="6.20243">
        <ele>1373.9</ele>
        <time>2016-02-27T11:19:05Z</time>
      </trkpt>
      <trkpt lat="45.29418" lon="6.2025">
        <ele>1371.9</ele>
        <time>2016-02-27T11:19:07Z</time>
      </trkpt>
      <trkpt lat="45.29412" lon="6.20255">
        <ele>1370.7</ele>
        <time>2016-02-27T11:19:09Z</time>
      </trkpt>
      <trkpt lat="45.29406" lon="6.20259">
        <ele>1369.5</ele>
        <time>2016-02-27T11:19:11Z</time>
      </trkpt>
      <trkpt lat="45.294" lon="6.20264">
        <ele>1368.5</ele>
        <time>2016-02-27T11:19:13Z</time>
      </trkpt>
      <trkpt lat="45.29396" lon="6.20271">
        <ele>1367.6</ele>
        <time>2016-02-27T11:19:15Z</time>
      </trkpt>
      <trkpt lat="45.29393" lon="6.20279">
        <ele>1367</ele>
        <time>2016-02-27T11:19:17Z</time>
      </trkpt>
      <trkpt lat="45.29392" lon="6.20286">
        <ele>1366.7</ele>
        <time>2016-02-27T11:19:18Z</time>
      </trkpt>
      <trkpt lat="45.29391" lon="6.20293">
        <ele>1365.9</ele>
        <time>2016-02-27T11:19:19Z</time>
      </trkpt>
      <trkpt lat="45.29389" lon="6.20305">
        <ele>1364.8</ele>
        <time>2016-02-27T11:19:21Z</time>
      </trkpt>
      <trkpt lat="45.29388" lon="6.20314">
        <ele>1363.8</ele>
        <time>2016-02-27T11:19:23Z</time>
      </trkpt>
      <trkpt lat="45.29388" lon="6.20324">
        <ele>1363.2</ele>
        <time>2016-02-27T11:19:25Z</time>
      </trkpt>
      <trkpt lat="45.29387" lon="6.20336">
        <ele>1362.4</ele>
        <time>2016-02-27T11:19:27Z</time>
      </trkpt>
      <trkpt lat="45.29384" lon="6.20346">
        <ele>1360.9</ele>
        <time>2016-02-27T11:19:29Z</time>
      </trkpt>
      <trkpt lat="45.29386" lon="6.20357">
        <ele>1358.5</ele>
        <time>2016-02-27T11:19:32Z</time>
      </trkpt>
      <trkpt lat="45.2939" lon="6.20361">
        <ele>1357.7</ele>
        <time>2016-02-27T11:19:33Z</time>
      </trkpt>
      <trkpt lat="45.29393" lon="6.20368">
        <ele>1357.1</ele>
        <time>2016-02-27T11:19:34Z</time>
      </trkpt>
      <trkpt lat="45.29395" lon="6.20375">
        <ele>1356.6</ele>
        <time>2016-02-27T11:19:35Z</time>
      </trkpt>
      <trkpt lat="45.29397" lon="6.20382">
        <ele>1355.4</ele>
        <time>2016-02-27T11:19:36Z</time>
      </trkpt>
      <trkpt lat="45.29398" lon="6.20389">
        <ele>1354.5</ele>
        <time>2016-02-27T11:19:37Z</time>
      </trkpt>
      <trkpt lat="45.29399" lon="6.20401">
        <ele>1353.1</ele>
        <time>2016-02-27T11:19:39Z</time>
      </trkpt>
      <trkpt lat="45.294" lon="6.20412">
        <ele>1352.4</ele>
        <time>2016-02-27T11:19:41Z</time>
      </trkpt>
      <trkpt lat="45.29399" lon="6.20423">
        <ele>1351.2</ele>
        <time>2016-02-27T11:19:43Z</time>
      </trkpt>
      <trkpt lat="45.29397" lon="6.20435">
        <ele>1349.8</ele>
        <time>2016-02-27T11:19:46Z</time>
      </trkpt>
      <trkpt lat="45.29395" lon="6.20444">
        <ele>1348.7</ele>
        <time>2016-02-27T11:19:48Z</time>
      </trkpt>
      <trkpt lat="45.29395" lon="6.2045">
        <ele>1348</ele>
        <time>2016-02-27T11:19:49Z</time>
      </trkpt>
      <trkpt lat="45.29394" lon="6.20457">
        <ele>1347.8</ele>
        <time>2016-02-27T11:19:50Z</time>
      </trkpt>
      <trkpt lat="45.29394" lon="6.20465">
        <ele>1347.6</ele>
        <time>2016-02-27T11:19:51Z</time>
      </trkpt>
      <trkpt lat="45.29393" lon="6.20476">
        <ele>1346.2</ele>
        <time>2016-02-27T11:19:53Z</time>
      </trkpt>
      <trkpt lat="45.29399" lon="6.20485">
        <ele>1343.3</ele>
        <time>2016-02-27T11:20:29Z</time>
      </trkpt>
      <trkpt lat="45.294" lon="6.20485">
        <ele>1343.1</ele>
        <time>2016-02-27T11:20:30Z</time>
      </trkpt>
      <trkpt lat="45.29406" lon="6.205">
        <ele>1343.4</ele>
        <time>2016-02-27T11:21:02Z</time>
      </trkpt>
      <trkpt lat="45.29407" lon="6.20507">
        <ele>1343.4</ele>
        <time>2016-02-27T11:21:03Z</time>
      </trkpt>
      <trkpt lat="45.29407" lon="6.20516">
        <ele>1342.8</ele>
        <time>2016-02-27T11:21:04Z</time>
      </trkpt>
      <trkpt lat="45.29406" lon="6.20523">
        <ele>1342.5</ele>
        <time>2016-02-27T11:21:05Z</time>
      </trkpt>
      <trkpt lat="45.29403" lon="6.20534">
        <ele>1341</ele>
        <time>2016-02-27T11:21:07Z</time>
      </trkpt>
      <trkpt lat="45.29401" lon="6.20546">
        <ele>1339.9</ele>
        <time>2016-02-27T11:21:09Z</time>
      </trkpt>
      <trkpt lat="45.29398" lon="6.20554">
        <ele>1338.5</ele>
        <time>2016-02-27T11:21:11Z</time>
      </trkpt>
      <trkpt lat="45.29399" lon="6.20566">
        <ele>1337.1</ele>
        <time>2016-02-27T11:21:13Z</time>
      </trkpt>
      <trkpt lat="45.29399" lon="6.20572">
        <ele>1336.6</ele>
        <time>2016-02-27T11:21:14Z</time>
      </trkpt>
      <trkpt lat="45.29399" lon="6.20579">
        <ele>1335.5</ele>
        <time>2016-02-27T11:21:15Z</time>
      </trkpt>
      <trkpt lat="45.29399" lon="6.20586">
        <ele>1334.8</ele>
        <time>2016-02-27T11:21:16Z</time>
      </trkpt>
      <trkpt lat="45.29397" lon="6.20599">
        <ele>1333.3</ele>
        <time>2016-02-27T11:21:18Z</time>
      </trkpt>
      <trkpt lat="45.29394" lon="6.20609">
        <ele>1332.1</ele>
        <time>2016-02-27T11:21:20Z</time>
      </trkpt>
      <trkpt lat="45.2939" lon="6.20616">
        <ele>1331.4</ele>
        <time>2016-02-27T11:21:22Z</time>
      </trkpt>
      <trkpt lat="45.29387" lon="6.20621">
        <ele>1331</ele>
        <time>2016-02-27T11:21:23Z</time>
      </trkpt>
      <trkpt lat="45.29385" lon="6.20628">
        <ele>1330.8</ele>
        <time>2016-02-27T11:21:24Z</time>
      </trkpt>
      <trkpt lat="45.29383" lon="6.20636">
        <ele>1330.2</ele>
        <time>2016-02-27T11:21:25Z</time>
      </trkpt>
      <trkpt lat="45.2938" lon="6.20644">
        <ele>1329.9</ele>
        <time>2016-02-27T11:21:26Z</time>
      </trkpt>
      <trkpt lat="45.29377" lon="6.20651">
        <ele>1329.1</ele>
        <time>2016-02-27T11:21:27Z</time>
      </trkpt>
      <trkpt lat="45.29374" lon="6.20657">
        <ele>1328.5</ele>
        <time>2016-02-27T11:21:28Z</time>
      </trkpt>
      <trkpt lat="45.29371" lon="6.20669">
        <ele>1328.1</ele>
        <time>2016-02-27T11:21:30Z</time>
      </trkpt>
      <trkpt lat="45.29371" lon="6.20678">
        <ele>1327.4</ele>
        <time>2016-02-27T11:21:32Z</time>
      </trkpt>
      <trkpt lat="45.2937" lon="6.20683">
        <ele>1326.8</ele>
        <time>2016-02-27T11:21:33Z</time>
      </trkpt>
      <trkpt lat="45.29367" lon="6.20697">
        <ele>1325.8</ele>
        <time>2016-02-27T11:21:36Z</time>
      </trkpt>
      <trkpt lat="45.29368" lon="6.20709">
        <ele>1324.8</ele>
        <time>2016-02-27T11:21:39Z</time>
      </trkpt>
      <trkpt lat="45.29368" lon="6.2072">
        <ele>1323.6</ele>
        <time>2016-02-27T11:21:43Z</time>
      </trkpt>
      <trkpt lat="45.29368" lon="6.2073">
        <ele>1322.7</ele>
        <time>2016-02-27T11:22:12Z</time>
      </trkpt>
      <trkpt lat="45.29368" lon="6.20741">
        <ele>1323</ele>
        <time>2016-02-27T11:22:16Z</time>
      </trkpt>
      <trkpt lat="45.29371" lon="6.20752">
        <ele>1321.1</ele>
        <time>2016-02-27T11:22:20Z</time>
      </trkpt>
      <trkpt lat="45.29373" lon="6.20762">
        <ele>1319.8</ele>
        <time>2016-02-27T11:22:22Z</time>
      </trkpt>
      <trkpt lat="45.29371" lon="6.20772">
        <ele>1318.6</ele>
        <time>2016-02-27T11:22:25Z</time>
      </trkpt>
      <trkpt lat="45.29369" lon="6.20784">
        <ele>1315.1</ele>
        <time>2016-02-27T11:22:32Z</time>
      </trkpt>
      <trkpt lat="45.29371" lon="6.20795">
        <ele>1314.1</ele>
        <time>2016-02-27T11:22:42Z</time>
      </trkpt>
      <trkpt lat="45.29372" lon="6.208">
        <ele>1313.7</ele>
        <time>2016-02-27T11:22:43Z</time>
      </trkpt>
      <trkpt lat="45.29374" lon="6.20818">
        <ele>1309.4</ele>
        <time>2016-02-27T11:22:50Z</time>
      </trkpt>
      <trkpt lat="45.2937" lon="6.20828">
        <ele>1308</ele>
        <time>2016-02-27T11:22:54Z</time>
      </trkpt>
      <trkpt lat="45.29364" lon="6.20837">
        <ele>1305.5</ele>
        <time>2016-02-27T11:23:09Z</time>
      </trkpt>
      <trkpt lat="45.29363" lon="6.20845">
        <ele>1304.4</ele>
        <time>2016-02-27T11:23:12Z</time>
      </trkpt>
      <trkpt lat="45.2936" lon="6.20857">
        <ele>1302.9</ele>
        <time>2016-02-27T11:23:17Z</time>
      </trkpt>
      <trkpt lat="45.29358" lon="6.20868">
        <ele>1300.9</ele>
        <time>2016-02-27T11:23:22Z</time>
      </trkpt>
      <trkpt lat="45.29356" lon="6.20876">
        <ele>1299</ele>
        <time>2016-02-27T11:23:26Z</time>
      </trkpt>
      <trkpt lat="45.29354" lon="6.20886">
        <ele>1297.1</ele>
        <time>2016-02-27T11:23:28Z</time>
      </trkpt>
      <trkpt lat="45.29351" lon="6.20894">
        <ele>1294.7</ele>
        <time>2016-02-27T11:23:31Z</time>
      </trkpt>
      <trkpt lat="45.29351" lon="6.20905">
        <ele>1292.9</ele>
        <time>2016-02-27T11:23:34Z</time>
      </trkpt>
      <trkpt lat="45.29353" lon="6.20916">
        <ele>1290.2</ele>
        <time>2016-02-27T11:23:39Z</time>
      </trkpt>
      <trkpt lat="45.29352" lon="6.20928">
        <ele>1288.1</ele>
        <time>2016-02-27T11:23:47Z</time>
      </trkpt>
      <trkpt lat="45.29352" lon="6.20929">
        <ele>1288.3</ele>
        <time>2016-02-27T11:23:48Z</time>
      </trkpt>
      <trkpt lat="45.29348" lon="6.20952">
        <ele>1284</ele>
        <time>2016-02-27T11:24:07Z</time>
      </trkpt>
      <trkpt lat="45.29352" lon="6.20962">
        <ele>1281.6</ele>
        <time>2016-02-27T11:24:17Z</time>
      </trkpt>
      <trkpt lat="45.29352" lon="6.20974">
        <ele>1275.3</ele>
        <time>2016-02-27T11:24:30Z</time>
      </trkpt>
      <trkpt lat="45.29351" lon="6.20985">
        <ele>1272.2</ele>
        <time>2016-02-27T11:24:36Z</time>
      </trkpt>
      <trkpt lat="45.29346" lon="6.20994">
        <ele>1270.7</ele>
        <time>2016-02-27T11:24:38Z</time>
      </trkpt>
      <trkpt lat="45.29342" lon="6.21002">
        <ele>1269.8</ele>
        <time>2016-02-27T11:24:40Z</time>
      </trkpt>
      <trkpt lat="45.29337" lon="6.21008">
        <ele>1269</ele>
        <time>2016-02-27T11:24:42Z</time>
      </trkpt>
      <trkpt lat="45.29333" lon="6.21016">
        <ele>1267.8</ele>
        <time>2016-02-27T11:24:44Z</time>
      </trkpt>
      <trkpt lat="45.29331" lon="6.21022">
        <ele>1267.2</ele>
        <time>2016-02-27T11:24:45Z</time>
      </trkpt>
      <trkpt lat="45.29329" lon="6.21034">
        <ele>1265.4</ele>
        <time>2016-02-27T11:24:47Z</time>
      </trkpt>
      <trkpt lat="45.29328" lon="6.21046">
        <ele>1260.9</ele>
        <time>2016-02-27T11:24:59Z</time>
      </trkpt>
      <trkpt lat="45.29328" lon="6.21047">
        <ele>1260.7</ele>
        <time>2016-02-27T11:25:00Z</time>
      </trkpt>
      <trkpt lat="45.29328" lon="6.21067">
        <ele>1258.4</ele>
        <time>2016-02-27T11:25:10Z</time>
      </trkpt>
      <trkpt lat="45.29329" lon="6.21077">
        <ele>1258.4</ele>
        <time>2016-02-27T11:25:12Z</time>
      </trkpt>
      <trkpt lat="45.29327" lon="6.21086">
        <ele>1257.4</ele>
        <time>2016-02-27T11:25:14Z</time>
      </trkpt>
      <trkpt lat="45.29324" lon="6.21098">
        <ele>1254.5</ele>
        <time>2016-02-27T11:25:17Z</time>
      </trkpt>
      <trkpt lat="45.29322" lon="6.21109">
        <ele>1253.2</ele>
        <time>2016-02-27T11:25:19Z</time>
      </trkpt>
      <trkpt lat="45.29321" lon="6.2112">
        <ele>1251</ele>
        <time>2016-02-27T11:25:21Z</time>
      </trkpt>
      <trkpt lat="45.2932" lon="6.21132">
        <ele>1249.1</ele>
        <time>2016-02-27T11:25:23Z</time>
      </trkpt>
      <trkpt lat="45.2932" lon="6.21143">
        <ele>1247.2</ele>
        <time>2016-02-27T11:25:25Z</time>
      </trkpt>
      <trkpt lat="45.29319" lon="6.21154">
        <ele>1245.4</ele>
        <time>2016-02-27T11:25:27Z</time>
      </trkpt>
      <trkpt lat="45.29317" lon="6.21163">
        <ele>1244</ele>
        <time>2016-02-27T11:25:29Z</time>
      </trkpt>
      <trkpt lat="45.29317" lon="6.21169">
        <ele>1243.4</ele>
        <time>2016-02-27T11:25:30Z</time>
      </trkpt>
      <trkpt lat="45.29317" lon="6.21176">
        <ele>1243</ele>
        <time>2016-02-27T11:25:31Z</time>
      </trkpt>
      <trkpt lat="45.29315" lon="6.21187">
        <ele>1241.6</ele>
        <time>2016-02-27T11:25:33Z</time>
      </trkpt>
      <trkpt lat="45.29316" lon="6.21199">
        <ele>1237.8</ele>
        <time>2016-02-27T11:25:36Z</time>
      </trkpt>
      <trkpt lat="45.29318" lon="6.21212">
        <ele>1234.9</ele>
        <time>2016-02-27T11:25:39Z</time>
      </trkpt>
      <trkpt lat="45.29316" lon="6.21221">
        <ele>1233.1</ele>
        <time>2016-02-27T11:25:45Z</time>
      </trkpt>
      <trkpt lat="45.29313" lon="6.21232">
        <ele>1231.8</ele>
        <time>2016-02-27T11:25:47Z</time>
      </trkpt>
      <trkpt lat="45.2931" lon="6.21243">
        <ele>1230.9</ele>
        <time>2016-02-27T11:25:49Z</time>
      </trkpt>
      <trkpt lat="45.29304" lon="6.2125">
        <ele>1230</ele>
        <time>2016-02-27T11:25:51Z</time>
      </trkpt>
      <trkpt lat="45.29299" lon="6.2126">
        <ele>1227.5</ele>
        <time>2016-02-27T11:25:58Z</time>
      </trkpt>
      <trkpt lat="45.29295" lon="6.21271">
        <ele>1227.2</ele>
        <time>2016-02-27T11:26:12Z</time>
      </trkpt>
      <trkpt lat="45.29295" lon="6.21272">
        <ele>1227.2</ele>
        <time>2016-02-27T11:26:13Z</time>
      </trkpt>
      <trkpt lat="45.2929" lon="6.21292">
        <ele>1226</ele>
        <time>2016-02-27T11:26:38Z</time>
      </trkpt>
      <trkpt lat="45.29286" lon="6.21301">
        <ele>1225.7</ele>
        <time>2016-02-27T11:26:40Z</time>
      </trkpt>
      <trkpt lat="45.29281" lon="6.21309">
        <ele>1222.3</ele>
        <time>2016-02-27T11:26:44Z</time>
      </trkpt>
      <trkpt lat="45.29275" lon="6.21318">
        <ele>1221</ele>
        <time>2016-02-27T11:26:49Z</time>
      </trkpt>
      <trkpt lat="45.29268" lon="6.21326">
        <ele>1220</ele>
        <time>2016-02-27T11:26:52Z</time>
      </trkpt>
      <trkpt lat="45.29265" lon="6.21335">
        <ele>1217.2</ele>
        <time>2016-02-27T11:26:56Z</time>
      </trkpt>
      <trkpt lat="45.29259" lon="6.21345">
        <ele>1213.4</ele>
        <time>2016-02-27T11:27:09Z</time>
      </trkpt>
      <trkpt lat="45.29253" lon="6.21354">
        <ele>1212.7</ele>
        <time>2016-02-27T11:27:27Z</time>
      </trkpt>
      <trkpt lat="45.29253" lon="6.21354">
        <ele>1212.6</ele>
        <time>2016-02-27T11:27:28Z</time>
      </trkpt>
      <trkpt lat="45.29242" lon="6.21371">
        <ele>1212</ele>
        <time>2016-02-27T11:27:49Z</time>
      </trkpt>
      <trkpt lat="45.29234" lon="6.21376">
        <ele>1208</ele>
        <time>2016-02-27T11:28:26Z</time>
      </trkpt>
      <trkpt lat="45.29242" lon="6.21375">
        <ele>1207.5</ele>
        <time>2016-02-27T11:29:11Z</time>
      </trkpt>
      <trkpt lat="45.29243" lon="6.21374">
        <ele>1207.4</ele>
        <time>2016-02-27T11:29:12Z</time>
      </trkpt>
      <trkpt lat="45.29258" lon="6.21362">
        <ele>1207.3</ele>
        <time>2016-02-27T11:31:10Z</time>
      </trkpt>
      <trkpt lat="45.29259" lon="6.21362">
        <ele>1207.3</ele>
        <time>2016-02-27T11:31:11Z</time>
      </trkpt>
      <trkpt lat="45.2925" lon="6.21369">
        <ele>1207.6</ele>
        <time>2016-02-27T11:32:37Z</time>
      </trkpt>
      <trkpt lat="45.29249" lon="6.21365">
        <ele>1207.9</ele>
        <time>2016-02-27T11:34:41Z</time>
      </trkpt>
      <trkpt lat="45.29249" lon="6.21365">
        <ele>1207.8</ele>
        <time>2016-02-27T11:34:42Z</time>
      </trkpt>
      <trkpt lat="45.29236" lon="6.21374">
        <ele>1209.8</ele>
        <time>2016-02-27T11:36:49Z</time>
      </trkpt>
      <trkpt lat="45.29236" lon="6.21374">
        <ele>1209.8</ele>
        <time>2016-02-27T11:36:50Z</time>
      </trkpt>
      <trkpt lat="45.2922" lon="6.21384">
        <ele>1213.9</ele>
        <time>2016-02-27T11:37:17Z</time>
      </trkpt>
      <trkpt lat="45.29213" lon="6.21388">
        <ele>1216</ele>
        <time>2016-02-27T11:37:30Z</time>
      </trkpt>
      <trkpt lat="45.29205" lon="6.21394">
        <ele>1219.2</ele>
        <time>2016-02-27T11:37:39Z</time>
      </trkpt>
      <trkpt lat="45.29197" lon="6.21397">
        <ele>1222</ele>
        <time>2016-02-27T11:37:49Z</time>
      </trkpt>
      <trkpt lat="45.29189" lon="6.21399">
        <ele>1224.2</ele>
        <time>2016-02-27T11:38:03Z</time>
      </trkpt>
      <trkpt lat="45.29188" lon="6.21399">
        <ele>1223.8</ele>
        <time>2016-02-27T11:38:04Z</time>
      </trkpt>
      <trkpt lat="45.29172" lon="6.21401">
        <ele>1224.7</ele>
        <time>2016-02-27T11:38:35Z</time>
      </trkpt>
      <trkpt lat="45.29163" lon="6.21406">
        <ele>1222.6</ele>
        <time>2016-02-27T11:38:45Z</time>
      </trkpt>
      <trkpt lat="45.29155" lon="6.21408">
        <ele>1222.2</ele>
        <time>2016-02-27T11:38:53Z</time>
      </trkpt>
      <trkpt lat="45.29147" lon="6.21407">
        <ele>1221</ele>
        <time>2016-02-27T11:39:00Z</time>
      </trkpt>
      <trkpt lat="45.29138" lon="6.21404">
        <ele>1222.1</ele>
        <time>2016-02-27T11:39:09Z</time>
      </trkpt>
      <trkpt lat="45.29138" lon="6.21404">
        <ele>1222.2</ele>
        <time>2016-02-27T11:39:10Z</time>
      </trkpt>
      <trkpt lat="45.29122" lon="6.21405">
        <ele>1221.8</ele>
        <time>2016-02-27T11:39:23Z</time>
      </trkpt>
      <trkpt lat="45.29114" lon="6.21403">
        <ele>1222.6</ele>
        <time>2016-02-27T11:39:31Z</time>
      </trkpt>
      <trkpt lat="45.29105" lon="6.21401">
        <ele>1222</ele>
        <time>2016-02-27T11:39:38Z</time>
      </trkpt>
      <trkpt lat="45.29097" lon="6.21397">
        <ele>1223.6</ele>
        <time>2016-02-27T11:39:47Z</time>
      </trkpt>
      <trkpt lat="45.2909" lon="6.21392">
        <ele>1222.6</ele>
        <time>2016-02-27T11:39:58Z</time>
      </trkpt>
      <trkpt lat="45.29081" lon="6.21393">
        <ele>1222</ele>
        <time>2016-02-27T11:40:13Z</time>
      </trkpt>
      <trkpt lat="45.2908" lon="6.21393">
        <ele>1221.9</ele>
        <time>2016-02-27T11:40:14Z</time>
      </trkpt>
      <trkpt lat="45.29066" lon="6.21404">
        <ele>1211.3</ele>
        <time>2016-02-27T11:40:35Z</time>
      </trkpt>
      <trkpt lat="45.29058" lon="6.21408">
        <ele>1206.4</ele>
        <time>2016-02-27T11:40:43Z</time>
      </trkpt>
      <trkpt lat="45.29051" lon="6.21412">
        <ele>1203.5</ele>
        <time>2016-02-27T11:40:49Z</time>
      </trkpt>
      <trkpt lat="45.29046" lon="6.21422">
        <ele>1200.7</ele>
        <time>2016-02-27T11:40:55Z</time>
      </trkpt>
      <trkpt lat="45.29038" lon="6.21425">
        <ele>1197.1</ele>
        <time>2016-02-27T11:41:07Z</time>
      </trkpt>
      <trkpt lat="45.29031" lon="6.21429">
        <ele>1196.2</ele>
        <time>2016-02-27T11:41:15Z</time>
      </trkpt>
      <trkpt lat="45.29029" lon="6.2143">
        <ele>1195.2</ele>
        <time>2016-02-27T11:41:16Z</time>
      </trkpt>
      <trkpt lat="45.2902" lon="6.21443">
        <ele>1190.2</ele>
        <time>2016-02-27T11:41:23Z</time>
      </trkpt>
      <trkpt lat="45.29013" lon="6.21448">
        <ele>1186.4</ele>
        <time>2016-02-27T11:41:28Z</time>
      </trkpt>
      <trkpt lat="45.29007" lon="6.21456">
        <ele>1183.6</ele>
        <time>2016-02-27T11:41:35Z</time>
      </trkpt>
      <trkpt lat="45.28999" lon="6.21459">
        <ele>1180.6</ele>
        <time>2016-02-27T11:41:45Z</time>
      </trkpt>
      <trkpt lat="45.28993" lon="6.21466">
        <ele>1178.9</ele>
        <time>2016-02-27T11:41:51Z</time>
      </trkpt>
      <trkpt lat="45.28985" lon="6.21469">
        <ele>1177</ele>
        <time>2016-02-27T11:42:01Z</time>
      </trkpt>
      <trkpt lat="45.28978" lon="6.21468">
        <ele>1175.1</ele>
        <time>2016-02-27T11:42:08Z</time>
      </trkpt>
      <trkpt lat="45.28972" lon="6.21476">
        <ele>1172</ele>
        <time>2016-02-27T11:42:15Z</time>
      </trkpt>
      <trkpt lat="45.28965" lon="6.21482">
        <ele>1169.2</ele>
        <time>2016-02-27T11:42:20Z</time>
      </trkpt>
      <trkpt lat="45.28965" lon="6.21484">
        <ele>1168.7</ele>
        <time>2016-02-27T11:42:21Z</time>
      </trkpt>
      <trkpt lat="45.28956" lon="6.21501">
        <ele>1163.8</ele>
        <time>2016-02-27T11:42:33Z</time>
      </trkpt>
      <trkpt lat="45.28953" lon="6.21512">
        <ele>1161.2</ele>
        <time>2016-02-27T11:42:46Z</time>
      </trkpt>
      <trkpt lat="45.28945" lon="6.21517">
        <ele>1159.7</ele>
        <time>2016-02-27T11:42:56Z</time>
      </trkpt>
      <trkpt lat="45.28937" lon="6.21515">
        <ele>1158.9</ele>
        <time>2016-02-27T11:43:03Z</time>
      </trkpt>
      <trkpt lat="45.28929" lon="6.21519">
        <ele>1157.2</ele>
        <time>2016-02-27T11:43:09Z</time>
      </trkpt>
      <trkpt lat="45.28922" lon="6.21523">
        <ele>1154.7</ele>
        <time>2016-02-27T11:43:15Z</time>
      </trkpt>
      <trkpt lat="45.28913" lon="6.21523">
        <ele>1152.3</ele>
        <time>2016-02-27T11:43:21Z</time>
      </trkpt>
      <trkpt lat="45.28906" lon="6.21517">
        <ele>1152</ele>
        <time>2016-02-27T11:43:29Z</time>
      </trkpt>
      <trkpt lat="45.28905" lon="6.21516">
        <ele>1152.1</ele>
        <time>2016-02-27T11:43:30Z</time>
      </trkpt>
      <trkpt lat="45.28895" lon="6.21499">
        <ele>1153.4</ele>
        <time>2016-02-27T11:43:49Z</time>
      </trkpt>
      <trkpt lat="45.28889" lon="6.21491">
        <ele>1155.1</ele>
        <time>2016-02-27T11:43:55Z</time>
      </trkpt>
      <trkpt lat="45.28883" lon="6.21483">
        <ele>1155.3</ele>
        <time>2016-02-27T11:44:01Z</time>
      </trkpt>
      <trkpt lat="45.28877" lon="6.21476">
        <ele>1156.7</ele>
        <time>2016-02-27T11:44:07Z</time>
      </trkpt>
      <trkpt lat="45.2887" lon="6.21469">
        <ele>1157.7</ele>
        <time>2016-02-27T11:44:13Z</time>
      </trkpt>
      <trkpt lat="45.28865" lon="6.21459">
        <ele>1158.8</ele>
        <time>2016-02-27T11:44:19Z</time>
      </trkpt>
      <trkpt lat="45.28861" lon="6.21448">
        <ele>1160.2</ele>
        <time>2016-02-27T11:44:25Z</time>
      </trkpt>
      <trkpt lat="45.28857" lon="6.21438">
        <ele>1161.2</ele>
        <time>2016-02-27T11:44:31Z</time>
      </trkpt>
      <trkpt lat="45.28857" lon="6.21436">
        <ele>1161.3</ele>
        <time>2016-02-27T11:44:32Z</time>
      </trkpt>
      <trkpt lat="45.28846" lon="6.2142">
        <ele>1162.5</ele>
        <time>2016-02-27T11:44:43Z</time>
      </trkpt>
      <trkpt lat="45.2884" lon="6.21413">
        <ele>1162.4</ele>
        <time>2016-02-27T11:44:49Z</time>
      </trkpt>
      <trkpt lat="45.28834" lon="6.21406">
        <ele>1164.2</ele>
        <time>2016-02-27T11:44:55Z</time>
      </trkpt>
      <trkpt lat="45.28826" lon="6.214">
        <ele>1164.6</ele>
        <time>2016-02-27T11:45:02Z</time>
      </trkpt>
      <trkpt lat="45.28819" lon="6.21395">
        <ele>1166.1</ele>
        <time>2016-02-27T11:45:08Z</time>
      </trkpt>
      <trkpt lat="45.28812" lon="6.21387">
        <ele>1167.2</ele>
        <time>2016-02-27T11:45:15Z</time>
      </trkpt>
      <trkpt lat="45.28807" lon="6.21377">
        <ele>1167.3</ele>
        <time>2016-02-27T11:45:21Z</time>
      </trkpt>
      <trkpt lat="45.28799" lon="6.21373">
        <ele>1168.2</ele>
        <time>2016-02-27T11:45:27Z</time>
      </trkpt>
      <trkpt lat="45.28792" lon="6.21366">
        <ele>1168.1</ele>
        <time>2016-02-27T11:45:33Z</time>
      </trkpt>
      <trkpt lat="45.28791" lon="6.21365">
        <ele>1168.4</ele>
        <time>2016-02-27T11:45:34Z</time>
      </trkpt>
      <trkpt lat="45.2878" lon="6.2135">
        <ele>1169</ele>
        <time>2016-02-27T11:45:45Z</time>
      </trkpt>
      <trkpt lat="45.28774" lon="6.21343">
        <ele>1169.7</ele>
        <time>2016-02-27T11:45:51Z</time>
      </trkpt>
      <trkpt lat="45.28767" lon="6.21336">
        <ele>1170.3</ele>
        <time>2016-02-27T11:45:57Z</time>
      </trkpt>
      <trkpt lat="45.2876" lon="6.21328">
        <ele>1171.9</ele>
        <time>2016-02-27T11:46:03Z</time>
      </trkpt>
      <trkpt lat="45.28754" lon="6.2132">
        <ele>1170.9</ele>
        <time>2016-02-27T11:46:09Z</time>
      </trkpt>
      <trkpt lat="45.28747" lon="6.21313">
        <ele>1172.6</ele>
        <time>2016-02-27T11:46:15Z</time>
      </trkpt>
      <trkpt lat="45.2874" lon="6.21305">
        <ele>1172.6</ele>
        <time>2016-02-27T11:46:21Z</time>
      </trkpt>
      <trkpt lat="45.28733" lon="6.21298">
        <ele>1173.5</ele>
        <time>2016-02-27T11:46:27Z</time>
      </trkpt>
      <trkpt lat="45.28726" lon="6.21291">
        <ele>1174.1</ele>
        <time>2016-02-27T11:46:33Z</time>
      </trkpt>
      <trkpt lat="45.2872" lon="6.21283">
        <ele>1174.5</ele>
        <time>2016-02-27T11:46:39Z</time>
      </trkpt>
      <trkpt lat="45.28718" lon="6.21282">
        <ele>1174.9</ele>
        <time>2016-02-27T11:46:40Z</time>
      </trkpt>
      <trkpt lat="45.28705" lon="6.21271">
        <ele>1176.5</ele>
        <time>2016-02-27T11:46:50Z</time>
      </trkpt>
      <trkpt lat="45.28698" lon="6.21266">
        <ele>1176.3</ele>
        <time>2016-02-27T11:46:55Z</time>
      </trkpt>
      <trkpt lat="45.28692" lon="6.21259">
        <ele>1177.6</ele>
        <time>2016-02-27T11:47:00Z</time>
      </trkpt>
      <trkpt lat="45.28686" lon="6.21251">
        <ele>1177.7</ele>
        <time>2016-02-27T11:47:05Z</time>
      </trkpt>
      <trkpt lat="45.2868" lon="6.21244">
        <ele>1178</ele>
        <time>2016-02-27T11:47:10Z</time>
      </trkpt>
      <trkpt lat="45.28673" lon="6.21238">
        <ele>1178.1</ele>
        <time>2016-02-27T11:47:15Z</time>
      </trkpt>
      <trkpt lat="45.28666" lon="6.21233">
        <ele>1179.3</ele>
        <time>2016-02-27T11:47:20Z</time>
      </trkpt>
      <trkpt lat="45.28659" lon="6.21227">
        <ele>1179.7</ele>
        <time>2016-02-27T11:47:26Z</time>
      </trkpt>
      <trkpt lat="45.28652" lon="6.21219">
        <ele>1179.7</ele>
        <time>2016-02-27T11:47:32Z</time>
      </trkpt>
      <trkpt lat="45.28645" lon="6.21213">
        <ele>1181.1</ele>
        <time>2016-02-27T11:47:37Z</time>
      </trkpt>
      <trkpt lat="45.28639" lon="6.21207">
        <ele>1181.6</ele>
        <time>2016-02-27T11:47:42Z</time>
      </trkpt>
      <trkpt lat="45.28637" lon="6.21206">
        <ele>1182</ele>
        <time>2016-02-27T11:47:43Z</time>
      </trkpt>
      <trkpt lat="45.28624" lon="6.21198">
        <ele>1182.7</ele>
        <time>2016-02-27T11:47:52Z</time>
      </trkpt>
      <trkpt lat="45.28617" lon="6.21193">
        <ele>1184.6</ele>
        <time>2016-02-27T11:47:57Z</time>
      </trkpt>
      <trkpt lat="45.28609" lon="6.21188">
        <ele>1185.2</ele>
        <time>2016-02-27T11:48:03Z</time>
      </trkpt>
      <trkpt lat="45.28603" lon="6.21182">
        <ele>1186.3</ele>
        <time>2016-02-27T11:48:08Z</time>
      </trkpt>
      <trkpt lat="45.28596" lon="6.21176">
        <ele>1186.4</ele>
        <time>2016-02-27T11:48:14Z</time>
      </trkpt>
      <trkpt lat="45.28588" lon="6.21171">
        <ele>1187.8</ele>
        <time>2016-02-27T11:48:21Z</time>
      </trkpt>
      <trkpt lat="45.2858" lon="6.21167">
        <ele>1189.5</ele>
        <time>2016-02-27T11:48:29Z</time>
      </trkpt>
      <trkpt lat="45.28572" lon="6.21163">
        <ele>1190.1</ele>
        <time>2016-02-27T11:48:35Z</time>
      </trkpt>
      <trkpt lat="45.28564" lon="6.21158">
        <ele>1191.1</ele>
        <time>2016-02-27T11:48:41Z</time>
      </trkpt>
      <trkpt lat="45.28557" lon="6.21152">
        <ele>1192.6</ele>
        <time>2016-02-27T11:48:47Z</time>
      </trkpt>
      <trkpt lat="45.28556" lon="6.21151">
        <ele>1192.7</ele>
        <time>2016-02-27T11:48:48Z</time>
      </trkpt>
      <trkpt lat="45.28543" lon="6.21138">
        <ele>1193.7</ele>
        <time>2016-02-27T11:48:59Z</time>
      </trkpt>
      <trkpt lat="45.28536" lon="6.21132">
        <ele>1194.8</ele>
        <time>2016-02-27T11:49:05Z</time>
      </trkpt>
      <trkpt lat="45.28529" lon="6.21127">
        <ele>1197.1</ele>
        <time>2016-02-27T11:49:11Z</time>
      </trkpt>
      <trkpt lat="45.28522" lon="6.21121">
        <ele>1197.1</ele>
        <time>2016-02-27T11:49:17Z</time>
      </trkpt>
      <trkpt lat="45.28515" lon="6.21115">
        <ele>1198.5</ele>
        <time>2016-02-27T11:49:24Z</time>
      </trkpt>
      <trkpt lat="45.28507" lon="6.21111">
        <ele>1199.3</ele>
        <time>2016-02-27T11:49:31Z</time>
      </trkpt>
      <trkpt lat="45.285" lon="6.21106">
        <ele>1200.4</ele>
        <time>2016-02-27T11:49:37Z</time>
      </trkpt>
      <trkpt lat="45.28493" lon="6.21101">
        <ele>1201.1</ele>
        <time>2016-02-27T11:49:43Z</time>
      </trkpt>
      <trkpt lat="45.28486" lon="6.21095">
        <ele>1202.1</ele>
        <time>2016-02-27T11:49:49Z</time>
      </trkpt>
      <trkpt lat="45.28485" lon="6.21094">
        <ele>1202.2</ele>
        <time>2016-02-27T11:49:50Z</time>
      </trkpt>
      <trkpt lat="45.28472" lon="6.2108">
        <ele>1203.7</ele>
        <time>2016-02-27T11:50:03Z</time>
      </trkpt>
      <trkpt lat="45.28465" lon="6.21074">
        <ele>1205</ele>
        <time>2016-02-27T11:50:11Z</time>
      </trkpt>
      <trkpt lat="45.28456" lon="6.21075">
        <ele>1206.2</ele>
        <time>2016-02-27T11:50:19Z</time>
      </trkpt>
      <trkpt lat="45.28449" lon="6.21081">
        <ele>1208</ele>
        <time>2016-02-27T11:50:28Z</time>
      </trkpt>
      <trkpt lat="45.2844" lon="6.21083">
        <ele>1208.9</ele>
        <time>2016-02-27T11:50:36Z</time>
      </trkpt>
      <trkpt lat="45.28433" lon="6.21077">
        <ele>1209</ele>
        <time>2016-02-27T11:50:42Z</time>
      </trkpt>
      <trkpt lat="45.28425" lon="6.21072">
        <ele>1210.4</ele>
        <time>2016-02-27T11:50:48Z</time>
      </trkpt>
      <trkpt lat="45.28418" lon="6.21069">
        <ele>1210.5</ele>
        <time>2016-02-27T11:50:53Z</time>
      </trkpt>
      <trkpt lat="45.28416" lon="6.21068">
        <ele>1210.7</ele>
        <time>2016-02-27T11:50:54Z</time>
      </trkpt>
      <trkpt lat="45.28404" lon="6.2106">
        <ele>1209.7</ele>
        <time>2016-02-27T11:51:02Z</time>
      </trkpt>
      <trkpt lat="45.28396" lon="6.21053">
        <ele>1211.4</ele>
        <time>2016-02-27T11:51:08Z</time>
      </trkpt>
      <trkpt lat="45.28389" lon="6.21047">
        <ele>1212.2</ele>
        <time>2016-02-27T11:52:07Z</time>
      </trkpt>
      <trkpt lat="45.28388" lon="6.21046">
        <ele>1212.2</ele>
        <time>2016-02-27T11:52:08Z</time>
      </trkpt>
      <trkpt lat="45.28397" lon="6.21056">
        <ele>1214.7</ele>
        <time>2016-02-27T11:54:04Z</time>
      </trkpt>
      <trkpt lat="45.28407" lon="6.21063">
        <ele>1215.2</ele>
        <time>2016-02-27T11:54:07Z</time>
      </trkpt>
      <trkpt lat="45.28414" lon="6.21068">
        <ele>1215.8</ele>
        <time>2016-02-27T11:54:10Z</time>
      </trkpt>
    </trkseg>
  </trk>
</gpx>